<<back to data home page
Ready for cooler weather this Fall?? Stay in touch!! - DONATE ANY AMOUNT BY CLICKING THIS LINK!!!


    Month/Day/Year       Maximum   Minimum    Rel    Dew       Rainfall  Seasonal  Soil     Soil      Baro       Wind    Wind        Peak    Peak Speed Evap     Leaf     Net
    and                  Air Temp  Air Temp   Hum    Point     Inches    Rainfall  Temp     Moisture  Pressure   Speed   Direction   Speed   Direction   Pan     Wetness  Radiation
    Local Time           Deg F     Deg F      %      Deg F               Inches    Deg F    dS/m      mbar       MPH     comp  deg   MPH     comp  deg  Inches   mV       W_m2
----------------------------------------------------------------------------------------------------------------------------------------------------------------------------------
   11/14/2019 11:40      72.5      71.4       49     51.7      0.00      0.00      67.6     0.28      1019.1     1.2     NNE    18   4.6     NNE    23  10.01    266      309.5
   11/14/2019 11:30      71.6      71.0       50     51.6      0.00      0.00      67.6     0.28      1019.2     1.7     NNE    30   4.6       N   355  10.01    266      334.2
   11/14/2019 11:20      71.0      69.6       51     51.3      0.00      0.00      67.6     0.28      1019.3     1.4      NE    43   3.5     ENE    61  10.01    266      351.1
   11/14/2019 11:10      69.8      68.8       53     51.4      0.00      0.00      67.6     0.28      1019.5     1.4       E    93   3.5       E    97  10.01    266      245.9
   11/14/2019 11:00      69.5      68.2       54     51.6      0.00      0.00      67.6     0.28      1019.7     1.7     NNE    31   4.3     NNE    33  10.01    266      328.0
   11/14/2019 10:50      69.0      68.2       53     51.0      0.00      0.00      67.6     0.28      1019.9     1.6      NE    43   3.9     NNE    16  10.01    266      328.5
   11/14/2019 10:40      68.9      67.5       51     49.1      0.00      0.00      67.6     0.28      1020.0     1.7     ENE    59   3.8     NNE    21  10.01    266      362.3
   11/14/2019 10:30      67.8      66.5       57     51.4      0.00      0.00      67.6     0.28      1020.1     1.8     ENE    77   3.7     ENE    63  10.01    266      350.4
   11/14/2019 10:20      66.5      65.9       61     52.3      0.00      0.00      67.6     0.28      1020.2     1.5     NNE    27   3.4       E    85  10.01    267      249.6
   11/14/2019 10:10      66.4      65.1       63     52.8      0.00      0.00      67.6     0.28      1020.3     1.9     NNE    27   3.6       N    11  10.02    267      309.2
   11/14/2019 10:00      65.6      64.9       65     53.1      0.00      0.00      67.7     0.28      1020.3     1.6      NE    38   3.3       N     0  10.02    267      260.9
   11/14/2019 09:50      65.1      64.4       66     53.2      0.00      0.00      67.7     0.28      1020.5     1.3     NNE    13   4.1       N     6  10.02    267      290.5
   11/14/2019 09:40      64.6      63.5       68     53.3      0.00      0.00      67.7     0.28      1020.5     1.3     NNE    17   2.9      NE    53  10.01    267      306.6
   11/14/2019 09:30      63.7      62.5       71     53.4      0.00      0.00      67.8     0.28      1020.5     1.0     NNE    16   3.3      NE    52  10.02    268      247.8
   11/14/2019 09:20      62.8      62.3       72     53.3      0.00      0.00      67.8     0.28      1020.5     1.0     NNE    16   2.5     NNE    19  10.02    268      246.4
   11/14/2019 09:10      62.4      61.2       74     53.3      0.00      0.00      67.8     0.28      1020.5     1.0       E   100   2.9       E    80  10.02    268      222.7
   11/14/2019 09:00      61.5      60.3       75     53.1      0.00      0.00      67.8     0.28      1020.5     0.8     ENE    61   3.0     ENE    74  10.02    275      198.5
   11/14/2019 08:50      60.4      59.6       76     52.5      0.00      0.00      67.9     0.28      1020.5     0.4      NE    35   1.5       N     2  10.02    293      152.8
   11/14/2019 08:40      60.1      59.6       76     52.1      0.00      0.00      67.9     0.28      1020.5     0.5     ESE   102   1.8       E    94  10.02    301      169.2
   11/14/2019 08:30      59.9      58.9       76     51.8      0.00      0.00      67.9     0.28      1020.5     0.3     NNW   331   1.4     WSW   237  10.02    307      181.8
   11/14/2019 08:20      59.2      58.0       78     51.8      0.00      0.00      67.9     0.28      1020.4     0.5     NNW   338   1.5     WNW   299  10.02    315      250.0
   11/14/2019 08:10      58.2      56.8       82     51.8      0.00      0.00      67.9     0.28      1020.3     0.6     ENE    71   2.0       E    80  10.02    323      236.9
   11/14/2019 08:00      56.9      55.4       86     51.8      0.00      0.00      68.0     0.28      1020.1     0.9       E    91   1.8      NE    51  10.02    326      182.8
   11/14/2019 07:50      55.7      54.9       89     52.2      0.00      0.00      68.0     0.28      1020.1     0.3       N     1   1.4     ENE    70  10.02    330      115.3
   11/14/2019 07:40      55.2      54.0       90     52.0      0.00      0.00      68.1     0.28      1019.9     0.4     SSW   193   1.6     SSW   195  10.02    341       92.9
   11/14/2019 07:30      54.3      52.7       92     51.1      0.00      0.00      68.1     0.28      1019.8     0.0     NNE    27   0.7      NE    36  10.02    348       64.9
   11/14/2019 07:20      53.0      52.2       92     50.3      0.00      0.00      68.1     0.28      1019.8     0.5      SW   228   1.4     SSW   206  10.02    356       49.1
   11/14/2019 07:10      52.6      52.1       93     50.1      0.00      0.00      68.1     0.28      1019.7     1.9     WSW   248   3.0     WSW   238  10.02    360       41.7
   11/14/2019 07:00      52.5      52.0       93     50.3      0.00      0.00      68.1     0.28      1019.7     1.9     WSW   258   3.8       W   260  10.02    370       25.9
   11/14/2019 06:50      52.2      51.6       93     49.9      0.00      0.00      68.2     0.28      1019.5     0.0       N     0   0.0     ESE   119  10.02    378       15.4
   11/14/2019 06:40      51.9      51.4       93     49.7      0.00      0.00      68.2     0.28      1019.5     0.2     WSW   256   1.8       W   270  10.02    382        6.9
   11/14/2019 06:30      51.6      51.0       93     49.3      0.00      0.00      68.2     0.28      1019.5     0.4       W   270   1.7     WSW   254  10.02    386        0.4
   11/14/2019 06:20      51.2      50.6       93     49.0      0.00      0.00      68.2     0.28      1019.3     0.1     WNW   299   1.2      NW   314  10.02    388       -0.7
   11/14/2019 06:10      50.9      50.3       93     48.6      0.00      0.00      68.3     0.28      1019.2     0.0      NW   316   1.2      NW   320  10.02    389       -2.1
   11/14/2019 06:00      50.5      49.9       93     48.2      0.00      0.00      68.3     0.28      1019.2     0.2       W   280   1.3       W   278  10.02    389       -3.9
   11/14/2019 05:50      50.9      50.0       93     48.5      0.00      0.00      68.4     0.28      1018.9     0.5      NE    41   1.2      NE    53  10.02    388       -4.5
   11/14/2019 05:40      50.6      50.1       93     48.3      0.00      0.00      68.4     0.28      1018.8     0.0       N     0   0.0     ESE   103  10.02    384       -4.0
   11/14/2019 05:30      50.8      50.2       93     48.5      0.00      0.00      68.4     0.28      1018.7     0.0       S   175   0.7       S   172  10.02    385       -2.1
   11/14/2019 05:20      50.7      49.2       93     48.0      0.00      0.00      68.4     0.28      1018.7     0.6     ESE   119   1.4      SE   132  10.02    385       -3.9
   11/14/2019 05:10      49.7      49.1       93     47.4      0.00      0.00      68.4     0.28      1018.7     0.4     SSE   149   1.1       S   179  10.02    386       -5.5
   11/14/2019 05:00      50.2      49.4       93     47.8      0.00      0.00      68.5     0.28      1018.7     0.8     SSE   151   1.5      SE   135  10.02    383       -5.8
   11/14/2019 04:50      50.0      49.6       93     47.8      0.00      0.00      68.5     0.28      1018.6     0.6       S   181   1.3      SW   216  10.02    385       -6.4
   11/14/2019 04:40      50.6      49.7       92     47.9      0.00      0.00      68.5     0.28      1018.5     0.1      SE   126   0.9       E    99  10.02    381       -5.9
   11/14/2019 04:30      50.6      49.9       93     48.1      0.00      0.00      68.5     0.28      1018.6     0.3     SSE   157   1.2     SSE   165  10.02    382       -5.0
   11/14/2019 04:20      50.5      49.9       93     48.2      0.00      0.00      68.6     0.28      1018.5     0.4     SSW   203   1.5     SSW   212  10.02    379       -5.8
   11/14/2019 04:10      50.6      50.2       93     48.3      0.00      0.00      68.6     0.28      1018.5     0.9      SW   236   2.8     WSW   244  10.03    378       -5.0
   11/14/2019 04:00      50.5      49.9       93     48.0      0.00      0.00      68.6     0.28      1018.2     0.3       S   188   1.8     WSW   246  10.03    378       -5.1
   11/14/2019 03:50      50.8      50.1       93     48.2      0.00      0.00      68.6     0.28      1018.2     0.1       S   170   0.6     SSW   206  10.03    376       -5.5
   11/14/2019 03:40      50.7      50.1       92     48.2      0.00      0.00      68.7     0.28      1018.1     0.0     SSW   207   0.6      SW   222  10.03    375       -5.9
   11/14/2019 03:30      50.6      50.1       93     48.3      0.00      0.00      68.7     0.28      1018.1     0.1       S   182   0.8       S   183  10.03    373       -5.6
   11/14/2019 03:20      50.6      49.8       92     47.9      0.00      0.00      68.7     0.28      1018.1     0.0      SE   144   0.4      SE   144  10.03    373       -5.1
   11/14/2019 03:10      50.5      49.9       92     47.9      0.00      0.00      68.7     0.28      1018.1     0.0       N     0   0.0     SSE   165  10.03    373       -4.8
   11/14/2019 03:00      50.2      49.7       92     47.6      0.00      0.00      68.8     0.28      1018.3     0.0       N     0   0.0     SSE   165  10.03    375       -5.2
   11/14/2019 02:50      50.4      49.7       92     47.7      0.00      0.00      68.8     0.28      1018.4     0.0       N     0   0.0       S   172  10.03    373       -5.5
   11/14/2019 02:40      50.5      50.0       92     48.0      0.00      0.00      68.8     0.28      1018.4     0.0       N     0   0.0       S   180  10.03    371       -5.9
   11/14/2019 02:30      50.5      50.0       92     48.0      0.00      0.00      68.8     0.28      1018.3     0.0     SSE   163   0.5       S   169  10.03    371       -5.7
   11/14/2019 02:20      50.6      50.0       92     48.1      0.00      0.00      68.9     0.28      1018.3     0.7     SSE   163   1.7     SSW   198  10.03    371       -6.1
   11/14/2019 02:10      50.6      49.9       92     47.9      0.00      0.00      68.9     0.28      1018.3     0.5     SSE   156   1.2      SE   143  10.03    370       -6.3
   11/14/2019 02:00      50.6      50.2       92     48.3      0.00      0.00      68.9     0.28      1018.3     0.7     SSE   154   1.6      SE   144  10.03    368       -6.0
   11/14/2019 01:50      50.6      49.9       92     48.0      0.00      0.00      68.9     0.28      1018.3     0.7     SSE   158   1.6      SE   140  10.03    367       -6.2
   11/14/2019 01:40      50.8      50.3       92     48.5      0.00      0.00      69.0     0.28      1018.3     0.3     SSE   163   1.2      SE   138  10.03    364       -6.2
   11/14/2019 01:30      51.2      50.5       92     48.5      0.00      0.00      69.0     0.28      1018.4     0.3       S   169   1.1       S   185  10.03    363       -6.0
   11/14/2019 01:20      51.3      50.8       92     48.8      0.00      0.00      69.0     0.28      1018.3     0.0     SSW   192   0.7       S   191  10.03    360       -5.8
   11/14/2019 01:10      51.3      50.9       92     48.9      0.00      0.00      69.0     0.28      1018.2     0.0       N     0   0.0     SSE   152  10.03    359       -5.9
   11/14/2019 01:00      51.5      51.0       92     48.9      0.00      0.00      69.0     0.28      1018.1     0.0       N     0   0.0     SSE   152  10.03    356       -6.2
   11/14/2019 00:50      51.8      51.1       92     49.0      0.00      0.00      69.1     0.28      1018.1     0.0       N     0   0.0     SSE   152  10.03    352       -6.2
   11/14/2019 00:40      51.8      50.8       92     49.2      0.00      0.00      69.1     0.28      1018.1     0.0     SSE   155   0.4     SSE   157  10.03    350       -6.1
   11/14/2019 00:30      51.1      50.5       92     48.4      0.00      0.00      69.1     0.28      1018.0     0.0     SSE   158   0.2     SSE   158  10.03    348       -6.4
   11/14/2019 00:20      51.1      50.7       92     48.6      0.00      0.00      69.1     0.28      1018.0     0.0     SSE   157   0.3     SSE   157  10.03    345       -6.2
   11/14/2019 00:10      51.0      50.6       92     48.5      0.00      0.00      69.1     0.28      1018.0     0.1     SSE   148   0.7     SSE   148  10.03    342       -6.5
   11/14/2019 00:00      51.9      50.7       92     48.8      0.00      0.00      69.2     0.28      1018.0     0.4     SSE   161   1.0     SSE   150  10.03    340       -6.1
   11/13/2019 23:50      51.9      51.1       92     49.3      0.00      0.00      69.2     0.28      1018.0     0.1       S   169   0.7     SSE   158  10.03    341       -6.8
   11/13/2019 23:40      51.4      50.7       92     48.6      0.00      0.00      69.2     0.28      1017.9     0.0      SE   143   0.9      SE   144  10.03    336       -7.4
   11/13/2019 23:30      51.6      51.1       91     48.9      0.00      0.00      69.2     0.28      1017.8     0.3     SSE   153   0.9     SSE   153  10.03    333       -7.3
   11/13/2019 23:20      51.8      51.1       91     48.9      0.00      0.00      69.2     0.28      1017.8     0.4     SSE   152   1.1      SE   142  10.03    329       -7.3
   11/13/2019 23:10      52.1      51.3       91     49.2      0.00      0.00      69.2     0.28      1017.8     0.6     SSE   159   1.0     SSE   155  10.04    326       -7.5
   11/13/2019 23:00      52.0      51.6       91     49.3      0.00      0.00      69.2     0.28      1017.7     0.0     SSE   157   0.6     SSE   152  10.04    323       -8.0
   11/13/2019 22:50      52.1      51.2       91     48.9      0.00      0.00      69.3     0.28      1017.7     0.0       S   178   0.5     SSW   197  10.04    318       -8.2
   11/13/2019 22:40      52.0      51.5       91     49.0      0.00      0.00      69.3     0.28      1017.7     0.3     SSE   153   1.0     SSE   149  10.04    315       -8.8
   11/13/2019 22:30      52.2      51.6       90     49.1      0.00      0.00      69.3     0.28      1017.8     0.5     SSE   150   1.0     SSE   147  10.04    310       -8.6
   11/13/2019 22:20      52.1      51.7       90     49.0      0.00      0.00      69.3     0.28      1017.7     0.9     SSE   152   1.7      SE   145  10.04    306       -8.5
   11/13/2019 22:10      52.6      51.8       90     49.3      0.00      0.00      69.3     0.28      1017.7     0.5     SSE   160   1.4      SE   143  10.04    303       -9.0
   11/13/2019 22:00      52.5      51.9       90     49.2      0.00      0.00      69.3     0.28      1017.6     0.2     SSE   168   0.8     SSE   168  10.04    298       -9.9
   11/13/2019 21:50      52.8      52.1       89     49.3      0.00      0.00      69.3     0.28      1017.7     0.4     SSE   157   1.2      SE   143  10.04    292      -10.8
   11/13/2019 21:40      53.2      52.4       89     49.7      0.00      0.00      69.3     0.28      1017.6     0.7       S   188   1.6       S   188  10.04    289      -11.2
   11/13/2019 21:30      53.3      52.5       89     49.5      0.00      0.00      69.3     0.28      1017.6     0.3     SSE   160   0.8     SSE   147  10.04    284      -12.6
   11/13/2019 21:20      54.0      53.1       88     50.0      0.00      0.00      69.3     0.28      1017.6     0.6       S   173   1.7       S   180  10.04    279      -13.6
   11/13/2019 21:10      54.0      53.5       88     50.2      0.00      0.00      69.3     0.28      1017.5     0.2       S   173   1.2     SSW   203  10.04    275      -16.4
   11/13/2019 21:00      54.0      53.5       87     50.1      0.00      0.00      69.3     0.28      1017.5     0.3     SSE   154   0.8     SSE   155  10.05    268      -19.4
   11/13/2019 20:50      54.7      53.6       87     50.5      0.00      0.00      69.3     0.28      1017.5     0.5       S   185   1.3     SSW   195  10.05    261      -22.9
   11/13/2019 20:40      54.8      53.9       85     50.0      0.00      0.00      69.3     0.28      1017.5     0.2       S   174   0.8       S   180  10.05    256      -28.4
   11/13/2019 20:30      55.8      54.5       84     50.1      0.00      0.00      69.3     0.28      1017.4     0.3       S   169   0.9     SSE   153  10.05    251      -33.3
   11/13/2019 20:20      55.9      55.4       84     50.9      0.00      0.00      69.3     0.28      1017.4     0.4       S   171   1.0     SSE   164  10.05    249      -37.6
   11/13/2019 20:10      55.8      55.4       82     50.3      0.00      0.00      69.3     0.28      1017.2     0.5       S   172   1.5       S   187  10.05    251      -46.0
   11/13/2019 20:00      56.4      55.4       81     50.1      0.00      0.00      69.3     0.28      1017.1     0.4     SSE   151   1.0       S   182  10.05    258      -50.0
   11/13/2019 19:50      56.6      56.0       81     50.4      0.00      0.00      69.2     0.28      1017.0     0.5       S   182   1.1       S   184  10.05    262      -50.8
   11/13/2019 19:40      56.5      55.9       78     49.3      0.00      0.00      69.2     0.28      1016.9     0.7       S   180   1.5     SSW   195  10.06    266      -52.6
   11/13/2019 19:30      57.5      56.2       76     49.2      0.00      0.00      69.2     0.28      1016.9     0.3       S   177   0.8       S   187  10.06    268      -53.9
   11/13/2019 19:20      57.8      57.0       76     49.7      0.00      0.00      69.1     0.28      1016.9     0.5       S   180   1.2       S   175  10.06    268      -54.0
   11/13/2019 19:10      58.2      57.4       73     49.2      0.00      0.00      69.1     0.28      1016.7     0.5     SSE   168   1.3       S   170  10.06    268      -54.0
   11/13/2019 19:00      58.1      57.4       73     49.3      0.00      0.00      69.1     0.28      1016.7     0.2       S   190   1.2      SW   214  10.06    268      -54.4
   11/13/2019 18:50      58.6      57.4       70     48.1      0.00      0.00      69.1     0.28      1016.6     0.3     SSE   162   1.3      SE   143  10.06    267      -56.6
   11/13/2019 18:40      59.7      58.3       67     48.2      0.00      0.00      69.1     0.28      1016.5     1.3       S   188   2.0       S   186  10.07    267      -56.1
   11/13/2019 18:30      60.1      59.2       68     49.1      0.00      0.00      69.0     0.28      1016.4     0.5     SSW   203   1.6     SSW   208  10.07    267      -57.2
   11/13/2019 18:20      60.9      59.7       67     49.1      0.00      0.00      69.0     0.28      1016.3     0.0      SE   141   0.7      SE   144  10.07    267      -58.9
   11/13/2019 18:10      61.5      60.4       67     49.7      0.00      0.00      68.9     0.28      1016.3     0.3     SSE   158   0.9      SE   142  10.07    267      -59.6
   11/13/2019 18:00      61.6      61.1       66     50.0      0.00      0.00      68.9     0.28      1016.3     0.5       S   184   1.2      SW   215  10.08    267      -60.1
   11/13/2019 17:50      61.6      60.8       66     49.6      0.00      0.00      68.9     0.28      1016.2     1.0     SSE   158   2.2     SSW   200  10.08    266      -61.0
   11/13/2019 17:40      62.9      61.5       64     49.9      0.00      0.00      68.8     0.28      1016.1     0.9      SW   214   2.0      SW   217  10.08    266      -60.8
   11/13/2019 17:30      63.7      62.7       63     50.0      0.00      0.00      68.8     0.28      1015.9     0.3       S   174   0.9       S   179  10.08    266      -62.5
   11/13/2019 17:20      65.2      63.4       60     50.0      0.00      0.00      68.7     0.28      1015.9     0.2     SSE   165   0.9       S   172  10.08    266      -63.6
   11/13/2019 17:10      66.3      64.9       58     50.6      0.00      0.00      68.7     0.28      1015.9     0.6       S   179   1.7       S   182  10.09    266      -63.4
   11/13/2019 17:00      67.9      66.2       54     49.9      0.00      0.00      68.6     0.28      1015.8     0.3     SSW   206   1.2     SSW   195  10.09    266      -65.9
   11/13/2019 16:50      69.6      67.7       51     49.6      0.00      0.00      68.5     0.28      1015.7     0.5     ESE   107   2.3       E    82  10.09    265      -64.3
   11/13/2019 16:40      70.6      69.3       49     49.5      0.00      0.00      68.5     0.28      1015.6     0.0     ENE    67   0.8     ENE    65  10.09    265      -60.5
   11/13/2019 16:30      71.3      70.1       47     49.6      0.00      0.00      68.5     0.28      1015.6     0.7       E   101   2.8       E    95  10.10    264      -57.0
   11/13/2019 16:20      72.3      71.1       45     49.2      0.00      0.00      68.4     0.28      1015.5     0.8     ESE   103   2.0     ESE   110  10.10    264      -48.9
   11/13/2019 16:10      73.5      71.8       44     49.0      0.00      0.00      68.4     0.28      1015.4     1.4       E    88   3.7       E    89  10.10    263      -38.7
   11/13/2019 16:00      75.0      73.2       41     48.9      0.00      0.00      68.4     0.28      1015.4     1.4     ENE    73   3.5       E    90  10.10    263      -26.7
   11/13/2019 15:50      75.7      74.7       39     48.5      0.00      0.00      68.3     0.28      1015.3     1.7      NE    46   3.2     NNE    25  10.11    263       19.8
   11/13/2019 15:40      76.5      75.4       38     48.2      0.00      0.00      68.3     0.28      1015.3     1.6     NNE    26   3.8     NNE    31  10.11    263       39.4
   11/13/2019 15:30      76.7      76.2       37     48.3      0.00      0.00      68.2     0.28      1015.2     1.5     NNE    28   2.8      NE    35  10.11    263       52.5
   11/13/2019 15:20      77.9      76.3       37     48.3      0.00      0.00      68.2     0.28      1015.1     1.9     NNE    20   4.6       N   355  10.11    263       61.4
   11/13/2019 15:10      78.8      77.6       36     48.8      0.00      0.00      68.1     0.28      1015.1     1.9       N   353   5.1       N   355  10.11    263      149.6
   11/13/2019 15:00      78.5      77.0       37     48.9      0.00      0.00      68.1     0.28      1015.0     1.3      NE    45   4.1       E    98  10.12    263      193.6
   11/13/2019 14:50      77.6      77.0       38     49.5      0.00      0.00      68.0     0.28      1015.0     1.4      NE    43   4.1     ENE    73  10.12    263      113.9
   11/13/2019 14:40      77.7      76.8       38     49.5      0.00      0.00      68.0     0.28      1014.9     1.5      NE    40   2.9      NE    37  10.12    263       43.6
   11/13/2019 14:30      78.2      77.3       36     49.1      0.00      0.00      68.0     0.28      1014.9     1.5       E    88   3.5      NE    46  10.12    263       46.2
   11/13/2019 14:20      79.8      77.8       36     49.3      0.00      0.00      68.0     0.28      1014.9     2.0       E    86   5.7     ENE    71  10.12    263       86.3
   11/13/2019 14:10      80.0      79.3       34     49.0      0.00      0.00      67.9     0.28      1014.8     2.2     ENE    69   3.9     ENE    63  10.12    263      191.0
   11/13/2019 14:00      79.9      79.3       35     49.8      0.00      0.00      67.9     0.28      1014.8     1.6     ENE    68   3.2      NE    46  10.13    263      157.1
   11/13/2019 13:50      80.5      79.5       36     50.4      0.00      0.00      67.8     0.28      1014.7     2.4     ENE    68   4.7     ESE   117  10.13    262      253.7
   11/13/2019 13:40      80.7      79.7       35     50.2      0.00      0.00      67.8     0.28      1014.7     2.2      NE    47   5.0      NE    42  10.13    262      273.8
   11/13/2019 13:30      81.3      80.3       32     48.4      0.00      0.00      67.8     0.28      1014.7     2.2     NNE    30   4.6      NE    42  10.13    262      208.8
   11/13/2019 13:20      82.1      81.1       28     44.9      0.00      0.00      67.8     0.28      1014.8     1.8     ENE    67   4.2     ENE    58  10.13    262      228.0
   11/13/2019 13:10      81.8      80.8       25     42.5      0.00      0.00      67.8     0.28      1014.9     1.7     ESE   114   4.5       E    99  10.13    262      338.2
   11/13/2019 13:00      81.6      80.7       25     42.2      0.00      0.00      67.8     0.28      1015.0     1.5     ENE    62   4.6       E    81  10.14    262      320.6
   11/13/2019 12:50      81.4      80.7       26     42.5      0.00      0.00      67.8     0.28      1015.1     1.1     ENE    75   3.8     SSE   159  10.14    262      223.6
   11/13/2019 12:40      81.2      80.4       26     42.9      0.00      0.00      67.8     0.28      1015.2     1.6     NNE    33   3.4      NE    55  10.14    262      314.0
   11/13/2019 12:30      80.9      79.2       27     43.4      0.00      0.00      67.8     0.28      1015.3     1.6       E    91   5.1     ESE   122  10.14    262      365.1
   11/13/2019 12:20      80.1      78.9       28     43.3      0.00      0.00      67.7     0.28      1015.4     1.4     ENE    59   3.2     ESE   101  10.14    262      324.5
   11/13/2019 12:10      79.2      78.4       29     43.7      0.00      0.00      67.8     0.28      1015.7     1.4       E    96   3.4      NE    55  10.14    263      289.6
   11/13/2019 12:00      78.5      77.8       29     43.3      0.00      0.00      67.8     0.28      1015.8     1.8     NNE    32   4.4     ENE    77  10.15    263      305.3
   11/13/2019 11:50      78.6      77.6       28     41.9      0.00      0.00      67.8     0.28      1016.0     1.8      NE    40   3.1     ENE    58  10.15    263      297.1
   11/13/2019 11:40      78.6      77.3       28     41.8      0.00      0.00      67.8     0.28      1016.2     1.6      NE    51   3.2     ENE    66  10.15    263      346.8
   11/13/2019 11:30      77.4      76.4       29     42.3      0.00      0.00      67.8     0.28      1016.5     1.5       N   355   4.0       N   350  10.16    263      351.5
   11/13/2019 11:20      76.9      75.6       30     42.3      0.00      0.00      67.8     0.28      1016.6     1.6       E    87   4.0      NE    38  10.16    263      350.3
   11/13/2019 11:10      75.9      74.8       31     43.0      0.00      0.00      67.8     0.28      1016.8     1.7     NNE    16   3.9       N   350  10.16    263      342.4
   11/13/2019 11:00      75.2      74.2       32     43.3      0.00      0.00      67.8     0.28      1017.0     1.6     NNE    17   3.5     NNE    15  10.17    263      347.4
   11/13/2019 10:50      74.4      73.3       33     43.0      0.00      0.00      67.9     0.28      1017.1     1.7     NNE    28   3.5       N     3  10.17    263      333.0
   11/13/2019 10:40      73.5      72.8       34     43.3      0.00      0.00      67.9     0.28      1017.2     1.7     ENE    58   3.8     ESE   103  10.18    264      370.0
   11/13/2019 10:30      73.5      71.1       35     43.0      0.00      0.00      67.9     0.28      1017.4     0.8     ESE   112   2.1     ENE    76  10.18    264      355.4
   11/13/2019 10:20      71.4      70.0       38     44.0      0.00      0.00      67.9     0.28      1017.6     0.5     ESE   112   2.3     ESE   104  10.18    264      233.3
   11/13/2019 10:10      70.0      68.5       40     44.0      0.00      0.00      68.0     0.28      1017.6     0.4      NE    42   1.2       N   355  10.19    264      198.4
   11/13/2019 10:00      69.5      68.4       42     44.5      0.00      0.00      68.0     0.28      1017.6     0.9     NNE    33   1.9      NE    42  10.19    266      144.8
   11/13/2019 09:50      69.4      67.4       44     45.5      0.00      0.00      68.0     0.28      1017.7     0.5     WNW   302   2.3     WSW   250  10.20    265      223.3
   11/13/2019 09:40      67.5      65.4       47     46.0      0.00      0.00      68.1     0.28      1017.7     0.4       W   280   2.2       W   265  10.21    265      272.5
   11/13/2019 09:30      65.6      63.9       52     47.0      0.00      0.00      68.1     0.28      1017.7     0.7       N   356   3.0     NNE    20  10.21    266      255.1
   11/13/2019 09:20      64.0      63.6       56     47.7      0.00      0.00      68.1     0.28      1017.7     0.9     NNE    21   2.6     NNE    26  10.20    266      166.8
   11/13/2019 09:10      64.0      62.6       57     47.7      0.00      0.00      68.1     0.28      1017.7     0.3     NNE    27   1.3       N     5   9.90    266      126.7
   11/13/2019 09:00      63.3      62.6       58     48.0      0.00      0.00      68.2     0.28      1017.7     0.4     NNE    26   1.5      NE    54   9.90    267      108.6
   11/13/2019 08:50      63.1      62.1       59     48.0      0.00      0.00      68.2     0.28      1017.8     0.1      NE    38   0.7     NNE    27   9.90    267       94.2
   11/13/2019 08:40      62.4      61.3       61     47.9      0.00      0.00      68.3     0.28      1017.7     0.2      NE    43   0.9     NNE    20   9.90    267      126.2
   11/13/2019 08:30      61.6      60.8       61     47.8      0.00      0.00      68.3     0.28      1017.6     0.4      NE    40   1.0       N     5   9.90    267      125.5
   11/13/2019 08:20      61.1      60.0       61     47.2      0.00      0.00      68.3     0.28      1017.6     0.5     NNE    30   2.0     NNE    26   9.90    267      146.5
   11/13/2019 08:10      60.1      58.6       63     47.0      0.00      0.00      68.4     0.28      1017.6     0.3       N     5   2.1     ENE    74   9.90    267      189.0
   11/13/2019 08:00      58.6      55.9       69     46.8      0.00      0.00      68.4     0.28      1017.5     0.5     NNE    33   1.5      NE    40   9.90    269      191.7
   11/13/2019 07:50      55.9      54.5       74     46.8      0.00      0.00      68.4     0.28      1017.4     0.5     NNE    21   1.3     NNE    17   9.90    284      155.1
   11/13/2019 07:40      54.7      52.1       81     47.7      0.00      0.00      68.5     0.28      1017.3     0.0     ENE    59   0.3      NE    54   9.90    288      127.8
   11/13/2019 07:30      52.2      50.7       86     47.2      0.00      0.00      68.5     0.28      1017.1     0.0       N     0   0.0       E    92   9.90    309       90.6
   11/13/2019 07:20      51.1      49.6       89     47.1      0.00      0.00      68.5     0.28      1017.1     0.0       N     0   0.0     SSE   166   9.90    326       55.3
   11/13/2019 07:10      49.6      47.8       91     46.1      0.00      0.00      68.6     0.28      1017.0     0.0       N     0   0.0       S   183   9.90    335       47.0
   11/13/2019 07:00      48.0      47.0       92     45.0      0.00      0.00      68.6     0.28      1016.9     0.0       N     0   0.0       S   173   9.90    337       36.1
   11/13/2019 06:50      47.1      46.6       92     44.5      0.00      0.00      68.6     0.28      1016.8     0.0       N     0   0.0       S   171   9.90    338       21.6
   11/13/2019 06:40      46.7      46.0       91     43.8      0.00      0.00      68.7     0.28      1016.7     0.3       S   185   0.9     SSW   199   9.90    337        8.5
   11/13/2019 06:30      46.7      46.0       91     44.0      0.00      0.00      68.7     0.28      1016.6     0.0       S   170   0.5     SSE   155   9.90    334        2.8
   11/13/2019 06:20      46.4      45.7       91     43.4      0.00      0.00      68.7     0.28      1016.6     0.3       S   171   0.7       S   179   9.90    331       -2.5
   11/13/2019 06:10      46.5      46.1       91     43.8      0.00      0.00      68.8     0.28      1016.6     0.0     SSE   163   0.5     SSE   161   9.90    327       -6.3
   11/13/2019 06:00      46.3      45.5       91     43.2      0.00      0.00      68.8     0.28      1016.5     0.2     SSE   154   0.6      SE   140   9.90    324       -7.1
   11/13/2019 05:50      46.5      45.6       90     43.3      0.00      0.00      68.8     0.28      1016.4     0.0       E    91   0.4       E    91   9.90    324       -7.7
   11/13/2019 05:40      46.8      46.4       90     43.8      0.00      0.00      68.9     0.28      1016.3     0.1     SSE   156   0.7     SSE   151   9.90    319       -7.3
   11/13/2019 05:30      47.2      46.5       90     44.1      0.00      0.00      68.9     0.28      1016.3     0.0       N     0   0.0     SSE   167   9.90    314       -7.6
   11/13/2019 05:20      47.0      46.3       90     44.0      0.00      0.00      68.9     0.28      1016.4     0.0       N     0   0.0     SSE   154   9.90    309       -7.7
   11/13/2019 05:10      46.6      45.9       90     43.3      0.00      0.00      69.0     0.28      1016.4     0.0       N     0   0.0     SSE   154   9.91    304       -8.2
   11/13/2019 05:00      47.0      45.9       89     43.1      0.00      0.00      69.0     0.28      1016.4     0.0       N     0   0.0     SSE   154   9.91    302       -9.0
   11/13/2019 04:50      47.2      46.7       89     43.9      0.00      0.00      69.0     0.28      1016.5     0.0     SSE   156   0.4     SSE   156   9.91    297       -9.2
   11/13/2019 04:40      47.1      46.8       89     43.7      0.00      0.00      69.1     0.28      1016.5     0.0       S   173   0.7       S   173   9.91    293       -9.4
   11/13/2019 04:30      47.6      46.8       88     43.8      0.00      0.00      69.1     0.28      1016.5     0.0       N     0   0.0       S   177   9.91    288      -10.3
   11/13/2019 04:20      47.5      47.0       88     43.9      0.00      0.00      69.1     0.28      1016.5     0.0       S   174   0.4       S   174   9.91    284      -11.2
   11/13/2019 04:10      47.4      47.0       87     43.5      0.00      0.00      69.2     0.28      1016.5     0.0       S   170   0.7       S   170   9.91    279      -12.6
   11/13/2019 04:00      47.4      47.1       87     43.6      0.00      0.00      69.2     0.28      1016.5     0.0       S   185   0.2       S   185   9.91    274      -13.4
   11/13/2019 03:50      47.6      46.9       86     43.4      0.00      0.00      69.2     0.28      1016.5     0.3       S   169   1.0     SSW   201   9.91    269      -14.8
   11/13/2019 03:40      47.7      47.4       86     43.7      0.00      0.00      69.3     0.28      1016.5     0.2     SSE   166   0.9     SSE   151   9.91    268      -16.2
   11/13/2019 03:30      47.8      47.3       86     43.6      0.00      0.00      69.3     0.28      1016.5     0.2     SSW   201   0.8       S   190   9.91    265      -18.6
   11/13/2019 03:20      48.1      47.5       86     43.7      0.00      0.00      69.3     0.28      1016.5     0.0       N     0   0.0     SSE   151   9.91    264      -21.1
   11/13/2019 03:10      48.1      47.6       84     43.2      0.00      0.00      69.4     0.28      1016.5     0.0       N     0   0.0     SSE   151   9.91    258      -25.5
   11/13/2019 03:00      48.7      47.8       83     43.0      0.00      0.00      69.4     0.28      1016.6     0.0       N     0   0.0     SSE   154   9.91    256      -29.0
   11/13/2019 02:50      49.0      48.3       83     43.5      0.00      0.00      69.4     0.28      1016.6     0.1     SSE   157   0.8     SSE   158   9.91    258      -31.1
   11/13/2019 02:40      49.0      48.3       81     43.0      0.00      0.00      69.4     0.28      1016.6     0.1     SSE   154   0.7     SSE   158   9.91    264      -34.0
   11/13/2019 02:30      48.8      48.0       81     42.9      0.00      0.00      69.4     0.28      1016.7     0.2     SSE   168   0.7       S   191   9.91    267      -35.7
   11/13/2019 02:20      48.7      48.1       82     43.2      0.00      0.00      69.5     0.28      1016.7     0.3       S   183   1.1     SSW   195   9.91    267      -34.5
   11/13/2019 02:10      49.3      48.5       83     43.9      0.00      0.00      69.5     0.28      1016.8     0.4     SSE   153   1.0     SSE   148   9.91    261      -35.1
   11/13/2019 02:00      49.6      48.9       83     44.2      0.00      0.00      69.5     0.28      1017.0     0.5     SSE   154   1.4      SE   140   9.91    259      -37.4
   11/13/2019 01:50      49.6      48.9       81     43.7      0.00      0.00      69.5     0.28      1017.1     0.4     SSE   158   1.5      SE   142   9.91    266      -41.8
   11/13/2019 01:40      50.1      49.3       81     44.1      0.00      0.00      69.6     0.28      1017.1     0.2     SSE   158   1.3      SE   132   9.92    270      -41.5
   11/13/2019 01:30      50.2      49.7       81     44.2      0.00      0.00      69.6     0.28      1017.2     0.9      SE   145   1.8      SE   138   9.92    269      -42.1
   11/13/2019 01:20      50.4      49.7       81     44.3      0.00      0.00      69.6     0.28      1017.2     0.0       S   173   0.5     SSE   167   9.92    266      -42.6
   11/13/2019 01:10      50.7      49.9       81     44.4      0.00      0.00      69.6     0.28      1017.2     0.3     SSE   159   0.9     SSE   168   9.92    265      -44.1
   11/13/2019 01:00      50.7      50.1       80     44.5      0.00      0.00      69.7     0.28      1017.3     0.3       S   169   0.9     SSE   153   9.92    268      -44.6
   11/13/2019 00:50      50.7      50.1       80     44.4      0.00      0.00      69.7     0.28      1017.3     0.2     SSE   148   0.7      SE   146   9.92    266      -45.5
   11/13/2019 00:40      50.5      50.0       79     43.9      0.00      0.00      69.7     0.28      1017.3     0.2       S   178   1.0       S   182   9.92    268      -46.7
   11/13/2019 00:30      51.8      50.4       78     44.5      0.00      0.00      69.7     0.28      1017.3     0.5     SSE   151   1.0     SSE   148   9.92    268      -46.7
   11/13/2019 00:20      51.8      51.2       78     44.9      0.00      0.00      69.7     0.28      1017.3     0.0     SSE   153   0.5     SSE   153   9.92    269      -46.6
   11/13/2019 00:10      51.6      51.1       78     44.5      0.00      0.00      69.7     0.28      1017.3     0.3     SSE   158   1.0     SSE   151   9.92    267      -47.3
   11/13/2019 00:00      51.8      51.3       78     44.8      0.00      0.00      69.7     0.28      1017.3     0.2       S   179   0.9       S   182   9.92    268      -47.7
   11/12/2019 23:50      52.1      51.2       77     44.5      0.00      0.00      69.7     0.28      1017.3     0.2     SSE   158   0.9     SSE   167   9.92    268      -48.4
   11/12/2019 23:40      52.9      51.8       76     44.9      0.00      0.00      69.7     0.28      1017.3     0.2     SSE   154   0.8     SSE   153   9.92    268      -48.3
   11/12/2019 23:30      52.9      52.2       75     45.0      0.00      0.00      69.7     0.28      1017.2     0.3     SSE   160   1.0     SSE   164   9.93    268      -48.6
   11/12/2019 23:20      52.8      52.1       75     44.8      0.00      0.00      69.8     0.28      1017.2     0.6     SSE   156   1.2     SSE   161   9.93    268      -49.0
   11/12/2019 23:10      53.3      52.2       73     44.5      0.00      0.00      69.8     0.28      1017.2     0.7     SSE   154   1.4     SSE   162   9.93    268      -49.5
   11/12/2019 23:00      53.6      53.0       72     44.4      0.00      0.00      69.8     0.28      1017.3     0.9     SSE   156   1.2     SSE   156   9.93    268      -49.0
   11/12/2019 22:50      54.0      53.2       71     44.4      0.00      0.00      69.8     0.28      1017.3     0.5       S   177   1.1     SSW   206   9.93    268      -49.0
   11/12/2019 22:40      54.1      53.6       71     44.6      0.00      0.00      69.8     0.28      1017.3     0.2     SSE   151   0.9     SSE   149   9.93    268      -49.6
   11/12/2019 22:30      53.9      53.4       71     44.5      0.00      0.00      69.8     0.28      1017.3     0.3     SSE   154   0.8     SSE   158   9.93    268      -50.4
   11/12/2019 22:20      54.5      53.6       69     44.0      0.00      0.00      69.8     0.28      1017.3     0.4     SSE   159   1.1     SSE   168   9.93    268      -50.3
   11/12/2019 22:10      54.9      54.1       66     43.7      0.00      0.00      69.8     0.28      1017.4     0.3     SSE   153   0.8     SSE   152   9.93    268      -50.6
   11/12/2019 22:00      54.9      54.5       66     43.6      0.00      0.00      69.8     0.28      1017.3     0.0     SSE   158   0.3     SSE   158   9.94    267      -51.3
   11/12/2019 21:50      55.3      54.7       68     44.4      0.00      0.00      69.8     0.28      1017.4     0.0     SSE   158   0.7     SSE   158   9.94    267      -51.9
   11/12/2019 21:40      55.3      54.6       68     44.6      0.00      0.00      69.8     0.28      1017.4     0.8     SSE   152   2.1      SE   144   9.94    267      -52.9
   11/12/2019 21:30      56.0      54.7       67     44.6      0.00      0.00      69.8     0.28      1017.4     0.6     SSE   165   1.1       S   169   9.94    267      -52.9
   11/12/2019 21:20      56.5      55.5       66     44.9      0.00      0.00      69.8     0.28      1017.4     0.9     SSE   164   1.7     SSE   149   9.94    267      -53.7
   11/12/2019 21:10      56.8      56.2       66     45.1      0.00      0.00      69.8     0.28      1017.4     0.8     SSE   153   1.7      SE   138   9.94    267      -54.0
   11/12/2019 21:00      56.9      56.4       66     45.2      0.00      0.00      69.8     0.28      1017.4     0.9     SSE   154   1.6      SE   142   9.94    267      -53.8
   11/12/2019 20:50      57.1      56.5       65     45.1      0.00      0.00      69.7     0.28      1017.3     0.5     SSE   156   1.3     SSE   153   9.94    267      -53.3
   11/12/2019 20:40      57.3      56.6       65     45.4      0.00      0.00      69.7     0.28      1017.2     0.7     SSE   162   1.3       S   176   9.95    267      -53.8
   11/12/2019 20:30      58.2      57.0       65     45.8      0.00      0.00      69.7     0.28      1017.1     0.6     SSE   165   1.1     SSE   156   9.95    266      -54.1
   11/12/2019 20:20      58.8      57.8       65     46.4      0.00      0.00      69.7     0.28      1017.1     0.2       S   172   0.8       S   172   9.95    267      -53.8
   11/12/2019 20:10      59.3      58.4       65     47.1      0.00      0.00      69.7     0.28      1017.0     0.4     SSE   165   0.9     SSE   147   9.95    266      -54.4
   11/12/2019 20:00      59.8      59.1       64     47.4      0.00      0.00      69.7     0.28      1017.0     0.6     SSE   153   1.2      SE   136   9.95    266      -55.5
   11/12/2019 19:50      60.3      59.6       63     47.4      0.00      0.00      69.6     0.28      1017.0     0.5     SSE   156   1.3      SE   146   9.95    266      -56.8
   11/12/2019 19:40      61.3      59.9       62     47.5      0.00      0.00      69.6     0.28      1017.0     0.6     SSE   164   1.8      SE   136   9.95    266      -56.9
   11/12/2019 19:30      61.7      60.7       61     47.6      0.00      0.00      69.6     0.28      1017.0     0.9       S   180   2.2     SSW   205   9.96    266      -57.6
   11/12/2019 19:20      62.1      61.3       60     47.4      0.00      0.00      69.5     0.28      1016.9     0.3     SSE   151   1.2     SSE   159   9.96    266      -58.6
   11/12/2019 19:10      62.8      61.8       57     46.9      0.00      0.00      69.5     0.28      1017.0     0.8       S   176   1.9       S   175   9.96    266      -57.8
   11/12/2019 19:00      62.6      61.7       59     47.7      0.00      0.00      69.5     0.28      1016.9     0.8       S   189   1.8     SSW   202   9.96    266      -58.8
   11/12/2019 18:50      63.1      62.1       58     47.7      0.00      0.00      69.4     0.28      1016.8     0.0     SSE   149   0.7       S   176   9.96    266      -60.6
   11/12/2019 18:40      63.4      62.6       57     47.5      0.00      0.00      69.4     0.28      1016.8     0.3     ESE   121   1.3       S   180   9.97    266      -62.0
   11/12/2019 18:30      64.5      63.0       55     47.4      0.00      0.00      69.3     0.28      1016.8     1.1       S   180   1.8       S   183   9.97    265      -60.6
   11/12/2019 18:20      65.5      64.3       52     46.7      0.00      0.00      69.3     0.28      1016.7     0.6     SSE   161   1.8       S   181   9.97    264      -61.8
   11/12/2019 18:10      67.5      65.2       48     45.8      0.00      0.00      69.2     0.28      1016.7     0.7     SSE   156   1.7      SE   144   9.97    264      -63.3
   11/12/2019 18:00      68.7      67.5       42     44.0      0.00      0.00      69.2     0.28      1016.6     1.0     SSW   207   2.2      SW   216   9.97    264      -62.8
   11/12/2019 17:50      71.5      68.4       38     43.8      0.00      0.00      69.1     0.28      1016.5     0.8     SSW   201   2.1     SSW   198   9.98    264      -65.7
   11/12/2019 17:40      72.5      71.2       38     44.8      0.00      0.00      69.1     0.28      1016.4     1.7       W   261   3.8      SW   229   9.98    264      -68.8
   11/12/2019 17:30      73.1      72.2       38     45.6      0.00      0.00      69.0     0.28      1016.3     1.7       W   272   3.7      NW   318   9.98    263      -71.1
   11/12/2019 17:20      74.0      72.9       37     45.7      0.00      0.00      69.0     0.28      1016.2     1.1     WNW   287   3.2     WNW   284   9.98    263      -72.0
   11/12/2019 17:10      74.8      73.7       37     46.3      0.00      0.00      69.0     0.28      1016.1     1.9       W   266   4.2     WSW   256   9.99    263      -72.8
   11/12/2019 17:00      76.5      74.5       35     46.0      0.00      0.00      68.9     0.28      1016.0     2.3       W   260   3.7       W   265   9.99    263      -73.4
   11/12/2019 16:50      77.5      76.1       33     45.3      0.00      0.00      68.8     0.28      1015.9     1.6       W   274   4.0     WSW   241   9.99    262      -73.2
   11/12/2019 16:40      78.6      77.2       31     44.6      0.00      0.00      68.8     0.28      1015.8     2.6       W   273   5.3     WNW   296   9.99    262      -70.8
   11/12/2019 16:30      79.7      78.3       29     44.4      0.00      0.00      68.8     0.28      1015.6     1.8     WNW   301   3.8       W   279  10.00    262      -67.2
   11/12/2019 16:20      81.1      79.3       28     44.2      0.00      0.00      68.7     0.28      1015.5     2.0     WNW   302   4.5     WSW   257  10.00    262      -62.1
   11/12/2019 16:10      83.8      80.8       26     43.3      0.00      0.00      68.6     0.28      1015.5     2.7       W   276   5.0     WSW   250  10.00    261      -37.5
   11/12/2019 16:00      84.9      83.6       15     31.6      0.00      0.00      68.6     0.28      1015.4     2.6     WSW   251   5.7     WSW   238  10.01    261       -7.1
   11/12/2019 15:50      85.6      84.5       14     30.5      0.00      0.00      68.5     0.28      1015.4     2.6     SSW   213   4.1      SW   225  10.01    261        7.1
   11/12/2019 15:40      86.0      85.1       13     29.5      0.00      0.00      68.5     0.28      1015.3     2.2     SSW   193   4.2      SE   138  10.02    261       27.1
   11/12/2019 15:30      86.6      85.5       13     28.7      0.00      0.00      68.4     0.28      1015.3     2.7       S   175   5.0     SSW   205  10.02    261       47.9
   11/12/2019 15:20      86.6      85.8       12     27.2      0.00      0.00      68.4     0.28      1015.3     3.5       S   177   6.4       S   185  10.02    261       71.8
   11/12/2019 15:10      87.0      86.3       12     27.0      0.00      0.00      68.3     0.28      1015.3     3.8       S   181   6.1     SSE   152  10.03    261       94.4
   11/12/2019 15:00      87.7      86.6       11     25.5      0.00      0.00      68.3     0.28      1015.4     3.8       S   185   6.3       S   185  10.03    261      116.7
   11/12/2019 14:50      88.7      87.2       10     25.4      0.00      0.00      68.2     0.28      1015.3     3.0       S   190   6.0      SE   144  10.03    261      139.5
   11/12/2019 14:40      88.4      87.5       10     24.4      0.00      0.00      68.2     0.28      1015.4     3.1     SSE   163   6.1     SSE   165  10.04    261      164.0
   11/12/2019 14:30      88.3      87.5       10     24.0      0.00      0.00      68.2     0.28      1015.4     3.4     SSW   199   6.8      SW   215  10.04    260      187.1
   11/12/2019 14:20      88.5      87.5       10     24.4      0.00      0.00      68.1     0.28      1015.5     4.0     SSW   209   7.2     SSW   202  10.05    260      195.0
   11/12/2019 14:10      89.3      88.3       11     28.2      0.00      0.00      68.1     0.28      1015.6     3.0       S   182   6.0     SSW   198  10.05    260      208.1
   11/12/2019 14:00      89.3      87.7       11     27.9      0.00      0.00      68.1     0.28      1015.6     1.2      SE   131   4.8       E    96  10.05    260      229.0
   11/12/2019 13:50      89.1      87.8       10     25.2      0.00      0.00      68.1     0.28      1015.7     3.7      SW   225   9.0     WSW   257  10.06    260      247.4
   11/12/2019 13:40      89.6      88.5       12     30.1      0.00      0.00      68.0     0.28      1015.8     1.6       S   180   7.4     WSW   255  10.06    260      257.4
   11/12/2019 13:30      89.8      88.0       14     33.4      0.00      0.00      68.0     0.28      1015.9     1.1       N     6   3.7      SE   130  10.06    261      273.6
   11/12/2019 13:20      89.1      88.0       14     32.9      0.00      0.00      68.0     0.28      1016.0     1.2     ENE    76   3.7     ESE   115  10.07    261      285.1
   11/12/2019 13:10      88.5      87.7       14     32.4      0.00      0.00      67.9     0.28      1016.2     1.2     SSE   165   3.0     SSW   209  10.07    261      301.2
   11/12/2019 13:00      87.7      86.5       15     33.8      0.00      0.00      68.0     0.28      1016.4     1.1       W   271   2.7      SW   232  10.07    261      314.5
   11/12/2019 12:50      86.9      85.6       15     33.8      0.00      0.00      68.0     0.28      1016.6     1.4       S   185   3.6       S   179  10.08    261      324.7
   11/12/2019 12:40      86.1      85.2       16     33.8      0.00      0.00      68.0     0.28      1016.8     1.7      NE    36   3.5       E    82  10.08    261      329.2
   11/12/2019 12:30      87.2      85.6       15     33.6      0.00      0.00      68.0     0.28      1017.0     1.3       S   186   3.4     NNW   327  10.08    261      335.4
   11/12/2019 12:20      87.0      85.9       15     32.8      0.00      0.00      68.0     0.28      1017.2     0.9      NW   318   2.3     WNW   286  10.09    261      335.6
   11/12/2019 12:10      86.1      84.0       16     33.9      0.00      0.00      67.9     0.28      1017.4     0.5       N    10   1.4      SE   134  10.09    261      351.8
   11/12/2019 12:00      84.5      83.0       18     36.5      0.00      0.00      68.0     0.28      1017.5     1.2      NE    53   2.7     ENE    72  10.09    261      356.2
   11/12/2019 11:50      83.3      81.8       21     38.4      0.00      0.00      68.0     0.28      1017.7     1.2       N     9   3.7     NNE    23  10.09    262      355.4
   11/12/2019 11:40      82.5      80.7       24     41.6      0.00      0.00      68.0     0.28      1017.9     1.2       N     6   3.0     NNE    24  10.10    263      357.5
   11/12/2019 11:30      81.5      80.5       25     42.3      0.00      0.00      68.0     0.28      1018.0     1.5     NNE    19   3.5     NNW   339  10.10    263      356.9
   11/12/2019 11:20      81.1      80.0       26     42.9      0.00      0.00      68.0     0.28      1018.2     1.2     NNE    12   2.5      NE    46  10.10    263      355.6
   11/12/2019 11:10      80.6      79.5       25     41.3      0.00      0.00      68.0     0.28      1018.3     1.0       E    97   2.8     SSE   151  10.11    263      354.5
   11/12/2019 11:00      80.3      79.0       26     41.9      0.00      0.00      68.1     0.28      1018.6     0.7      NE    54   2.1     NNW   330  10.11    263      350.1
   11/12/2019 10:50      79.6      77.7       28     43.0      0.00      0.00      68.1     0.28      1018.8     0.7     ESE   107   2.9      SE   133  10.12    263      345.8
   11/12/2019 10:40      77.9      77.3       31     44.8      0.00      0.00      68.0     0.28      1018.9     1.0      NE    47   2.6       E    83  10.13    263      339.1
   11/12/2019 10:30      77.4      75.3       33     44.8      0.00      0.00      68.1     0.28      1019.1     0.7       W   268   2.0     WNW   291  10.13    263      331.1
   11/12/2019 10:20      75.5      74.2       37     46.7      0.00      0.00      68.2     0.28      1019.2     0.8     WNW   299   2.1     WNW   282  10.14    264      322.9
   11/12/2019 10:10      74.5      72.3       38     46.1      0.00      0.00      68.2     0.28      1019.4     0.7     WNW   294   1.8      NW   315  10.14    264      315.0
   11/12/2019 10:00      72.7      71.4       42     47.9      0.00      0.00      68.2     0.28      1019.4     0.7       N   352   2.1       N   353  10.15    265      307.4
   11/12/2019 09:50      71.4      70.8       46     49.1      0.00      0.00      68.3     0.28      1019.5     0.7       N     9   1.5      NE    43  10.15    266      297.2
   11/12/2019 09:40      71.7      70.5       46     49.4      0.00      0.00      68.3     0.28      1019.5     0.8     ENE    58   2.2     ENE    60  10.16    266      289.7
   11/12/2019 09:30      70.5      67.6       51     50.3      0.00      0.00      68.4     0.28      1019.6     0.1       W   265   1.6     NNW   338  10.17    266      275.7
   11/12/2019 09:20      67.9      66.6       57     51.5      0.00      0.00      68.4     0.28      1019.7     0.3      NW   308   1.1     NNW   336  10.18    266      256.7
   11/12/2019 09:10      66.9      66.1       60     52.1      0.00      0.00      68.4     0.28      1019.7     0.4     NNW   337   1.7     NNW   333  10.20    266      238.1
   11/12/2019 09:00      66.0      64.7       63     52.5      0.00      0.00      68.5     0.28      1019.8     0.4      NW   317   1.9      NW   318  10.23    267      253.8
   11/12/2019 08:50      65.0      63.8       65     52.5      0.00      0.00      68.5     0.28      1019.8     0.4     NNW   340   1.4       N     0  10.27    268      271.1
   11/12/2019 08:40      63.9      63.0       66     51.8      0.00      0.00      68.5     0.28      1019.8     0.6     ENE    69   1.3       E   101   9.34    270      252.8
   11/12/2019 08:30      63.3      61.4       68     51.8      0.00      0.00      68.6     0.28      1019.8     0.1     ENE    75   1.4       E    92   9.34    277      239.3
   11/12/2019 08:20      61.6      58.4       78     53.2      0.00      0.00      68.6     0.28      1019.7     0.0       N     0   0.0      NW   306   9.34    288      221.2
   11/12/2019 08:10      58.6      56.8       84     52.7      0.00      0.00      68.7     0.28      1019.6     0.1      SE   131   0.8      SE   140   9.34    299      196.6
   11/12/2019 08:00      57.0      55.5       89     53.0      0.00      0.00      68.7     0.28      1019.6     0.0      SE   134   0.7      SE   130   9.34    322      155.2
   11/12/2019 07:50      55.9      53.9       92     52.7      0.00      0.00      68.7     0.28      1019.5     0.0       N     0   0.0       E    85   9.34    354      113.5
   11/12/2019 07:40      54.1      53.1       93     51.4      0.00      0.00      68.7     0.28      1019.3     0.0       N     0   0.0     ESE   105   9.34    371       74.6
   11/12/2019 07:30      53.3      51.0       94     50.2      0.00      0.00      68.8     0.28      1019.2     0.0       N     0   0.0      SE   146   9.34    373       52.5
   11/12/2019 07:20      51.0      49.1       94     48.5      0.00      0.00      68.8     0.28      1019.2     0.0       N     0   0.0      SE   136   9.34    378       23.9
   11/12/2019 07:10      49.3      48.2       94     47.3      0.00      0.00      68.9     0.28      1019.0     0.0      SE   138   0.7      SE   138   9.34    391       20.7
   11/12/2019 07:00      48.5      47.5       94     46.3      0.00      0.00      68.9     0.28      1018.9     0.4     SSE   148   0.8      SE   137   9.34    391       15.0
   11/12/2019 06:50      48.0      47.6       94     46.2      0.00      0.00      68.9     0.28      1018.8     0.0       N     0   0.0      NW   322   9.34    391        7.8
   11/12/2019 06:40      48.2      47.6       94     46.2      0.00      0.00      69.0     0.28      1018.6     0.2       W   262   1.3     WSW   251   9.34    389        2.1
   11/12/2019 06:30      48.1      47.3       94     46.0      0.00      0.00      69.0     0.28      1018.4     0.0      SW   216   0.9      SW   216   9.34    386       -2.8
   11/12/2019 06:20      47.8      47.3       94     45.9      0.00      0.00      69.0     0.28      1018.5     0.2     SSE   162   0.8     SSE   165   9.34    386       -5.5
   11/12/2019 06:10      48.0      47.2       94     45.8      0.00      0.00      69.1     0.28      1018.5     0.2     SSE   162   0.9      SE   139   9.34    384       -6.6
   11/12/2019 06:00      48.5      47.8       94     46.3      0.00      0.00      69.1     0.28      1018.4     0.2     SSE   148   1.1      SE   139   9.34    382       -7.1
   11/12/2019 05:50      48.4      47.5       94     46.5      0.00      0.00      69.1     0.28      1018.2     0.0     SSE   149   0.5      SE   138   9.34    378       -7.1
   11/12/2019 05:40      48.1      47.4       93     45.7      0.00      0.00      69.2     0.28      1018.2     0.4     SSE   168   1.0       S   178   9.34    391       -7.2
   11/12/2019 05:30      48.6      47.8       94     46.5      0.00      0.00      69.2     0.28      1018.1     0.0     SSE   156   0.6     SSE   156   9.34    393       -6.8
   11/12/2019 05:20      48.6      48.1       94     46.5      0.00      0.00      69.2     0.28      1018.0     0.0       N     0   0.0      SE   132   9.35    392       -7.1
   11/12/2019 05:10      49.0      48.3       93     46.6      0.00      0.00      69.3     0.28      1018.0     0.0       N     0   0.0      SE   132   9.35    391       -7.1
   11/12/2019 05:00      49.1      48.6       93     47.0      0.00      0.00      69.3     0.28      1018.0     0.0       N     0   0.0      SE   131   9.35    403       -7.4
   11/12/2019 04:50      49.1      48.5       93     46.9      0.00      0.00      69.3     0.28      1018.0     0.0       N     0   0.0      SE   131   9.35    405       -7.3
   11/12/2019 04:40      49.1      48.6       93     46.9      0.00      0.00      69.3     0.28      1018.1     0.0       N     0   0.0      SE   131   9.35    403       -7.3
   11/12/2019 04:30      49.6      48.8       93     47.2      0.00      0.00      69.4     0.28      1018.1     0.1      SE   132   0.8      SE   131   9.34    403       -7.4
   11/12/2019 04:20      49.7      49.2       93     47.4      0.00      0.00      69.4     0.28      1018.1     0.0       N     0   0.0      SE   136   9.34    403       -7.5
   11/12/2019 04:10      50.4      49.4       93     48.0      0.00      0.00      69.4     0.28      1018.0     0.0      SE   130   0.5      SE   127   9.34    402       -7.5
   11/12/2019 04:00      50.5      49.7       93     48.1      0.00      0.00      69.4     0.28      1018.1     0.4       S   179   1.1      SW   229   9.35    400       -7.1
   11/12/2019 03:50      50.4      49.6       93     47.9      0.00      0.00      69.5     0.28      1018.2     0.5     SSE   157   0.9     SSE   165   9.35    396       -7.3
   11/12/2019 03:40      50.7      49.9       93     48.2      0.00      0.00      69.5     0.28      1018.1     0.2     SSW   204   0.9     SSE   152   9.35    394       -7.8
   11/12/2019 03:30      50.5      48.4       93     47.9      0.00      0.00      69.5     0.28      1018.2     0.2     SSE   168   1.3     SSE   166   9.35    391       -8.4
   11/12/2019 03:20      50.0      48.6       92     47.0      0.00      0.00      69.6     0.28      1018.2     0.6     SSE   165   1.8      SE   142   9.35    391       -8.4
   11/12/2019 03:10      50.0      49.7       92     47.7      0.00      0.00      69.6     0.28      1018.4     0.5     SSE   165   1.5      SE   133   9.35    393       -7.8
   11/12/2019 03:00      50.0      49.2       92     47.5      0.00      0.00      69.6     0.28      1018.4     0.3       S   187   0.8     SSW   202   9.35    393       -8.1
   11/12/2019 02:50      49.8      49.3       92     47.0      0.00      0.00      69.6     0.28      1018.4     0.2      SE   128   0.9      SE   137   9.35    393       -9.0
   11/12/2019 02:40      50.3      49.6       92     47.5      0.00      0.00      69.7     0.28      1018.2     0.2      SE   138   1.1      SE   139   9.35    390       -9.2
   11/12/2019 02:30      50.8      50.0       92     48.1      0.00      0.00      69.7     0.28      1018.2     0.3     WSW   239   1.4     WSW   253   9.35    384       -9.0
   11/12/2019 02:20      50.6      50.0       92     48.0      0.00      0.00      69.7     0.28      1018.4     0.0     SSE   162   0.9     SSE   163   9.35    380       -9.1
   11/12/2019 02:10      50.8      49.9       91     48.0      0.00      0.00      69.7     0.28      1018.5     0.2     SSE   155   1.0     SSE   163   9.35    375       -9.4
   11/12/2019 02:00      50.6      50.1       91     47.8      0.00      0.00      69.7     0.28      1018.6     0.0      SE   145   0.5      SE   145   9.35    370       -9.9
   11/12/2019 01:50      50.8      50.4       91     48.2      0.00      0.00      69.8     0.28      1018.6     0.4     SSW   193   1.1     SSE   147   9.35    363       -9.4
   11/12/2019 01:40      51.1      50.3       91     48.2      0.00      0.00      69.8     0.28      1018.6     0.0     SSE   166   0.6     SSE   164   9.35    358       -9.9
   11/12/2019 01:30      51.6      50.8       91     48.5      0.00      0.00      69.8     0.28      1018.6     0.0     SSE   155   0.8     SSE   154   9.35    363       -9.8
   11/12/2019 01:20      51.9      51.2       91     48.7      0.00      0.00      69.8     0.28      1018.6     0.1     SSE   166   0.7     SSE   166   9.35    358      -10.4
   11/12/2019 01:10      51.9      51.4       90     48.8      0.00      0.00      69.9     0.28      1018.6     0.0       N     0   0.0     SSW   201   9.35    348      -10.8
   11/12/2019 01:00      51.9      51.1       90     48.8      0.00      0.00      69.9     0.28      1018.6     0.2     SSW   202   1.4     SSW   203   9.35    342      -10.8
   11/12/2019 00:50      51.9      51.2       90     48.6      0.00      0.00      69.9     0.28      1018.6     0.0       S   182   1.3     SSW   202   9.35    334      -11.4
   11/12/2019 00:40      52.2      51.5       89     48.6      0.00      0.00      69.9     0.28      1018.6     0.0     SSE   149   0.5     SSE   149   9.35    330      -11.8
   11/12/2019 00:30      52.6      52.0       89     49.3      0.00      0.00      69.9     0.28      1018.5     0.0     SSE   153   0.7     SSE   156   9.35    323      -12.2
   11/12/2019 00:20      52.5      52.1       89     49.2      0.00      0.00      69.9     0.28      1018.5     0.5     SSE   147   1.6      SE   136   9.36    318      -12.9
   11/12/2019 00:10      52.7      51.9       89     49.0      0.00      0.00      70.0     0.28      1018.5     0.7     SSE   149   1.5     SSE   147   9.36    312      -13.3
   11/12/2019 00:00      53.0      52.2       89     49.4      0.00      0.00      70.0     0.28      1018.5     0.4     SSE   165   1.2     SSE   161   9.36    305      -13.6
   11/11/2019 23:50      53.0      52.5       89     49.5      0.00      0.00      70.0     0.28      1018.5     0.4     SSE   148   1.2      SE   142   9.36    298      -14.9
   11/11/2019 23:40      53.7      52.6       88     49.6      0.00      0.00      70.0     0.28      1018.5     0.4     SSE   161   1.0      SE   132   9.36    291      -15.1
   11/11/2019 23:30      53.9      53.3       88     50.1      0.00      0.00      70.0     0.28      1018.5     0.2     SSE   166   1.3      SE   146   9.36    282      -16.1
   11/11/2019 23:20      54.0      53.3       87     49.9      0.00      0.00      70.0     0.28      1018.6     0.8     SSE   167   1.8     SSE   147   9.36    277      -17.6
   11/11/2019 23:10      54.1      53.5       88     50.1      0.00      0.00      70.0     0.28      1018.6     0.9     SSE   163   2.1     SSW   198   9.36    272      -18.7
   11/11/2019 23:00      54.1      53.6       87     50.0      0.00      0.00      70.0     0.28      1018.6     0.6     SSE   159   1.2     SSE   161   9.36    260      -21.1
   11/11/2019 22:50      54.4      53.5       86     49.6      0.00      0.00      70.0     0.28      1018.6     0.5     SSE   160   1.5       S   175   9.36    252      -23.9
   11/11/2019 22:40      54.5      54.0       85     50.0      0.00      0.00      70.1     0.28      1018.6     0.1     SSE   161   1.0     SSE   159   9.36    241      -26.3
   11/11/2019 22:30      54.3      53.7       86     49.7      0.00      0.00      70.0     0.28      1018.6     1.3     SSW   211   2.5      SW   221   9.36    233      -27.3
   11/11/2019 22:20      54.8      54.0       86     50.3      0.00      0.00      70.1     0.28      1018.6     0.3      SE   138   1.4      SE   145   9.36    234      -29.4
   11/11/2019 22:10      54.8      54.3       85     50.2      0.00      0.00      70.1     0.28      1018.6     0.0       N     0   0.0     SSE   166   9.36    230      -34.0
   11/11/2019 22:00      54.8      54.2       84     49.8      0.00      0.00      70.1     0.28      1018.6     0.0       S   178   0.6     SSW   197   9.36    227      -40.2
   11/11/2019 21:50      55.1      54.4       85     50.3      0.00      0.00      70.1     0.28      1018.5     0.4      SE   141   1.9      SE   140   9.36    226      -42.6
   11/11/2019 21:40      55.1      54.6       83     49.9      0.00      0.00      70.1     0.28      1018.4     0.3     SSE   165   0.7     SSE   154   9.36    236      -45.6
   11/11/2019 21:30      55.9      54.9       83     50.3      0.00      0.00      70.1     0.28      1018.4     0.6     SSE   160   1.5      SE   142   9.36    249      -46.4
   11/11/2019 21:20      55.8      55.4       83     50.4      0.00      0.00      70.1     0.28      1018.2     0.7     SSE   164   1.6       S   189   9.37    256      -48.6
   11/11/2019 21:10      56.3      55.4       81     50.0      0.00      0.00      70.1     0.28      1018.2     0.4     SSE   155   1.2     SSE   164   9.37    261      -51.2
   11/11/2019 21:00      56.8      56.0       81     50.7      0.00      0.00      70.0     0.28      1018.1     0.4     SSE   153   1.0     SSE   148   9.37    258      -50.4
   11/11/2019 20:50      57.5      56.4       80     50.6      0.00      0.00      70.0     0.28      1018.1     0.6     SSE   154   1.5      SE   139   9.37    259      -51.5
   11/11/2019 20:40      57.6      57.1       79     50.9      0.00      0.00      70.0     0.28      1018.0     0.4     SSE   152   1.0     SSE   148   9.37    262      -51.8
   11/11/2019 20:30      57.6      56.9       79     50.6      0.00      0.00      70.0     0.28      1017.9     0.5     SSW   192   1.3      SW   227   9.37    266      -52.8
   11/11/2019 20:20      58.2      57.3       78     50.7      0.00      0.00      70.0     0.28      1017.9     0.6       S   171   2.0       S   179   9.37    269      -53.2
   11/11/2019 20:10      58.9      57.9       76     50.9      0.00      0.00      70.0     0.28      1017.9     0.5     SSE   162   1.6     SSE   155   9.37    270      -53.4
   11/11/2019 20:00      59.1      58.4       75     50.8      0.00      0.00      70.0     0.28      1017.8     0.3     SSW   197   1.9       S   185   9.38    269      -53.6
   11/11/2019 19:50      60.1      58.9       73     51.0      0.00      0.00      69.9     0.28      1017.8     0.8     SSE   158   1.8       S   189   9.38    269      -54.0
   11/11/2019 19:40      60.6      59.8       74     51.7      0.00      0.00      69.9     0.28      1017.7     0.7       S   175   1.4     SSW   201   9.38    268      -53.3
   11/11/2019 19:30      61.5      60.3       72     51.5      0.00      0.00      69.9     0.28      1017.6     0.4     SSE   148   1.1       S   171   9.38    269      -53.9
   11/11/2019 19:20      61.6      61.1       71     51.7      0.00      0.00      69.9     0.28      1017.6     0.3       S   173   1.7     SSE   152   9.38    269      -53.0
   11/11/2019 19:10      61.5      60.8       70     51.4      0.00      0.00      69.8     0.28      1017.5     0.6       S   171   1.6      SE   142   9.38    268      -54.3
   11/11/2019 19:00      62.8      61.0       68     51.0      0.00      0.00      69.8     0.28      1017.5     0.6     SSE   153   1.9      SE   132   9.38    268      -55.6
   11/11/2019 18:50      62.8      62.3       67     51.3      0.00      0.00      69.8     0.28      1017.4     0.8     SSW   197   2.4      SW   220   9.38    268      -55.6
   11/11/2019 18:40      63.3      62.3       66     51.2      0.00      0.00      69.8     0.28      1017.3     0.7     SSE   148   1.5      SE   140   9.39    268      -56.7
   11/11/2019 18:30      64.9      63.1       63     51.0      0.00      0.00      69.7     0.28      1017.2     0.9     SSE   151   2.4     WSW   253   9.39    267      -57.0
   11/11/2019 18:20      64.5      63.7       63     51.0      0.00      0.00      69.7     0.28      1017.1     0.8     WSW   236   3.1      SW   236   9.39    267      -56.4
   11/11/2019 18:10      65.1      64.0       63     51.4      0.00      0.00      69.6     0.28      1016.9     0.2     SSE   159   1.0     SSE   154   9.39    267      -58.0
   11/11/2019 18:00      65.1      64.6       61     51.1      0.00      0.00      69.6     0.28      1016.7     0.2     SSE   154   1.1     SSW   198   9.39    266      -59.8
   11/11/2019 17:50      66.0      64.8       59     50.8      0.00      0.00      69.5     0.28      1016.7     0.7     SSE   161   1.4      SE   138   9.39    266      -60.0
   11/11/2019 17:40      66.0      65.5       59     50.8      0.00      0.00      69.5     0.28      1016.7     0.8     SSE   147   1.2      SE   139   9.39    266      -61.5
   11/11/2019 17:30      66.7      65.7       58     50.7      0.00      0.00      69.4     0.28      1016.6     0.5     SSE   163   1.5       S   178   9.39    266      -63.1
   11/11/2019 17:20      67.5      66.4       55     49.9      0.00      0.00      69.4     0.28      1016.5     1.0       S   174   2.4      SW   233   9.40    266      -64.5
   11/11/2019 17:10      69.1      67.3       54     50.7      0.00      0.00      69.3     0.28      1016.4     0.7     SSE   162   1.5     SSE   150   9.40    266      -65.7
   11/11/2019 17:00      71.4      68.9       50     50.8      0.00      0.00      69.3     0.28      1016.3     0.2       S   172   1.1       S   173   9.40    266      -65.6
   11/11/2019 16:50      72.5      71.2       49     51.1      0.00      0.00      69.3     0.28      1016.3     0.2       S   181   0.8       S   187   9.40    265      -62.6
   11/11/2019 16:40      74.0      72.1       46     50.8      0.00      0.00      69.2     0.28      1016.3     0.0       N     0   0.0     SSE   147   9.41    264      -60.9
   11/11/2019 16:30      75.6      73.8       43     50.7      0.00      0.00      69.1     0.28      1016.2     0.5      SE   139   1.3     ESE   121   9.41    264      -59.8
   11/11/2019 16:20      77.0      75.5       41     50.9      0.00      0.00      69.1     0.28      1016.3     1.2      SE   127   2.4      SE   126   9.41    264      -58.6
   11/11/2019 16:10      78.4      76.8       39     51.1      0.00      0.00      69.1     0.28      1016.3     0.9     ESE   108   2.8      SE   139   9.41    263      -47.9
   11/11/2019 16:00      78.6      78.0       39     51.5      0.00      0.00      69.0     0.28      1016.2     1.0      NE    56   2.5       E    90   9.41    263      -10.3
   11/11/2019 15:50      79.0      78.3       40     52.0      0.00      0.00      69.0     0.28      1016.1     1.4      NE    47   2.9     ENE    60   9.42    263       10.3
   11/11/2019 15:40      79.3      78.5       40     52.2      0.00      0.00      68.9     0.28      1016.1     1.7      NE    49   3.0     NNE    32   9.42    263       34.0
   11/11/2019 15:30      79.7      78.8       40     52.7      0.00      0.00      68.9     0.28      1016.1     1.9     ENE    66   4.1       E    81   9.42    263       58.1
   11/11/2019 15:20      80.9      79.3       37     51.1      0.00      0.00      68.8     0.28      1016.0     2.3      NE    49   4.4     NNE    26   9.42    263       79.3
   11/11/2019 15:10      81.5      80.6       33     48.9      0.00      0.00      68.8     0.28      1016.0     1.2      NE    43   3.5      SE   129   9.42    263       91.4
   11/11/2019 15:00      82.1      81.0       32     48.5      0.00      0.00      68.7     0.28      1016.0     1.3      NE    38   3.2     ESE   102   9.42    263      117.1
   11/11/2019 14:50      82.0      80.8       31     47.4      0.00      0.00      68.7     0.28      1016.0     1.0       E    88   2.9     ESE   104   9.42    263      133.1
   11/11/2019 14:40      81.7      81.1       31     47.5      0.00      0.00      68.6     0.28      1016.0     1.3      NE    36   3.1     ENE    77   9.42    262      149.1
   11/11/2019 14:30      81.9      81.1       30     47.5      0.00      0.00      68.6     0.28      1016.0     0.9     NNE    18   2.8      NE    40   9.42    262      163.4
   11/11/2019 14:20      82.0      80.9       31     47.8      0.00      0.00      68.6     0.28      1016.0     1.4       N     5   3.6       N     7   9.42    262      178.6
   11/11/2019 14:10      81.9      80.7       30     47.0      0.00      0.00      68.5     0.28      1015.9     1.1     WSW   240   3.0     WSW   237   9.42    262      204.9
   11/11/2019 14:00      81.7      80.3       31     47.4      0.00      0.00      68.5     0.28      1015.9     1.8      NW   311   3.5     ESE   103   9.42    262      226.3
   11/11/2019 13:50      82.2      81.3       31     48.3      0.00      0.00      68.5     0.28      1016.0     1.3     NNE    31   2.8     ENE    62   9.43    262      240.9
   11/11/2019 13:40      81.9      81.2       32     48.4      0.00      0.00      68.5     0.28      1016.0     0.7      NE    46   2.3       E    94   9.43    262      257.4
   11/11/2019 13:30      81.5      79.8       33     48.7      0.00      0.00      68.5     0.28      1016.0     0.9     ESE   123   2.7     ESE   116   9.43    263      272.4
   11/11/2019 13:20      80.6      79.6       32     47.6      0.00      0.00      68.4     0.28      1016.0     1.1     ENE    76   2.8     ESE   117   9.43    262      287.1
   11/11/2019 13:10      80.1      78.8       33     48.1      0.00      0.00      68.4     0.28      1016.0     1.9      NE    53   3.3       E    93   9.43    262      299.3
   11/11/2019 13:00      79.3      78.5       34     48.4      0.00      0.00      68.4     0.28      1016.0     2.0     NNE    20   4.3     NNE    19   9.43    263      307.6
   11/11/2019 12:50      79.2      77.7       35     48.4      0.00      0.00      68.4     0.28      1016.1     1.4     NNE    18   3.9     NNE    13   9.43    263      317.8
   11/11/2019 12:40      78.0      77.4       35     48.3      0.00      0.00      68.4     0.28      1016.2     1.7      NE    49   3.7     ENE    72   9.43    263      328.3
   11/11/2019 12:30      78.0      77.3       37     49.1      0.00      0.00      68.4     0.28      1016.3     1.4      NE    44   3.0       E    91   9.43    263      335.4
   11/11/2019 12:20      77.5      75.6       38     49.3      0.00      0.00      68.4     0.28      1016.4     1.1     NNE    14   3.3     NNW   342   9.43    263      342.3
   11/11/2019 12:10      75.8      75.1       40     49.7      0.00      0.00      68.4     0.28      1016.6     1.8      NE    40   3.6     NNE    19   9.43    263      347.1
   11/11/2019 12:00      75.3      74.1       43     50.6      0.00      0.00      68.4     0.28      1016.8     1.7       N   358   3.5       N     3   9.43    263      350.3
   11/11/2019 11:50      75.8      74.2       43     50.9      0.00      0.00      68.4     0.28      1017.0     1.5      NE    42   4.0       E    83   9.43    264      354.7
   11/11/2019 11:40      74.5      73.3       45     51.0      0.00      0.00      68.4     0.28      1017.1     1.3     NNE    14   3.2       N     7   9.43    264      353.4
   11/11/2019 11:30      73.8      72.3       46     51.4      0.00      0.00      68.3     0.28      1017.2     1.3     NNW   333   3.4       N   354   9.43    264      353.9
   11/11/2019 11:20      73.2      72.1       47     51.4      0.00      0.00      68.4     0.28      1017.4     1.5      NW   324   3.1     WNW   296   9.43    265      353.5
   11/11/2019 11:10      72.9      71.5       48     51.5      0.00      0.00      68.4     0.28      1017.6     1.2     NNW   343   3.8       N   355   9.43    265      350.8
   11/11/2019 11:00      72.0      70.3       50     51.5      0.00      0.00      68.4     0.28      1017.7     1.0      NW   323   2.8       N     0   9.43    266      346.8
   11/11/2019 10:50      70.5      68.9       53     51.5      0.00      0.00      68.4     0.28      1017.9     1.1     NNE    13   2.7      NW   321   9.43    266      340.9
   11/11/2019 10:40      69.4      68.0       54     51.4      0.00      0.00      68.4     0.28      1018.0     1.1       N     7   3.0      NE    50   9.43    266      337.6
   11/11/2019 10:30      68.0      67.3       56     51.3      0.00      0.00      68.4     0.28      1018.1     1.4       N     1   3.7     NNE    17   9.43    266      328.1
   11/11/2019 10:20      68.1      67.4       56     51.3      0.00      0.00      68.4     0.28      1018.2     1.2     NNW   341   2.5     NNW   338   9.43    266      321.9
   11/11/2019 10:10      67.8      66.9       56     51.3      0.00      0.00      68.5     0.28      1018.3     0.8       N   353   2.5     WNW   284   9.43    266      311.9
   11/11/2019 10:00      67.1      65.3       59     51.3      0.00      0.00      68.5     0.28      1018.2     0.6       N    10   2.4     NNE    23   9.43    266      300.1
   11/11/2019 09:50      65.7      64.8       61     51.3      0.00      0.00      68.5     0.28      1018.3     1.5      NE    54   3.5       E    87   9.43    266      287.0
   11/11/2019 09:40      65.1      64.5       62     51.5      0.00      0.00      68.5     0.28      1018.3     1.4       N     6   3.5       W   266   9.43    266      273.3
   11/11/2019 09:30      64.7      63.3       64     51.2      0.00      0.00      68.5     0.28      1018.4     0.9     NNW   332   2.3     NNW   347   9.43    266      258.8
   11/11/2019 09:20      63.6      62.0       66     51.3      0.00      0.00      68.5     0.28      1018.4     0.9       N   359   2.5     NNE    11   9.43    266      239.5
   11/11/2019 09:10      62.4      61.4       68     51.0      0.00      0.00      68.5     0.28      1018.4     1.0      SE   130   2.7     NNE    23   9.43    267      224.3
   11/11/2019 09:00      61.9      61.3       68     51.1      0.00      0.00      68.6     0.28      1018.3     1.0     SSE   161   2.4     SSE   162   9.43    267      207.4
   11/11/2019 08:50      61.7      60.8       69     51.1      0.00      0.00      68.7     0.28      1018.2     1.0     SSE   148   1.8     SSE   148   9.43    267      188.2
   11/11/2019 08:40      60.9      59.6       72     51.0      0.00      0.00      68.6     0.28      1018.2     0.7       N     3   1.8     NNE    20   9.43    267      166.9
   11/11/2019 08:30      60.1      58.6       74     51.2      0.00      0.00      68.7     0.28      1018.1     0.6       N    10   2.5     NNE    20   9.43    268      146.4
   11/11/2019 08:20      58.9      58.4       75     50.8      0.00      0.00      68.6     0.28      1018.1     1.4     WSW   258   3.1     WSW   239   9.43    268      127.0
   11/11/2019 08:10      59.0      57.9       76     51.1      0.00      0.00      68.7     0.28      1018.0     1.0     WSW   245   3.0       W   259   9.43    268      109.5
   11/11/2019 08:00      58.3      57.6       78     51.1      0.00      0.00      68.7     0.28      1018.0     0.7       S   177   2.0       S   191   9.43    269       84.8
   11/11/2019 07:50      57.7      56.9       80     51.0      0.00      0.00      68.7     0.28      1017.9     0.7      SE   129   2.3      SE   140   9.43    269       61.0
   11/11/2019 07:40      57.1      56.3       81     51.2      0.00      0.00      68.7     0.28      1017.8     0.6     SSE   159   1.8     SSE   150   9.43    271       37.0
   11/11/2019 07:30      56.5      55.4       84     51.0      0.00      0.00      68.7     0.28      1017.7     0.1       S   182   0.8       S   184   9.43    270       13.3
   11/11/2019 07:20      55.6      54.9       85     50.7      0.00      0.00      68.7     0.28      1017.6     0.3     SSW   198   1.2     SSW   209   9.43    248       -8.4
   11/11/2019 07:10      55.2      54.5       86     50.6      0.00      0.00      68.7     0.28      1017.5     0.0       N     0   0.0       S   180   9.43    238      -15.1
   11/11/2019 07:00      54.8      54.4       86     50.5      0.00      0.00      68.7     0.28      1017.4     0.0     SSW   199   0.5     SSW   200   9.43    241      -25.3
   11/11/2019 06:50      54.9      54.4       86     50.5      0.00      0.00      68.7     0.28      1017.3     0.7     SSW   196   1.3     SSW   197   9.43    255      -21.9
   11/11/2019 06:40      55.2      54.5       86     50.5      0.00      0.00      68.7     0.28      1017.3     0.6       S   190   1.5       S   191   9.43    256      -26.4
   11/11/2019 06:30      55.5      54.9       85     50.7      0.00      0.00      68.8     0.28      1017.2     0.1     SSW   192   0.9     SSW   192   9.43    251      -38.9
   11/11/2019 06:20      55.4      55.1       85     50.9      0.00      0.00      68.8     0.28      1017.1     0.0      SE   139   0.7      SE   139   9.43    264      -27.8
   11/11/2019 06:10      55.4      55.0       85     50.9      0.00      0.00      68.7     0.28      1017.1     0.7     SSE   156   2.5      SE   142   9.43    270      -16.1
   11/11/2019 06:00      55.7      55.1       85     51.0      0.00      0.00      68.8     0.28      1017.0     0.9      SE   126   2.7      SE   146   9.43    270      -15.8
   11/11/2019 05:50      55.7      55.2       85     51.0      0.00      0.00      68.8     0.28      1017.0     0.9      NE    49   3.1      SE   138   9.43    270      -15.3
   11/11/2019 05:40      55.7      55.3       86     51.2      0.00      0.00      68.8     0.28      1017.0     0.4      NE    40   2.1      NE    37   9.43    270      -16.1
   11/11/2019 05:30      55.7      55.2       86     51.3      0.00      0.00      68.8     0.28      1016.9     0.5       E    82   1.8       E   101   9.43    270      -11.8
   11/11/2019 05:20      55.5      55.1       87     51.3      0.00      0.00      68.8     0.28      1016.8     1.1      SE   135   2.4     SSE   151   9.43    270      -12.3
   11/11/2019 05:10      55.6      55.2       87     51.6      0.00      0.00      68.9     0.28      1016.7     0.7     ESE   111   1.8       E    88   9.43    270      -13.2
   11/11/2019 05:00      55.5      55.2       88     51.8      0.00      0.00      68.9     0.28      1016.5     0.4       S   176   1.3      SE   136   9.43    270       -9.9
   11/11/2019 04:50      55.6      55.1       88     51.9      0.00      0.00      68.9     0.28      1016.4     0.1       S   186   1.2       S   183   9.43    269       -8.7
   11/11/2019 04:40      55.4      54.9       89     52.0      0.00      0.00      68.9     0.28      1016.4     0.2      SE   129   1.0      SE   139   9.43    269       -8.0
   11/11/2019 04:30      55.2      54.8       90     52.0      0.00      0.00      68.9     0.28      1016.5     0.4      SE   126   1.5      SE   140   9.43    269       -7.7
   11/11/2019 04:20      55.1      54.7       91     52.1      0.00      0.00      68.9     0.28      1016.5     0.7      SE   126   2.3      SE   139   9.43    269       -7.8
   11/11/2019 04:10      55.0      54.6       91     52.2      0.00      0.00      68.9     0.28      1016.4     0.2     ENE    63   1.2       E    96   9.43    268       -8.3
   11/11/2019 04:00      54.9      54.5       92     52.3      0.00      0.00      68.9     0.28      1016.4     0.8     ESE   116   1.6       E    83   9.43    267       -7.8
   11/11/2019 03:50      54.9      54.5       92     52.3      0.00      0.00      69.0     0.28      1016.4     0.9     ENE    64   2.8      SE   137   9.43    267       -7.6
   11/11/2019 03:40      54.8      54.4       93     52.5      0.00      0.00      69.0     0.28      1016.4     0.3     ENE    64   1.5     ENE    73   9.43    266       -7.6
   11/11/2019 03:30      54.7      54.3       93     52.4      0.00      0.00      69.0     0.28      1016.5     1.0      SE   143   2.7     SSE   156   9.43    264       -7.3
   11/11/2019 03:20      54.6      54.0       93     52.3      0.00      0.00      69.0     0.28      1016.5     1.3       S   183   2.7       S   181   9.43    260       -6.7
   11/11/2019 03:10      54.7      54.1       93     52.3      0.00      0.00      69.0     0.28      1016.4     1.7     SSE   163   3.5     SSE   163   9.43    257       -6.4
   11/11/2019 03:00      54.8      54.3       92     52.4      0.00      0.00      69.0     0.28      1016.4     1.7     SSE   166   3.2      SE   140   9.44    257       -6.2
   11/11/2019 02:50      55.1      54.6       92     52.6      0.00      0.00      69.1     0.28      1016.4     1.8     SSE   160   3.8      SE   132   9.43    257       -6.1
   11/11/2019 02:40      55.2      54.6       92     52.6      0.00      0.00      69.1     0.28      1016.4     1.3      SE   143   3.5      SE   139   9.43    256       -6.3
   11/11/2019 02:30      55.3      54.9       92     52.7      0.00      0.00      69.1     0.28      1016.3     0.8     ESE   116   2.5      SE   137   9.43    256       -5.9
   11/11/2019 02:20      55.5      55.0       92     52.7      0.00      0.00      69.1     0.28      1016.2     1.5     ESE   111   2.6       E    94   9.43    255       -5.5
   11/11/2019 02:10      55.7      55.3       91     53.0      0.00      0.00      69.2     0.28      1016.3     1.3      SE   133   2.6     ESE   124   9.43    258       -5.3
   11/11/2019 02:00      55.8      55.3       91     52.9      0.00      0.00      69.2     0.28      1016.4     0.9     SSE   151   2.1       S   175   9.43    257       -5.1
   11/11/2019 01:50      55.8      55.4       91     52.8      0.00      0.00      69.2     0.28      1016.4     1.3      SE   141   2.5     ESE   120   9.43    257       -4.7
   11/11/2019 01:40      56.0      55.5       90     52.9      0.00      0.00      69.2     0.28      1016.4     1.6      SE   132   3.6      SE   145   9.43    262       -4.9
   11/11/2019 01:30      55.9      55.5       90     52.9      0.00      0.00      69.3     0.28      1016.4     1.3     ESE   113   2.5      SE   125   9.43    262       -4.5
   11/11/2019 01:20      55.9      55.5       90     52.7      0.00      0.00      69.3     0.28      1016.4     1.4      SE   127   3.2      SE   141   9.43    262       -4.1
   11/11/2019 01:10      56.1      55.5       90     52.7      0.00      0.00      69.3     0.28      1016.4     1.1     ESE   123   3.0      SE   132   9.43    262       -4.0
   11/11/2019 01:00      56.2      55.8       89     52.9      0.00      0.00      69.3     0.28      1016.4     0.5       E    86   3.1       E   101   9.43    261       -3.8
   11/11/2019 00:50      56.3      55.8       89     52.8      0.00      0.00      69.3     0.28      1016.4     0.8       E    87   2.3      SE   124   9.43    262       -3.6
   11/11/2019 00:40      56.0      55.4       89     52.5      0.00      0.00      69.4     0.28      1016.5     0.8     ENE    65   2.9      NE    53   9.43    262       -3.6
   11/11/2019 00:30      55.5      54.9       89     51.8      0.00      0.00      69.4     0.28      1016.5     0.6      SE   139   1.6       S   184   9.43    263       -3.6
   11/11/2019 00:20      55.1      54.1       88     51.1      0.00      0.00      69.4     0.28      1016.5     0.4      SW   224   1.1     SSW   204   9.43    262       -5.0
   11/11/2019 00:10      54.2      52.6       86     49.0      0.00      0.00      69.4     0.28      1016.5     0.8     SSW   206   1.6     SSW   211   9.43    266       -4.1
   11/11/2019 00:00      52.8      52.0       86     48.1      0.00      0.00      69.4     0.28      1016.5     0.0       N     0   0.0     NNE    27   9.43    268       -4.5
   11/10/2019 23:50      52.1      51.6       87     48.1      0.00      0.00      69.4     0.28      1016.5     0.0     NNE    26   0.9     NNE    20   9.43    264       -2.9
   11/10/2019 23:40      51.8      50.8       87     47.5      0.00      0.00      69.4     0.28      1016.4     0.3       S   190   0.9      SW   232   9.43    251       -9.2
   11/10/2019 23:30      51.9      50.7       86     47.0      0.00      0.00      69.4     0.28      1016.5     0.8     SSE   149   1.2      SE   141   9.43    247      -27.4
   11/10/2019 23:20      51.8      51.1       85     47.0      0.00      0.00      69.5     0.28      1016.5     0.3       S   172   1.0       S   184   9.43    244      -30.5
   11/10/2019 23:10      52.0      51.4       85     47.3      0.00      0.00      69.5     0.28      1016.4     0.5      SE   143   1.2     SSE   160   9.44    241      -33.5
   11/10/2019 23:00      52.7      51.4       84     47.3      0.00      0.00      69.5     0.28      1016.4     0.4     SSE   157   1.0     SSE   150   9.44    241      -36.4
   11/10/2019 22:50      53.3      52.1       84     48.0      0.00      0.00      69.5     0.28      1016.3     0.1     SSE   152   0.7     SSE   149   9.44    241      -39.0
   11/10/2019 22:40      53.2      52.5       82     47.5      0.00      0.00      69.5     0.28      1016.4     0.4     SSE   160   0.9     SSE   152   9.44    247      -43.8
   11/10/2019 22:30      53.2      52.4       79     46.6      0.00      0.00      69.5     0.28      1016.2     0.2     SSE   160   1.0     SSE   151   9.44    256      -47.8
   11/10/2019 22:20      52.9      52.4       77     45.6      0.00      0.00      69.5     0.28      1016.2     0.5     SSE   149   1.5      SE   145   9.44    265      -49.9
   11/10/2019 22:10      53.8      52.5       72     44.4      0.00      0.00      69.5     0.28      1016.2     0.5     SSE   161   1.2     SSE   155   9.44    264      -50.9
   11/10/2019 22:00      54.0      53.0       70     43.9      0.00      0.00      69.5     0.28      1016.2     0.7     SSE   164   1.6       S   174   9.44    266      -50.9
   11/10/2019 21:50      53.8      53.5       67     43.1      0.00      0.00      69.5     0.28      1016.3     0.3       S   185   1.3      SW   218   9.44    266      -50.4
   11/10/2019 21:40      53.8      53.2       67     42.6      0.00      0.00      69.5     0.28      1016.3     0.4     SSE   165   0.8     SSE   163   9.44    266      -51.4
   11/10/2019 21:30      54.0      53.4       65     42.2      0.00      0.00      69.5     0.28      1016.2     0.2     SSE   154   0.7     SSE   154   9.44    266      -51.7
   11/10/2019 21:20      54.1      53.4       65     42.1      0.00      0.00      69.5     0.28      1016.1     0.6       S   170   1.2     SSW   200   9.45    266      -51.6
   11/10/2019 21:10      54.9      53.8       63     42.3      0.00      0.00      69.5     0.28      1016.0     0.5     SSE   158   1.0     SSE   158   9.45    266      -52.8
   11/10/2019 21:00      55.1      54.5       65     43.0      0.00      0.00      69.5     0.28      1015.9     0.4       S   176   1.0       S   172   9.45    266      -53.1
   11/10/2019 20:50      55.4      54.6       65     43.6      0.00      0.00      69.5     0.28      1015.8     0.3     SSE   161   1.0       S   172   9.45    266      -53.6
   11/10/2019 20:40      55.8      55.0       65     43.8      0.00      0.00      69.5     0.28      1015.7     0.0     SSE   165   0.2       S   177   9.45    266      -54.0
   11/10/2019 20:30      56.2      55.4       66     44.4      0.00      0.00      69.5     0.28      1015.6     0.2     SSE   160   0.8     SSE   162   9.45    266      -54.5
   11/10/2019 20:20      56.8      55.9       66     44.8      0.00      0.00      69.5     0.28      1015.5     0.3     SSE   162   0.9     SSE   157   9.45    266      -55.1
   11/10/2019 20:10      57.2      56.4       67     45.9      0.00      0.00      69.4     0.28      1015.5     0.4     SSE   160   0.9     SSE   159   9.45    266      -56.0
   11/10/2019 20:00      57.8      56.8       70     47.7      0.00      0.00      69.4     0.28      1015.5     0.3     SSE   160   0.9     SSE   153   9.45    266      -56.1
   11/10/2019 19:50      58.0      57.4       72     48.6      0.00      0.00      69.4     0.28      1015.5     0.6     SSE   153   1.2     SSE   151   9.45    266      -57.0
   11/10/2019 19:40      58.4      57.5       72     48.9      0.00      0.00      69.4     0.28      1015.5     0.8     SSE   158   1.3     SSE   147   9.45    265      -57.5
   11/10/2019 19:30      58.6      58.0       68     47.8      0.00      0.00      69.3     0.28      1015.5     0.4     SSE   160   1.2     SSE   153   9.46    264      -58.0
   11/10/2019 19:20      59.5      58.2       66     47.3      0.00      0.00      69.3     0.28      1015.5     0.4     SSE   154   1.3      SE   142   9.46    265      -59.1
   11/10/2019 19:10      59.9      59.0       65     47.6      0.00      0.00      69.3     0.28      1015.4     0.8     SSE   155   1.3     SSE   154   9.46    266      -59.5
   11/10/2019 19:00      60.2      59.3       62     46.6      0.00      0.00      69.3     0.28      1015.3     0.6     SSE   152   1.3      SE   145   9.46    265      -60.2
   11/10/2019 18:50      60.8      59.8       61     46.7      0.00      0.00      69.2     0.28      1015.2     1.2     SSE   153   1.8      SE   138   9.46    265      -61.6
   11/10/2019 18:40      61.3      60.6       60     47.1      0.00      0.00      69.2     0.28      1015.3     0.6     SSE   164   1.2     SSE   157   9.46    265      -61.2
   11/10/2019 18:30      61.7      60.5       58     46.2      0.00      0.00      69.1     0.28      1015.3     0.6       S   171   1.2     SSE   163   9.46    265      -61.4
   11/10/2019 18:20      63.2      61.4       55     45.7      0.00      0.00      69.1     0.28      1015.2     0.7     SSE   158   1.6      SE   144   9.47    264      -62.4
   11/10/2019 18:10      65.2      62.9       54     46.8      0.00      0.00      69.0     0.28      1015.0     0.3       S   185   1.1     SSW   199   9.47    264      -63.5
   11/10/2019 18:00      65.3      64.6       56     49.0      0.00      0.00      69.0     0.28      1014.9     0.2     SSW   205   1.4       W   268   9.47    264      -64.3
   11/10/2019 17:50      66.5      64.7       48     45.3      0.00      0.00      68.9     0.28      1014.8     0.4     SSE   160   1.0     SSE   147   9.47    264      -65.1
   11/10/2019 17:40      67.9      66.2       45     44.8      0.00      0.00      68.9     0.28      1014.8     0.0      SW   235   0.8     WSW   250   9.47    264      -66.7
   11/10/2019 17:30      68.7      67.6       42     44.1      0.00      0.00      68.8     0.28      1014.8     0.5     WSW   241   1.6     WSW   244   9.47    264      -67.1
   11/10/2019 17:20      70.3      68.5       40     44.2      0.00      0.00      68.8     0.28      1014.8     0.7     WSW   248   1.8      SW   231   9.47    264      -67.3
   11/10/2019 17:10      71.7      70.1       38     43.9      0.00      0.00      68.7     0.28      1014.7     1.3      SW   233   2.7      SW   225   9.48    263      -68.3
   11/10/2019 17:00      72.9      71.3       36     43.8      0.00      0.00      68.7     0.28      1014.7     2.3      SW   219   3.6      SW   220   9.48    263      -69.8
   11/10/2019 16:50      72.8      71.7       36     43.8      0.00      0.00      68.7     0.28      1014.5     2.6      SW   229   4.6     SSW   202   9.48    263      -66.6
   11/10/2019 16:40      73.3      72.2       35     43.5      0.00      0.00      68.6     0.28      1014.5     1.3       S   170   2.4      SE   140   9.48    262      -65.5
   11/10/2019 16:30      74.8      73.1       34     43.7      0.00      0.00      68.5     0.28      1014.4     0.7     SSE   165   1.5       S   189   9.49    262      -62.9
   11/10/2019 16:20      76.2      74.3       33     43.8      0.00      0.00      68.5     0.28      1014.3     1.4       S   171   3.5       S   186   9.49    262      -60.0
   11/10/2019 16:10      77.5      75.9       31     43.6      0.00      0.00      68.4     0.28      1014.3     1.8       S   175   4.2     SSW   197   9.49    261      -24.0
   11/10/2019 16:00      79.0      77.2       28     42.6      0.00      0.00      68.4     0.28      1014.2     2.4       S   172   3.8       S   180   9.49    261       -8.4
   11/10/2019 15:50      79.8      78.8       26     41.3      0.00      0.00      68.4     0.28      1014.2     1.6      SE   137   3.5     SSE   153   9.49    261       10.0
   11/10/2019 15:40      80.0      79.4       27     42.2      0.00      0.00      68.3     0.28      1014.1     1.4      NE    44   2.9     ESE   122   9.50    261       29.1
   11/10/2019 15:30      80.1      79.4       26     42.2      0.00      0.00      68.2     0.28      1014.1     1.2     ENE    57   3.3     ESE   112   9.50    261       52.0
   11/10/2019 15:20      80.3      79.7       25     41.5      0.00      0.00      68.2     0.28      1014.1     1.8      NE    56   5.2       E    86   9.50    261       73.7
   11/10/2019 15:10      80.5      80.0       25     41.6      0.00      0.00      68.2     0.28      1014.1     1.7     ENE    68   3.6     ENE    71   9.50    261       96.3
   11/10/2019 15:00      80.4      80.1       26     41.8      0.00      0.00      68.1     0.28      1014.1     1.7      NE    51   4.1       E    94   9.50    261      118.3
   11/10/2019 14:50      80.6      80.0       26     42.0      0.00      0.00      68.1     0.28      1014.1     2.2     ENE    74   4.5     ESE   112   9.50    261      140.6
   11/10/2019 14:40      80.7      80.2       27     43.2      0.00      0.00      68.0     0.28      1014.1     2.1      NE    55   3.7     ENE    63   9.50    261      162.3
   11/10/2019 14:30      80.8      80.3       27     43.8      0.00      0.00      68.0     0.28      1014.1     2.3     ENE    79   5.5     ESE   110   9.50    261      183.5
   11/10/2019 14:20      80.7      80.3       29     45.6      0.00      0.00      67.9     0.28      1014.0     2.1      NE    49   3.8     ENE    77   9.51    261      201.0
   11/10/2019 14:10      80.6      79.8       30     46.2      0.00      0.00      67.9     0.28      1014.0     2.4      NE    46   4.6      NE    47   9.51    261      217.9
   11/10/2019 14:00      80.7      79.6       29     44.6      0.00      0.00      67.8     0.28      1014.1     2.9     ENE    67   6.0       E    96   9.51    261      234.5
   11/10/2019 13:50      81.0      80.1       26     42.9      0.00      0.00      67.9     0.28      1014.2     2.5     NNE    33   5.8     ENE    61   9.51    261      248.9
   11/10/2019 13:40      81.1      80.4       25     41.4      0.00      0.00      67.8     0.28      1014.3     2.6      NE    37   5.2      NE    49   9.51    260      263.3
   11/10/2019 13:30      81.4      80.4       24     40.8      0.00      0.00      67.8     0.28      1014.4     2.5     ENE    60   5.2      NE    45   9.51    260      277.1
   11/10/2019 13:20      81.4      80.7       24     40.4      0.00      0.00      67.8     0.28      1014.5     2.2      NE    49   5.2      NE    34   9.51    260      291.4
   11/10/2019 13:10      81.1      80.3       23     39.5      0.00      0.00      67.8     0.28      1014.7     2.3      NE    50   5.0      NE    56   9.51    260      306.8
   11/10/2019 13:00      80.9      79.8       22     38.5      0.00      0.00      67.8     0.28      1014.8     2.4     ENE    57   5.9     ESE   103   9.51    261      318.9
   11/10/2019 12:50      80.7      79.8       24     39.7      0.00      0.00      67.7     0.28      1014.9     2.4       E    94   5.2     ESE   106   9.51    261      328.3
   11/10/2019 12:40      81.1      80.2       24     40.2      0.00      0.00      67.7     0.28      1015.1     2.0     ESE   102   5.1       E    97   9.51    261      333.2
   11/10/2019 12:30      80.6      79.3       25     40.9      0.00      0.00      67.7     0.28      1015.3     1.9      NE    48   4.4     ENE    76   9.51    261      343.2
   11/10/2019 12:20      80.0      79.3       26     41.3      0.00      0.00      67.7     0.28      1015.4     2.6     ENE    63   4.6      NE    50   9.51    261      349.7
   11/10/2019 12:10      80.0      79.3       26     42.0      0.00      0.00      67.7     0.28      1015.5     2.1      NE    44   3.8      NE    38   9.51    261      348.7
   11/10/2019 12:00      80.5      79.5       26     41.9      0.00      0.00      67.8     0.28      1015.7     2.2     NNE    20   4.2     NNE    29   9.51    261      357.1
   11/10/2019 11:50      80.3      79.5       23     39.1      0.00      0.00      67.8     0.28      1015.8     1.7      NE    42   4.1      NE    46   9.51    261      360.1
   11/10/2019 11:40      79.6      78.2       22     36.6      0.00      0.00      67.8     0.28      1016.0     1.5     ENE    78   3.4     ENE    71   9.51    260      364.5
   11/10/2019 11:30      78.7      78.0       18     31.1      0.00      0.00      67.8     0.28      1016.2     1.6     ENE    63   3.7     ENE    65   9.51    260      362.7
   11/10/2019 11:20      78.4      77.5       16     28.3      0.00      0.00      67.8     0.28      1016.3     1.7     ENE    59   3.9     NNW   342   9.51    260      360.8
   11/10/2019 11:10      78.2      77.5       16     28.8      0.00      0.00      67.8     0.28      1016.4     1.5     NNE    18   3.4      NE    47   9.51    260      355.4
   11/10/2019 11:00      77.6      76.8       16     27.3      0.00      0.00      67.9     0.28      1016.5     1.5     NNE    22   3.4      NE    55   9.51    260      353.0
   11/10/2019 10:50      77.0      75.4       16     26.7      0.00      0.00      67.9     0.28      1016.6     1.4      NE    34   3.2      NE    44   9.51    260      349.3
   11/10/2019 10:40      76.2      74.9       16     25.6      0.00      0.00      67.9     0.28      1016.7     1.5      NE    49   3.5       E    94   9.52    260      343.6
   11/10/2019 10:30      75.1      74.2       17     27.5      0.00      0.00      67.9     0.28      1016.9     1.3     NNE    15   3.1     NNE    22   9.52    260      333.9
   11/10/2019 10:20      74.5      73.4       18     28.3      0.00      0.00      68.0     0.28      1016.9     1.1       N   360   2.8     NNE    13   9.51    261      326.6
   11/10/2019 10:10      73.8      72.6       19     28.2      0.00      0.00      68.0     0.28      1017.1     0.9       N     5   3.0     NNW   327   9.51    260      319.8
   11/10/2019 10:00      72.8      71.9       19     27.3      0.00      0.00      68.1     0.28      1017.1     0.9       N     3   2.1     NNE    28   9.52    261      307.9
   11/10/2019 09:50      72.0      70.2       19     27.3      0.00      0.00      68.1     0.28      1017.2     1.0     ENE    58   2.0     NNE    18   9.52    261      296.3
   11/10/2019 09:40      70.5      69.6       21     28.5      0.00      0.00      68.1     0.28      1017.2     1.1     NNE    18   3.0       N     9   9.52    261      281.5
   11/10/2019 09:30      70.4      69.6       22     28.8      0.00      0.00      68.2     0.28      1017.2     0.8     NNE    25   2.2     NNE    15   9.52    261      265.6
   11/10/2019 09:20      70.0      68.5       23     29.4      0.00      0.00      68.2     0.28      1017.2     0.2     NNE    31   1.1       N     4   9.52    261      248.4
   11/10/2019 09:10      69.1      67.8       24     29.7      0.00      0.00      68.3     0.28      1017.2     0.7      NE    34   1.7     NNE    22   9.52    261      234.4
   11/10/2019 09:00      69.0      66.8       24     29.6      0.00      0.00      68.3     0.28      1017.2     0.1     ENE    64   1.7       N     6   9.52    261      218.8
   11/10/2019 08:50      66.9      64.7       27     31.2      0.00      0.00      68.3     0.28      1017.2     0.4      SE   127   1.4     ENE    70   9.52    262      202.9
   11/10/2019 08:40      64.7      62.3       32     32.5      0.00      0.00      68.4     0.28      1017.3     0.6      SE   130   2.0      SE   133   9.52    262      189.9
   11/10/2019 08:30      62.4      59.9       36     33.5      0.00      0.00      68.5     0.28      1017.4     0.5     NNW   330   1.5     NNE    24   9.52    262      169.1
   11/10/2019 08:20      60.0      59.1       37     32.8      0.00      0.00      68.5     0.28      1017.4     1.2     NNE    15   2.3       N     4   9.52    262      152.9
   11/10/2019 08:10      59.4      57.5       38     33.3      0.00      0.00      68.5     0.28      1017.3     0.7       N     3   2.3     NNE    12   9.52    262      135.2
   11/10/2019 08:00      57.7      56.2       39     32.3      0.00      0.00      68.6     0.28      1017.2     0.9      NE    54   1.9     ENE    70   9.52    263      121.6
   11/10/2019 07:50      56.2      54.6       41     31.6      0.00      0.00      68.6     0.28      1017.1     0.8     ESE   117   2.3      SE   142   9.52    263       99.6
   11/10/2019 07:40      55.1      52.3       41     30.7      0.00      0.00      68.7     0.28      1017.3     0.5       N   353   2.6      NW   317   9.52    264       54.4
   11/10/2019 07:30      52.4      49.8       47     31.4      0.00      0.00      68.7     0.28      1017.2     0.7      NW   318   2.2      NW   311   9.52    264       24.3
   11/10/2019 07:20      50.1      48.5       48     30.9      0.00      0.00      68.7     0.28      1017.1     0.7      SE   132   2.0      SE   143   9.52    264      -28.2
   11/10/2019 07:10      48.6      46.3       50     29.8      0.00      0.00      68.7     0.28      1017.1     0.2      SE   146   0.8     SSE   151   9.52    264      -26.7
   11/10/2019 07:00      46.5      44.7       53     29.4      0.00      0.00      68.8     0.28      1017.0     0.2     SSW   194   1.1     SSW   194   9.52    264      -29.4
   11/10/2019 06:50      45.5      44.7       53     29.0      0.00      0.00      68.8     0.28      1016.8     0.4     ESE   121   1.7      SE   138   9.52    264      -34.9
   11/10/2019 06:40      45.1      44.8       54     29.3      0.00      0.00      68.8     0.28      1016.6     0.8      SE   138   1.8      SE   138   9.52    264      -39.2
   11/10/2019 06:30      45.7      44.9       50     27.6      0.00      0.00      68.9     0.28      1016.6     0.4     SSE   149   1.4     SSE   150   9.52    264      -43.6
   11/10/2019 06:20      45.7      45.0       53     29.0      0.00      0.00      68.9     0.28      1016.5     0.0     NNW   335   0.4     NNW   331   9.52    264      -46.7
   11/10/2019 06:10      45.5      45.0       54     29.4      0.00      0.00      69.0     0.28      1016.5     0.2     SSE   150   0.8     SSE   157   9.52    264      -48.3
   11/10/2019 06:00      45.3      44.5       53     28.5      0.00      0.00      69.0     0.28      1016.5     0.7      SE   138   1.4      SE   142   9.52    264      -48.9
   11/10/2019 05:50      45.6      44.8       50     27.8      0.00      0.00      69.0     0.28      1016.6     0.6       S   173   1.8      SE   142   9.52    264      -49.0
   11/10/2019 05:40      45.6      44.9       53     29.2      0.00      0.00      69.1     0.28      1016.5     0.1     NNW   329   0.8     NNW   339   9.53    264      -48.6
   11/10/2019 05:30      45.7      45.3       52     28.8      0.00      0.00      69.1     0.28      1016.4     0.3     SSE   149   1.0      SE   144   9.53    264      -47.8
   11/10/2019 05:20      46.3      45.3       49     27.9      0.00      0.00      69.2     0.28      1016.3     0.3     SSE   161   1.3     SSE   153   9.53    264      -48.0
   11/10/2019 05:10      46.6      46.1       47     27.2      0.00      0.00      69.2     0.28      1016.4     0.3     SSE   157   1.0     SSE   156   9.53    264      -48.1
   11/10/2019 05:00      46.6      45.9       49     28.1      0.00      0.00      69.2     0.28      1016.3     0.2      SE   138   1.1     SSE   149   9.53    264      -48.5
   11/10/2019 04:50      47.0      46.5       47     27.4      0.00      0.00      69.3     0.28      1016.3     0.5     SSE   154   1.1      SE   146   9.53    264      -48.0
   11/10/2019 04:40      47.4      46.6       45     26.5      0.00      0.00      69.3     0.28      1016.4     0.3      SE   145   0.9     SSE   149   9.53    264      -49.1
   11/10/2019 04:30      47.3      46.8       44     26.4      0.00      0.00      69.3     0.28      1016.4     0.0       N     0   0.0     NNW   341   9.53    264      -49.0
   11/10/2019 04:20      48.0      47.0       46     27.4      0.00      0.00      69.3     0.28      1016.4     0.1      SE   145   1.1      SE   141   9.53    264      -49.3
   11/10/2019 04:10      48.6      47.7       43     26.6      0.00      0.00      69.4     0.28      1016.5     0.6     SSE   152   1.3     SSE   159   9.53    264      -49.4
   11/10/2019 04:00      48.5      47.9       42     26.2      0.00      0.00      69.4     0.28      1016.5     0.1     SSW   197   0.7      SW   219   9.53    264      -49.5
   11/10/2019 03:50      48.7      47.9       41     25.9      0.00      0.00      69.5     0.28      1016.5     0.0       N     0   0.0       N     0   9.53    264      -49.5
   11/10/2019 03:40      49.6      48.3       41     26.4      0.00      0.00      69.5     0.28      1016.5     0.0     SSE   147   0.4     SSE   147   9.53    264      -49.7
   11/10/2019 03:30      50.1      49.3       40     26.5      0.00      0.00      69.5     0.28      1016.5     0.3     SSE   157   1.1     SSE   151   9.53    264      -49.8
   11/10/2019 03:20      50.3      49.7       38     25.0      0.00      0.00      69.5     0.28      1016.5     0.0       N     0   0.0     SSE   160   9.53    264      -49.9
   11/10/2019 03:10      50.9      50.2       39     26.7      0.00      0.00      69.6     0.28      1016.5     0.1     SSE   166   0.6     SSE   168   9.53    263      -50.6
   11/10/2019 03:00      50.5      50.1       40     26.8      0.00      0.00      69.6     0.28      1016.5     0.5     SSE   149   1.6      SE   139   9.53    264      -50.5
   11/10/2019 02:50      50.4      50.0       40     26.9      0.00      0.00      69.6     0.28      1016.6     0.9     SSE   157   1.4     SSE   155   9.54    264      -50.4
   11/10/2019 02:40      51.1      50.0       39     26.5      0.00      0.00      69.6     0.28      1016.7     0.8     SSE   150   1.8      SE   144   9.54    263      -50.9
   11/10/2019 02:30      51.7      50.7       37     25.7      0.00      0.00      69.7     0.28      1016.7     0.9     SSE   160   2.0      SE   137   9.54    263      -50.4
   11/10/2019 02:20      51.9      51.4       38     26.6      0.00      0.00      69.7     0.28      1016.7     0.3     SSE   157   1.1     SSE   164   9.54    263      -50.9
   11/10/2019 02:10      52.4      51.5       37     26.1      0.00      0.00      69.7     0.28      1016.8     0.4     SSE   168   1.1     SSE   147   9.54    263      -51.3
   11/10/2019 02:00      52.4      51.7       35     24.9      0.00      0.00      69.7     0.28      1016.8     0.1     SSE   161   1.0     SSE   164   9.54    263      -51.3
   11/10/2019 01:50      53.0      51.8       34     25.0      0.00      0.00      69.7     0.28      1016.8     0.3       S   174   1.5     SSE   158   9.54    263      -52.1
   11/10/2019 01:40      53.7      52.5       34     25.0      0.00      0.00      69.7     0.28      1016.8     0.6      SE   144   1.9      SE   133   9.54    263      -52.2
   11/10/2019 01:30      54.0      53.1       33     25.0      0.00      0.00      69.8     0.28      1016.8     0.5       E    82   1.7      SE   134   9.54    263      -52.0
   11/10/2019 01:20      54.1      53.6       31     23.7      0.00      0.00      69.8     0.28      1016.7     0.4     SSE   157   2.1      SE   142   9.54    263      -52.6
   11/10/2019 01:10      54.1      53.6       31     24.1      0.00      0.00      69.8     0.28      1016.6     1.0       S   171   2.1       S   185   9.54    263      -51.1
   11/10/2019 01:00      54.0      53.4       33     24.8      0.00      0.00      69.8     0.28      1016.6     0.3     SSW   196   1.0     SSW   203   9.54    263      -51.2
   11/10/2019 00:50      53.8      53.0       33     25.4      0.00      0.00      69.9     0.28      1016.6     0.4      SE   130   1.3       E    88   9.54    263      -51.9
   11/10/2019 00:40      54.0      52.9       34     25.7      0.00      0.00      69.9     0.28      1016.5     0.9     SSE   157   1.7      SE   145   9.54    263      -52.5
   11/10/2019 00:30      54.6      53.6       33     25.9      0.00      0.00      69.9     0.28      1016.6     0.3       S   183   1.3     SSW   210   9.54    263      -53.9
   11/10/2019 00:20      54.1      53.0       35     26.1      0.00      0.00      69.9     0.28      1016.6     0.9      SW   224   2.5      SW   218   9.55    263      -54.3
   11/10/2019 00:10      54.3      52.9       33     25.0      0.00      0.00      69.9     0.28      1016.5     0.7     ENE    78   1.9      NE    35   9.55    263      -53.8
   11/10/2019 00:00      55.0      54.1       30     23.9      0.00      0.00      70.0     0.28      1016.4     0.5      SE   146   2.0      SE   133   9.55    262      -51.8
   11/09/2019 23:50      55.7      54.7       29     23.3      0.00      0.00      70.0     0.28      1016.5     0.7     SSE   162   1.7     SSE   150   9.55    262      -52.3
   11/09/2019 23:40      55.7      54.9       29     23.3      0.00      0.00      70.0     0.28      1016.5     0.8     SSW   202   2.5      SW   222   9.55    262      -53.1
   11/09/2019 23:30      56.2      55.1       29     23.6      0.00      0.00      70.0     0.28      1016.4     0.4      SW   222   1.4     WSW   242   9.55    262      -52.8
   11/09/2019 23:20      56.7      55.8       28     23.0      0.00      0.00      70.0     0.28      1016.5     0.3     SSE   165   1.0       S   176   9.55    262      -52.8
   11/09/2019 23:10      57.1      56.4       27     23.1      0.00      0.00      70.0     0.28      1016.5     0.1     SSE   161   1.0       S   169   9.55    262      -52.1
   11/09/2019 23:00      57.6      56.7       27     23.4      0.00      0.00      70.0     0.28      1016.6     0.8       S   170   2.0     SSW   200   9.55    262      -53.1
   11/09/2019 22:50      57.9      57.2       26     23.3      0.00      0.00      70.0     0.28      1016.6     0.2     SSE   168   0.9      SW   232   9.56    262      -53.5
   11/09/2019 22:40      58.0      57.2       26     22.5      0.00      0.00      70.0     0.28      1016.6     0.2       S   191   1.1     SSW   195   9.56    262      -53.3
   11/09/2019 22:30      58.3      57.2       27     23.7      0.00      0.00      70.0     0.28      1016.6     0.2      SE   145   1.0      SE   135   9.56    262      -55.1
   11/09/2019 22:20      58.6      57.9       28     25.1      0.00      0.00      70.0     0.28      1016.6     0.6       S   171   1.8       S   178   9.56    262      -55.1
   11/09/2019 22:10      59.2      58.4       25     22.7      0.00      0.00      70.0     0.28      1016.6     0.8     SSE   155   2.2      NE    46   9.56    262      -55.8
   11/09/2019 22:00      59.2      58.5       25     23.5      0.00      0.00      70.0     0.28      1016.6     0.6       S   182   1.8     SSW   198   9.56    262      -56.1
   11/09/2019 21:50      59.8      58.9       25     23.6      0.00      0.00      70.0     0.28      1016.6     0.3       S   173   1.3      SW   228   9.56    262      -56.9
   11/09/2019 21:40      60.8      59.5       25     24.2      0.00      0.00      70.0     0.28      1016.6     0.2     SSW   204   1.4       S   177   9.57    262      -58.0
   11/09/2019 21:30      61.5      60.6       24     23.7      0.00      0.00      70.0     0.28      1016.5     0.4     SSE   163   1.2     SSE   166   9.57    262      -58.5
   11/09/2019 21:20      62.4      61.2       24     24.2      0.00      0.00      70.0     0.28      1016.5     0.7      SE   145   2.7      SE   137   9.57    262      -60.1
   11/09/2019 21:10      62.6      61.4       24     24.9      0.00      0.00      70.0     0.28      1016.3     1.5     SSE   150   3.0      SE   137   9.57    262      -59.1
   11/09/2019 21:00      63.5      62.3       23     25.0      0.00      0.00      70.0     0.28      1016.3     1.3      SE   145   2.9      SE   138   9.57    262      -60.8
   11/09/2019 20:50      64.4      62.7       23     24.6      0.00      0.00      70.0     0.28      1016.3     1.1     SSE   155   2.5       S   179   9.57    262      -61.2
   11/09/2019 20:40      64.5      63.6       23     25.3      0.00      0.00      69.9     0.28      1016.3     1.5      SE   131   2.7      SE   138   9.57    262      -62.7
   11/09/2019 20:30      65.2      64.1       22     24.9      0.00      0.00      69.9     0.28      1016.2     1.2      SE   146   2.7       S   178   9.58    262      -63.4
   11/09/2019 20:20      66.4      65.0       21     24.8      0.00      0.00      69.9     0.28      1016.2     1.0      SE   139   2.4      SE   133   9.58    262      -63.9
   11/09/2019 20:10      66.8      65.7       21     24.8      0.00      0.00      69.9     0.28      1016.2     1.0      SE   138   1.9      SE   142   9.58    262      -64.0
   11/09/2019 20:00      71.5      66.6       17     23.4      0.00      0.00      69.8     0.28      1016.2     2.0       S   171   4.1      SW   214   9.58    261      -63.8
   11/09/2019 19:50      70.8      68.1       17     23.0      0.00      0.00      69.8     0.28      1016.1     2.7      SW   225   3.9     SSW   212   9.58    262      -64.4
   11/09/2019 19:40      70.8      68.8       17     23.3      0.00      0.00      69.8     0.28      1016.1     1.3      SW   214   3.7      SW   228   9.58    261      -65.8
   11/09/2019 19:30      72.0      70.5       16     22.9      0.00      0.00      69.8     0.28      1016.0     2.1      SW   218   3.7     WSW   249   9.59    261      -66.8
   11/09/2019 19:20      71.9      71.3       16     22.9      0.00      0.00      69.7     0.28      1015.9     2.2      SW   221   4.1      SW   232   9.59    261      -68.2
   11/09/2019 19:10      72.5      71.4       16     22.6      0.00      0.00      69.7     0.28      1015.9     1.9      SW   222   3.9     WSW   257   9.59    261      -68.2
   11/09/2019 19:00      72.5      71.9       15     22.0      0.00      0.00      69.7     0.28      1015.9     2.1      SW   215   4.1      SW   225   9.59    261      -68.4
   11/09/2019 18:50      72.6      72.2       15     22.0      0.00      0.00      69.6     0.28      1015.9     1.9     SSW   208   3.4      SW   230   9.59    261      -69.3
   11/09/2019 18:40      72.5      71.2       16     22.7      0.00      0.00      69.6     0.28      1015.9     2.2     SSW   204   4.3      SW   228   9.60    261      -70.1
   11/09/2019 18:30      73.4      71.7       15     22.3      0.00      0.00      69.5     0.28      1015.9     0.6     SSW   202   2.5     SSW   208   9.60    261      -69.5
   11/09/2019 18:20      74.5      73.2       15     22.8      0.00      0.00      69.5     0.28      1015.8     2.2     WSW   243   3.2       W   266   9.60    260      -73.1
   11/09/2019 18:10      74.4      73.8       15     23.2      0.00      0.00      69.4     0.28      1015.8     2.4       W   271   4.3       W   277   9.60    261      -73.4
   11/09/2019 18:00      74.4      73.9       15     23.8      0.00      0.00      69.4     0.28      1015.7     2.3       W   277   3.6       W   263   9.61    260      -73.2
   11/09/2019 17:50      75.0      73.8       16     25.1      0.00      0.00      69.3     0.28      1015.6     1.1     WNW   300   2.3     WNW   298   9.61    261      -73.2
   11/09/2019 17:40      76.4      74.8       16     26.1      0.00      0.00      69.3     0.28      1015.5     1.5       W   273   3.4     WNW   284   9.61    260      -74.9
   11/09/2019 17:30      77.7      76.2       15     25.5      0.00      0.00      69.2     0.28      1015.5     1.6     WNW   287   3.8      NW   307   9.61    260      -77.2
   11/09/2019 17:20      78.2      77.3       14     23.9      0.00      0.00      69.2     0.28      1015.5     2.6     WSW   252   4.0     WSW   243   9.62    260      -79.8
   11/09/2019 17:10      80.0      77.9       13     24.2      0.00      0.00      69.1     0.28      1015.4     2.5     WSW   240   4.3     WSW   257   9.62    260      -84.3
   11/09/2019 17:00      81.1      79.6       13     24.1      0.00      0.00      69.1     0.28      1015.3     2.4       W   279   5.7       W   270   9.62    260      -85.3
   11/09/2019 16:50      82.8      80.8       12     24.2      0.00      0.00      69.0     0.28      1015.2     2.3     WNW   302   4.9     WNW   290   9.63    260      -82.1
   11/09/2019 16:40      84.7      82.7        9     18.1      0.00      0.00      68.9     0.28      1015.0     1.9      NW   318   5.3       W   277   9.63    260      -74.7
   11/09/2019 16:30      85.8      84.5        8     15.9      0.00      0.00      68.8     0.28      1014.9     1.9     NNW   347   5.2      NE    45   9.63    259      -68.0
   11/09/2019 16:20      86.4      85.4        7     15.3      0.00      0.00      68.8     0.28      1014.8     2.6       N     5   6.1       N   352   9.64    259      -64.3
   11/09/2019 16:10      87.2      86.1        7     15.7      0.00      0.00      68.7     0.28      1014.7     2.5       N     3   5.5      NE    34   9.64    259      -21.0
   11/09/2019 16:00      87.5      86.7        7     16.3      0.00      0.00      68.7     0.28      1014.7     2.1       N   358   5.0      NW   317   9.64    259       -4.9
   11/09/2019 15:50      87.9      87.2        7     16.2      0.00      0.00      68.6     0.28      1014.7     2.2     NNW   342   4.6       N    10   9.65    259        7.7
   11/09/2019 15:40      87.9      87.2        7     15.5      0.00      0.00      68.6     0.28      1014.7     2.7       N   358   7.5       N     0   9.65    259       15.8
   11/09/2019 15:30      89.0      87.7        7     15.4      0.00      0.00      68.5     0.28      1014.7     2.7       N     8   6.0     NNE    29   9.65    259       28.4
   11/09/2019 15:20      90.0      88.8        7     15.5      0.00      0.00      68.5     0.28      1014.6     2.8       N     4   5.2       N     3   9.66    259       55.9
   11/09/2019 15:10      89.9      89.1        6     13.3      0.00      0.00      68.4     0.28      1014.7     2.0     NNW   344   4.7     NNW   334   9.66    259      100.0
   11/09/2019 15:00      90.0      89.6        6     13.5      0.00      0.00      68.4     0.28      1014.8     2.1     WNW   303   4.4       N   350   9.66    259      118.5
   11/09/2019 14:50      90.6      89.6        6     14.7      0.00      0.00      68.3     0.28      1014.9     2.1     NNW   342   5.7     NNW   331   9.66    259      111.5
   11/09/2019 14:40      91.3      90.3        6     13.6      0.00      0.00      68.2     0.28      1015.0     0.7     NNW   336   2.3       N     7   9.66    259       67.2
   11/09/2019 14:30      91.3      90.2        6     13.8      0.00      0.00      68.2     0.28      1015.1     1.1     WNW   293   3.2       N     8   9.67    259      130.7
   11/09/2019 14:20      91.0      90.3        6     15.2      0.00      0.00      68.2     0.28      1015.1     2.4     NNW   330   6.2     NNE    30   9.67    259      194.0
   11/09/2019 14:10      91.2      90.6        6     14.5      0.00      0.00      68.1     0.28      1015.2     1.7      NW   317   5.8       W   274   9.67    259      179.9
   11/09/2019 14:00      91.1      90.1        6     14.4      0.00      0.00      68.1     0.28      1015.3     1.5     ENE    61   5.4     NNW   329   9.67    259      211.6
   11/09/2019 13:50      91.6      90.8        6     15.7      0.00      0.00      68.1     0.28      1015.4     1.7       N   350   4.9     NNE    14   9.67    259      239.3
   11/09/2019 13:40      92.1      90.9        6     15.1      0.00      0.00      68.0     0.28      1015.4     2.0     WNW   298   6.9     WNW   291   9.67    259      260.5
   11/09/2019 13:30      92.8      91.2        6     15.3      0.00      0.00      68.0     0.28      1015.5     1.2      NE    41   2.9     WSW   246   9.68    259      272.4
   11/09/2019 13:20      92.7      89.9        6     15.1      0.00      0.00      68.0     0.28      1015.6     0.6     WSW   256   2.7       N   350   9.68    259      286.7
   11/09/2019 13:10      91.0      89.9        6     15.7      0.00      0.00      67.9     0.28      1015.8     1.8       N   356   3.9     WNW   289   9.68    259      299.3
   11/09/2019 13:00      90.9      90.2        6     15.3      0.00      0.00      67.9     0.28      1015.9     2.1     WNW   297   5.0     WSW   256   9.68    259      312.3
   11/09/2019 12:50      91.0      90.2        6     15.9      0.00      0.00      67.9     0.28      1016.0     2.8     WNW   303   6.8      NW   305   9.68    259      322.0
   11/09/2019 12:40      91.0      90.1        6     15.9      0.00      0.00      67.9     0.28      1016.2     2.2      NW   312   5.7       W   271   9.68    259      329.8
   11/09/2019 12:30      91.5      89.5        6     15.7      0.00      0.00      67.9     0.28      1016.3     2.8      SW   235   5.8       W   262   9.68    259      337.4
   11/09/2019 12:20      91.5      89.2        7     17.9      0.00      0.00      67.9     0.28      1016.5     1.2      SW   233   4.1       W   270   9.68    259      341.7
   11/09/2019 12:10      90.3      88.9        7     17.4      0.00      0.00      67.9     0.28      1016.6     2.3       N   349   4.5       N     3   9.68    259      348.2
   11/09/2019 12:00      90.7      89.6        7     17.4      0.00      0.00      67.9     0.28      1016.7     2.4     WNW   286   6.2      SW   231   9.68    259      352.9
   11/09/2019 11:50      89.9      88.2        7     17.5      0.00      0.00      67.9     0.28      1016.9     1.8       W   268   6.3     WNW   290   9.69    259      357.1
   11/09/2019 11:40      89.6      88.3        7     17.7      0.00      0.00      67.9     0.28      1017.1     2.8     WNW   283   5.8     WSW   258   9.69    259      359.5
   11/09/2019 11:30      89.9      88.2        7     16.4      0.00      0.00      67.9     0.28      1017.3     1.6      SW   235   5.4       W   260   9.69    259      358.1
   11/09/2019 11:20      89.4      88.7        7     17.2      0.00      0.00      67.9     0.28      1017.5     0.9     ENE    63   3.4     ESE   103   9.69    259      357.4
   11/09/2019 11:10      89.7      88.0        7     18.1      0.00      0.00      67.9     0.28      1017.6     1.1      NW   304   4.5     WSW   243   9.69    259      353.1
   11/09/2019 11:00      88.3      87.5        7     16.5      0.00      0.00      68.0     0.28      1017.8     1.0       W   263   4.2     WSW   256   9.69    259      348.4
   11/09/2019 10:50      88.0      87.5        8     19.8      0.00      0.00      68.0     0.28      1017.9     1.2       W   260   2.9     WSW   253   9.69    259      345.1
   11/09/2019 10:40      87.7      85.6        9     20.9      0.00      0.00      68.0     0.28      1018.0     0.2       N     4   2.7     NNE    23   9.69    259      336.8
   11/09/2019 10:30      85.8      85.4       10     22.7      0.00      0.00      68.0     0.28      1018.1     1.4      NW   313   2.8       N     4   9.69    259      332.4
   11/09/2019 10:20      86.1      84.7       10     22.4      0.00      0.00      68.1     0.28      1018.2     1.7       S   185   3.8       W   277   9.69    260      327.8
   11/09/2019 10:10      86.2      85.0       10     22.7      0.00      0.00      68.1     0.28      1018.2     0.7       S   169   2.5      SW   223   9.69    259      317.8
   11/09/2019 10:00      85.2      84.0       10     22.4      0.00      0.00      68.1     0.28      1018.3     0.7      NW   311   3.0     NNW   327   9.69    260      307.2
   11/09/2019 09:50      84.3      83.0       11     23.3      0.00      0.00      68.2     0.28      1018.4     0.6       N   359   1.5       N     4   9.69    260      296.0
   11/09/2019 09:40      83.7      82.3       11     23.4      0.00      0.00      68.2     0.28      1018.5     0.8     ENE    63   2.6     SSE   155   9.69    260      283.3
   11/09/2019 09:30      82.8      81.8       12     24.3      0.00      0.00      68.2     0.28      1018.6     1.3     ESE   102   2.5      SE   146   9.69    260      269.6
   11/09/2019 09:20      82.8      81.1       12     24.8      0.00      0.00      68.3     0.28      1018.6     0.6       E    99   1.8      NE    37   9.69    260      254.6
   11/09/2019 09:10      81.1      79.4       17     30.4      0.00      0.00      68.3     0.28      1018.6     0.6     NNE    24   1.8     NNE    23   9.69    260      240.0
   11/09/2019 09:00      80.0      76.8       16     28.3      0.00      0.00      68.4     0.28      1018.6     0.4     NNE    13   1.5     NNE    33   9.69    261      225.1
   11/09/2019 08:50      78.4      75.5       21     33.8      0.00      0.00      68.4     0.28      1018.7     0.9      NE    55   1.9     NNE    17   9.69    261      210.4
   11/09/2019 08:40      75.4      73.6       26     37.0      0.00      0.00      68.4     0.28      1018.7     0.3      NE    45   1.3     ENE    67   9.69    262      196.4
   11/09/2019 08:30      73.8      71.0       27     36.3      0.00      0.00      68.5     0.28      1018.7     0.2      NE    41   0.8      NE    52   9.69    261      179.9
   11/09/2019 08:20      71.4      68.7       29     36.2      0.00      0.00      68.5     0.28      1018.6     0.3      NE    40   1.2      NE    42   9.69    262      162.6
   11/09/2019 08:10      68.8      67.3       30     35.4      0.00      0.00      68.5     0.28      1018.6     0.4      NE    44   2.3      NE    55   9.69    262      145.5
   11/09/2019 08:00      67.6      65.3       30     34.2      0.00      0.00      68.6     0.28      1018.6     0.4      NE    37   1.6     NNE    23   9.69    262      128.7
   11/09/2019 07:50      66.3      64.8       29     32.9      0.00      0.00      68.6     0.28      1018.5     0.4     SSE   167   1.7       S   190   9.69    262       98.7
   11/09/2019 07:40      64.9      61.2       30     31.4      0.00      0.00      68.6     0.28      1018.4     0.0       E    99   1.0     ENE    73   9.69    264       47.6
   11/09/2019 07:30      61.1      58.7       32     30.5      0.00      0.00      68.7     0.28      1018.4     0.7     SSE   161   1.5     SSE   154   9.69    264       46.7
   11/09/2019 07:20      58.7      55.9       33     28.5      0.00      0.00      68.7     0.28      1018.3     1.1     SSE   154   2.7     SSW   205   9.69    264      -30.8
   11/09/2019 07:10      55.9      55.1       34     27.7      0.00      0.00      68.7     0.28      1018.2     1.7     SSW   207   3.7       S   183   9.69    264      -27.9
   11/09/2019 07:00      55.3      54.0       34     26.5      0.00      0.00      68.8     0.28      1018.1     0.5     SSE   151   1.8       S   174   9.69    264      -28.5
   11/09/2019 06:50      54.2      52.7       34     25.7      0.00      0.00      68.8     0.28      1018.1     0.6       S   186   1.8     SSE   150   9.69    264      -32.3
   11/09/2019 06:40      53.2      52.2       36     26.1      0.00      0.00      68.8     0.28      1018.0     0.7     SSE   169   1.9       S   175   9.69    264      -37.1
   11/09/2019 06:30      53.3      52.1       36     26.2      0.00      0.00      68.8     0.28      1017.9     0.4     SSE   156   2.0     NNE    15   9.69    264      -41.6
   11/09/2019 06:20      53.9      53.0       34     25.8      0.00      0.00      68.8     0.28      1017.8     0.6       S   174   1.6       S   179   9.70    264      -44.5
   11/09/2019 06:10      54.1      53.5       33     25.5      0.00      0.00      68.9     0.28      1017.8     0.4       E    83   1.2     NNE    13   9.70    264      -45.7
   11/09/2019 06:00      54.3      53.7       33     25.5      0.00      0.00      69.0     0.28      1017.7     0.7       S   170   1.9      SE   125   9.70    264      -45.9
   11/09/2019 05:50      54.8      54.0       32     25.5      0.00      0.00      69.0     0.28      1017.7     0.5     SSE   149   1.8       S   174   9.70    264      -46.2
   11/09/2019 05:40      54.8      54.5       32     25.3      0.00      0.00      69.0     0.28      1017.7     0.9     SSE   158   2.8       N     3   9.70    264      -46.7
   11/09/2019 05:30      54.9      54.1       33     25.7      0.00      0.00      69.0     0.28      1017.7     0.9       S   169   1.8     SSW   194   9.70    264      -46.7
   11/09/2019 05:20      55.3      53.8       33     25.9      0.00      0.00      69.1     0.28      1017.6     0.9     SSE   147   2.8     SSE   156   9.70    264      -46.4
   11/09/2019 05:10      54.7      53.8       33     26.0      0.00      0.00      69.1     0.28      1017.6     0.5      SE   146   1.4     WNW   301   9.70    264      -46.6
   11/09/2019 05:00      56.5      54.5       32     26.0      0.00      0.00      69.1     0.28      1017.6     0.6      SE   144   2.1      SE   135   9.70    264      -45.8
   11/09/2019 04:50      56.1      54.8       32     26.1      0.00      0.00      69.1     0.28      1017.5     1.1     SSE   148   2.7      SE   139   9.70    264      -45.2
   11/09/2019 04:40      55.1      54.0       33     26.1      0.00      0.00      69.2     0.28      1017.5     0.9      SE   141   1.7       E   101   9.70    264      -45.5
   11/09/2019 04:30      54.4      53.7       33     25.3      0.00      0.00      69.2     0.28      1017.5     0.8     SSW   194   1.9       S   185   9.70    264      -45.6
   11/09/2019 04:20      54.0      53.6       33     25.3      0.00      0.00      69.2     0.28      1017.5     0.3     SSW   212   1.6     SSE   165   9.70    264      -45.6
   11/09/2019 04:10      54.0      52.7       34     25.9      0.00      0.00      69.3     0.28      1017.5     0.6       S   186   1.6       S   191   9.70    263      -45.8
   11/09/2019 04:00      53.7      52.7       35     26.4      0.00      0.00      69.3     0.28      1017.5     0.8       S   191   2.1      SW   217   9.70    264      -47.2
   11/09/2019 03:50      54.1      53.2       34     26.2      0.00      0.00      69.3     0.28      1017.5     1.0      NE    41   2.9     SSW   194   9.70    264      -47.5
   11/09/2019 03:40      54.3      53.7       33     25.6      0.00      0.00      69.3     0.28      1017.5     0.7     SSW   203   1.4     SSW   211   9.70    263      -46.7
   11/09/2019 03:30      54.3      53.7       34     26.0      0.00      0.00      69.4     0.28      1017.5     0.5       S   178   1.3     SSW   197   9.70    264      -46.8
   11/09/2019 03:20      54.8      54.1       33     26.1      0.00      0.00      69.4     0.28      1017.5     0.2       S   180   1.5       S   175   9.71    263      -47.3
   11/09/2019 03:10      54.4      54.0       32     25.2      0.00      0.00      69.4     0.28      1017.5     0.6       S   190   1.9       S   191   9.71    264      -47.2
   11/09/2019 03:00      54.8      54.0       34     26.5      0.00      0.00      69.4     0.28      1017.6     0.5     SSE   163   1.4     SSW   195   9.71    264      -47.9
   11/09/2019 02:50      54.9      54.1       33     26.3      0.00      0.00      69.5     0.28      1017.7     1.4     SSE   163   3.8       S   180   9.71    264      -48.1
   11/09/2019 02:40      55.4      54.6       33     26.1      0.00      0.00      69.5     0.28      1017.8     1.0     NNE    23   2.8     NNE    21   9.71    264      -48.3
   11/09/2019 02:30      56.2      55.0       32     26.5      0.00      0.00      69.5     0.28      1017.8     0.5       S   169   1.9       N    10   9.71    263      -47.6
   11/09/2019 02:20      56.2      55.4       32     26.3      0.00      0.00      69.5     0.28      1017.8     0.6     SSE   160   1.3       S   184   9.71    263      -47.5
   11/09/2019 02:10      56.7      55.5       31     26.1      0.00      0.00      69.5     0.28      1017.9     0.7     SSE   164   1.9      SE   146   9.71    264      -47.5
   11/09/2019 02:00      57.0      55.6       32     26.7      0.00      0.00      69.6     0.28      1017.9     0.4       S   173   1.6       S   173   9.71    263      -47.5
   11/09/2019 01:50      56.2      55.5       33     26.9      0.00      0.00      69.6     0.28      1017.9     0.4     SSE   160   1.6     SSE   153   9.71    264      -47.4
   11/09/2019 01:40      55.7      54.9       33     26.4      0.00      0.00      69.6     0.28      1017.9     0.5       S   186   1.1     SSW   200   9.71    264      -47.3
   11/09/2019 01:30      56.0      55.3       34     27.7      0.00      0.00      69.6     0.28      1018.0     0.4       S   170   1.2     SSE   167   9.71    263      -48.1
   11/09/2019 01:20      56.0      55.5       34     27.6      0.00      0.00      69.6     0.28      1018.0     0.7     SSE   153   1.7       S   176   9.71    263      -48.6
   11/09/2019 01:10      56.7      55.8       32     26.8      0.00      0.00      69.7     0.28      1018.1     0.6       S   183   1.5       S   180   9.71    263      -49.7
   11/09/2019 01:00      56.5      55.1       33     27.0      0.00      0.00      69.7     0.28      1018.1     1.2     SSW   192   2.6     SSW   201   9.72    263      -49.5
   11/09/2019 00:50      55.7      54.9       34     27.7      0.00      0.00      69.7     0.28      1018.2     0.4     SSE   152   2.1       S   179   9.72    263      -50.4
   11/09/2019 00:40      55.9      55.0       35     28.0      0.00      0.00      69.7     0.28      1018.2     1.0       S   183   2.5      SW   220   9.72    263      -50.5
   11/09/2019 00:30      56.5      55.6       34     27.9      0.00      0.00      69.7     0.28      1018.3     0.8       S   169   1.9       S   175   9.72    263      -50.8
   11/09/2019 00:20      56.3      55.7       33     27.3      0.00      0.00      69.7     0.28      1018.4     1.2     SSE   161   2.8       S   189   9.72    263      -50.5
   11/09/2019 00:10      57.0      55.9       32     27.1      0.00      0.00      69.7     0.28      1018.4     0.9       S   172   2.8     SSW   191   9.72    263      -50.4
   11/09/2019 00:00      57.1      56.5       32     27.4      0.00      0.00      69.8     0.28      1018.5     0.3       S   172   1.8       S   181   9.72    263      -50.2
   11/08/2019 23:50      57.3      56.6       33     27.9      0.00      0.00      69.8     0.28      1018.6     0.6       S   176   1.8       S   186   9.72    263      -50.5
   11/08/2019 23:40      57.5      56.9       31     27.2      0.00      0.00      69.8     0.28      1018.6     0.5       S   188   2.1     SSW   193   9.72    263      -51.3
   11/08/2019 23:30      58.1      57.0       33     28.4      0.00      0.00      69.8     0.28      1018.7     0.6     SSE   155   1.6       S   171   9.72    263      -51.2
   11/08/2019 23:20      58.7      57.8       31     27.7      0.00      0.00      69.8     0.28      1018.8     1.1     SSE   166   3.1       S   188   9.73    263      -51.8
   11/08/2019 23:10      58.4      57.8       30     27.0      0.00      0.00      69.8     0.28      1018.9     1.1       S   185   3.1     SSW   192   9.73    263      -51.8
   11/08/2019 23:00      58.6      58.1       30     27.3      0.00      0.00      69.8     0.28      1018.9     0.4       S   187   1.9       S   179   9.73    263      -52.0
   11/08/2019 22:50      59.6      58.4       31     28.5      0.00      0.00      69.8     0.28      1019.0     0.3       S   174   1.3       N     0   9.73    263      -51.7
   11/08/2019 22:40      59.7      58.9       31     28.5      0.00      0.00      69.8     0.28      1019.0     0.6     SSE   160   1.6     SSE   149   9.73    263      -50.9
   11/08/2019 22:30      60.0      58.9       30     28.3      0.00      0.00      69.8     0.28      1019.0     0.6     SSE   168   1.4     SSE   151   9.73    263      -51.1
   11/08/2019 22:20      60.0      59.6       29     27.4      0.00      0.00      69.8     0.28      1019.1     0.4     SSE   159   1.2     SSE   153   9.73    263      -51.8
   11/08/2019 22:10      59.8      59.1       30     27.7      0.00      0.00      69.8     0.28      1019.1     0.5       S   178   1.2       S   177   9.73    263      -53.1
   11/08/2019 22:00      61.3      59.5       29     27.9      0.00      0.00      69.8     0.28      1019.1     0.7       S   176   2.2       N     0   9.73    262      -53.0
   11/08/2019 21:50      61.5      60.9       28     27.6      0.00      0.00      69.8     0.28      1019.2     0.5     SSE   155   1.6     SSE   161   9.74    262      -53.0
   11/08/2019 21:40      61.7      61.0       27     27.4      0.00      0.00      69.8     0.28      1019.2     0.7       S   171   2.2       S   182   9.74    263      -52.8
   11/08/2019 21:30      62.0      61.3       28     28.1      0.00      0.00      69.8     0.28      1019.3     0.7     SSE   162   1.7      SE   139   9.74    263      -52.9
   11/08/2019 21:20      62.1      61.5       28     28.1      0.00      0.00      69.8     0.28      1019.2     0.7     SSE   168   1.8      SE   136   9.74    262      -53.9
   11/08/2019 21:10      62.8      61.8       27     27.7      0.00      0.00      69.8     0.28      1019.1     0.3     SSE   160   1.5     SSE   165   9.74    262      -54.8
   11/08/2019 21:00      63.6      62.5       27     28.3      0.00      0.00      69.7     0.28      1019.0     0.2     SSE   150   1.0      SE   137   9.74    262      -55.1
   11/08/2019 20:50      64.1      63.3       26     28.4      0.00      0.00      69.7     0.28      1019.0     1.1     SSE   155   2.0     SSE   153   9.74    262      -54.3
   11/08/2019 20:40      64.7      63.8       26     28.3      0.00      0.00      69.7     0.28      1018.9     0.9     SSE   158   1.4      SE   136   9.74    262      -55.2
   11/08/2019 20:30      65.2      64.3       25     28.3      0.00      0.00      69.7     0.28      1018.9     1.1      SE   142   2.4     SSE   147   9.75    262      -56.1
   11/08/2019 20:20      65.7      64.7       25     28.3      0.00      0.00      69.7     0.28      1018.9     1.7     SSE   148   3.0      SE   138   9.75    262      -56.5
   11/08/2019 20:10      65.7      64.8       25     28.8      0.00      0.00      69.7     0.28      1018.8     1.2     SSE   151   2.4      SE   138   9.75    262      -56.4
   11/08/2019 20:00      66.9      65.5       25     29.1      0.00      0.00      69.6     0.28      1018.8     0.9      SE   143   1.7       S   172   9.75    262      -57.8
   11/08/2019 19:50      66.8      65.7       25     29.3      0.00      0.00      69.6     0.28      1018.7     2.0      SE   144   3.0      SE   137   9.75    262      -58.1
   11/08/2019 19:40      66.9      66.1       24     29.0      0.00      0.00      69.5     0.28      1018.7     1.2      SE   145   2.4      SE   136   9.76    262      -58.2
   11/08/2019 19:30      66.6      65.9       25     29.1      0.00      0.00      69.5     0.28      1018.7     1.3     SSE   147   2.3      SE   138   9.76    262      -58.4
   11/08/2019 19:20      67.7      65.9       25     29.4      0.00      0.00      69.5     0.28      1018.6     1.2     SSE   155   1.9      SE   134   9.76    262      -59.5
   11/08/2019 19:10      69.5      67.4       23     29.0      0.00      0.00      69.4     0.28      1018.6     1.3      SE   145   2.2      SE   138   9.76    262      -61.3
   11/08/2019 19:00      69.8      68.8       21     27.6      0.00      0.00      69.4     0.28      1018.6     1.5      SE   146   3.6     SSW   196   9.76    262      -61.3
   11/08/2019 18:50      69.7      68.5       21     27.7      0.00      0.00      69.3     0.28      1018.5     1.8       S   185   4.2      SW   232   9.77    261      -61.6
   11/08/2019 18:40      69.3      68.2       22     28.7      0.00      0.00      69.3     0.28      1018.4     1.6      SE   143   3.4       S   179   9.77    262      -63.0
   11/08/2019 18:30      69.5      68.7       22     28.3      0.00      0.00      69.3     0.28      1018.4     1.5     SSE   155   2.9      SE   140   9.77    261      -63.7
   11/08/2019 18:20      70.0      69.0       21     28.0      0.00      0.00      69.2     0.28      1018.3     1.7     SSE   150   2.8      SE   141   9.77    261      -64.5
   11/08/2019 18:10      71.1      69.8       20     27.9      0.00      0.00      69.1     0.28      1018.3     1.5     SSE   152   2.0     SSE   147   9.78    261      -65.1
   11/08/2019 18:00      72.5      71.1       18     26.7      0.00      0.00      69.1     0.28      1018.1     1.2     SSE   151   2.3      SE   143   9.78    261      -66.0
   11/08/2019 17:50      73.0      71.8       18     26.7      0.00      0.00      69.0     0.28      1018.1     1.2     SSE   157   2.1      SE   142   9.78    261      -67.1
   11/08/2019 17:40      75.4      72.8       17     26.9      0.00      0.00      69.0     0.28      1017.9     1.1     SSE   152   2.7      SE   138   9.79    261      -69.4
   11/08/2019 17:30      77.9      75.1       15     24.4      0.00      0.00      69.0     0.28      1017.8     1.3       S   184   2.5     WSW   243   9.79    261      -70.2
   11/08/2019 17:20      80.7      77.7       12     23.1      0.00      0.00      68.9     0.28      1017.7     0.5     SSE   163   2.1     NNE    23   9.79    261      -73.4
   11/08/2019 17:10      82.4      80.7       11     22.7      0.00      0.00      68.8     0.28      1017.6     0.7       W   274   1.7      SW   228   9.80    260      -76.0
   11/08/2019 17:00      83.2      82.0       11     22.9      0.00      0.00      68.8     0.28      1017.5     0.8      NW   315   2.4     NNW   342   9.80    260      -76.7
   11/08/2019 16:50      84.1      82.9       11     22.9      0.00      0.00      68.7     0.28      1017.4     1.2      NW   318   3.3     NNE    17   9.80    260      -75.3
   11/08/2019 16:40      85.0      83.8       10     22.7      0.00      0.00      68.6     0.28      1017.4     1.3      NW   307   2.9     NNW   333   9.80    260      -73.3
   11/08/2019 16:30      85.8      84.6       10     23.1      0.00      0.00      68.6     0.28      1017.4     2.0     NNW   328   5.2     NNW   340   9.81    260      -71.1
   11/08/2019 16:20      86.8      85.5       10     23.1      0.00      0.00      68.5     0.28      1017.3     1.6      NW   319   5.0       N     8   9.81    260      -67.8
   11/08/2019 16:10      87.6      86.5       10     22.9      0.00      0.00      68.5     0.28      1017.3     1.4     NNW   330   5.8       N     6   9.82    260      -28.4
   11/08/2019 16:00      88.0      87.3        9     22.7      0.00      0.00      68.4     0.28      1017.3     1.8     NNW   334   4.4     ENE    68   9.82    260      -14.5
   11/08/2019 15:50      88.4      87.6        9     22.5      0.00      0.00      68.4     0.28      1017.3     2.1      NW   322   4.6     NNW   332   9.82    260        7.4
   11/08/2019 15:40      89.0      88.0        9     22.3      0.00      0.00      68.3     0.28      1017.3     2.8     NNW   331   5.9      NW   305   9.83    260       28.8
   11/08/2019 15:30      90.1      88.8        9     22.7      0.00      0.00      68.3     0.28      1017.3     2.2     NNW   333   4.6       N     7   9.83    260       49.6
   11/08/2019 15:20      90.6      89.8        9     22.5      0.00      0.00      68.2     0.28      1017.3     2.2     WNW   300   5.5      NW   304   9.83    260       71.8
   11/08/2019 15:10      90.6      90.1        9     23.1      0.00      0.00      68.1     0.28      1017.3     2.2      NW   305   4.1       N   349   9.83    260       95.1
   11/08/2019 15:00      90.7      89.9        9     22.6      0.00      0.00      68.1     0.28      1017.2     3.2     WNW   287   6.1       W   276   9.84    260      119.6
   11/08/2019 14:50      90.6      89.6        9     22.8      0.00      0.00      68.0     0.28      1017.3     3.2     SSW   196   9.8       W   266   9.84    259      140.4
   11/08/2019 14:40      90.7      89.9        9     23.5      0.00      0.00      68.0     0.28      1017.3     2.1      SE   132   5.5     SSE   153   9.84    259      161.1
   11/08/2019 14:30      91.4      90.1        8     21.8      0.00      0.00      67.9     0.28      1017.4     2.8      SW   225   4.7     SSW   204   9.85    259      181.1
   11/08/2019 14:20      91.9      90.4        8     22.4      0.00      0.00      67.9     0.28      1017.5     1.5     SSW   197   5.6     WSW   237   9.85    259      197.1
   11/08/2019 14:10      91.7      90.4        8     21.8      0.00      0.00      67.8     0.28      1017.6     1.9     WSW   252   4.4      SW   230   9.85    259      215.7
   11/08/2019 14:00      92.2      91.0        8     22.5      0.00      0.00      67.8     0.28      1017.7     2.0      NW   316   5.2      NW   319   9.85    259      232.0
   11/08/2019 13:50      92.0      91.1        8     22.6      0.00      0.00      67.8     0.28      1017.8     1.4     WNW   301   3.6     WNW   289   9.86    259      246.8
   11/08/2019 13:40      91.8      90.7        8     22.8      0.00      0.00      67.8     0.28      1017.9     1.6     NNW   333   5.7     NNW   343   9.86    259      263.7
   11/08/2019 13:30      91.5      90.4        8     22.4      0.00      0.00      67.7     0.28      1017.9     1.6     NNW   346   4.8       N    10   9.86    259      277.0
   11/08/2019 13:20      90.7      90.2        8     22.5      0.00      0.00      67.7     0.28      1018.1     1.7     NNE    18   4.2     NNE    19   9.86    259      289.9
   11/08/2019 13:10      90.5      89.6        9     22.7      0.00      0.00      67.7     0.28      1018.2     2.4      NW   317   5.7     WSW   257   9.86    259      303.6
   11/08/2019 13:00      90.5      89.6        9     23.3      0.00      0.00      67.7     0.28      1018.4     1.9      NE    46   3.8      NE    53   9.86    260      314.7
   11/08/2019 12:50      91.3      89.9        9     23.5      0.00      0.00      67.7     0.28      1018.5     2.1     NNE    27   4.3      NE    44   9.86    259      324.1
   11/08/2019 12:40      90.8      90.1        9     22.6      0.00      0.00      67.6     0.28      1018.7     1.1     NNW   341   4.3       W   265   9.86    259      334.1
   11/08/2019 12:30      90.7      89.4        9     23.1      0.00      0.00      67.6     0.28      1018.9     1.4      NW   316   5.0     NNE    26   9.87    259      343.0
   11/08/2019 12:20      90.1      89.1        9     23.0      0.00      0.00      67.6     0.28      1019.0     3.1     WSW   252   7.1       W   260   9.87    260      350.8
   11/08/2019 12:10      90.2      88.9        9     23.0      0.00      0.00      67.6     0.28      1019.2     2.1     NNE    21   4.7      NE    54   9.87    260      352.6
   11/08/2019 12:00      90.3      89.6        9     22.9      0.00      0.00      67.6     0.28      1019.5     1.6     NNW   342   4.1     NNE    25   9.87    260      357.3
   11/08/2019 11:50      89.8      88.8        9     22.9      0.00      0.00      67.6     0.28      1019.6     1.6       N   355   5.8       N   350   9.87    260      358.9
   11/08/2019 11:40      89.1      88.5        9     22.3      0.00      0.00      67.6     0.28      1019.8     1.7       N   349   4.2       W   269   9.87    260      362.3
   11/08/2019 11:30      88.9      88.0        9     22.7      0.00      0.00      67.6     0.28      1019.9     2.0       N    10   5.2      NW   323   9.87    260      362.8
   11/08/2019 11:20      88.6      87.7        9     22.4      0.00      0.00      67.7     0.28      1020.1     1.9     NNW   328   5.1     NNW   340   9.87    260      361.7
   11/08/2019 11:10      88.7      87.5        9     22.5      0.00      0.00      67.7     0.28      1020.3     1.0      NW   326   4.6       N   355   9.87    261      358.2
   11/08/2019 11:00      87.8      86.9       10     24.8      0.00      0.00      67.7     0.28      1020.4     1.1       N     3   4.1     NNE    33   9.87    261      354.8
   11/08/2019 10:50      87.2      84.5       12     27.0      0.00      0.00      67.8     0.28      1020.5     1.2     WNW   301   2.9       N     0   9.87    261      351.8
   11/08/2019 10:40      85.4      84.5       12     26.8      0.00      0.00      67.8     0.28      1020.5     2.7      NW   323   5.3       W   265   9.87    261      347.5
   11/08/2019 10:30      85.3      83.9       12     27.1      0.00      0.00      67.8     0.28      1020.6     1.0      NW   314   2.6     WNW   303   9.87    261      339.9
   11/08/2019 10:20      84.2      83.4       12     26.8      0.00      0.00      67.9     0.28      1020.7     1.9     WNW   282   4.4       W   262   9.87    261      332.4
   11/08/2019 10:10      83.7      82.4       13     26.5      0.00      0.00      67.9     0.28      1020.8     1.2      NW   307   3.6       N   355   9.87    261      325.1
   11/08/2019 10:00      82.8      82.1       13     26.0      0.00      0.00      67.9     0.28      1020.9     2.0     WNW   287   4.4     WSW   254   9.87    261      316.4
   11/08/2019 09:50      82.8      81.8       13     26.6      0.00      0.00      68.0     0.28      1020.9     1.5       W   275   4.3       W   271   9.87    261      304.0
   11/08/2019 09:40      81.7      80.3       13     26.2      0.00      0.00      67.9     0.28      1021.0     1.5       W   270   4.4     WSW   256   9.87    261      292.7
   11/08/2019 09:30      80.8      79.3       15     29.2      0.00      0.00      68.0     0.28      1021.0     1.7      SW   229   3.7       W   269   9.87    262      278.8
   11/08/2019 09:20      79.5      76.0       24     37.1      0.00      0.00      68.1     0.28      1021.0     0.6     SSW   210   3.8      SW   234   9.87    263      263.1
   11/08/2019 09:10      76.2      73.8       33     43.5      0.00      0.00      68.1     0.28      1021.1     0.6      NE    37   1.2       N   349   9.87    264      247.2
   11/08/2019 09:00      74.0      72.1       36     45.2      0.00      0.00      68.2     0.28      1021.1     0.3      NE    36   1.1       N    10   9.87    264      231.2
   11/08/2019 08:50      72.2      69.6       38     43.9      0.00      0.00      68.2     0.28      1021.1     0.2      NE    42   0.7      NE    52   9.87    264      217.3
   11/08/2019 08:40      69.8      67.9       40     43.4      0.00      0.00      68.3     0.28      1021.1     0.2      NE    37   1.1      NE    34   9.87    264      201.6
   11/08/2019 08:30      68.0      66.3       42     43.2      0.00      0.00      68.3     0.28      1021.1     0.5      NE    40   1.4     NNE    16   9.87    265      183.7
   11/08/2019 08:20      66.5      63.7       45     42.9      0.00      0.00      68.3     0.28      1021.1     0.2     NNE    33   1.0     NNE    20   9.87    265      169.1
   11/08/2019 08:10      63.8      62.2       48     43.1      0.00      0.00      68.4     0.28      1021.1     0.2      NE    52   0.8      NE    42   9.87    266      164.2
   11/08/2019 08:00      62.3      60.2       52     43.3      0.00      0.00      68.4     0.28      1021.1     0.2     ENE    64   1.3     NNE    24   9.87    266      184.6
   11/08/2019 07:50      60.4      57.7       57     44.1      0.00      0.00      68.4     0.28      1021.0     0.0     NNE    33   1.1     NNE    29   9.87    301      159.1
   11/08/2019 07:40      57.9      55.2       61     43.3      0.00      0.00      68.5     0.28      1021.0     0.0       N     0   0.0     ESE   103   9.87    312       93.7
   11/08/2019 07:30      55.2      52.8       68     43.4      0.00      0.00      68.5     0.28      1021.0     0.0       S   183   0.9       S   183   9.87    319      111.2
   11/08/2019 07:20      52.9      50.3       74     43.3      0.00      0.00      68.5     0.28      1020.9     0.1       S   178   0.9       S   183   9.87    335       21.5
   11/08/2019 07:10      50.4      47.7       82     43.6      0.00      0.00      68.6     0.28      1020.9     0.4     SSE   154   1.7       S   190   9.87    344       16.6
   11/08/2019 07:00      47.8      47.0       86     43.2      0.00      0.00      68.6     0.28      1020.8     0.4       S   178   1.7     SSW   192   9.87    352       13.7
   11/08/2019 06:50      47.5      46.9       88     43.7      0.00      0.00      68.6     0.28      1020.7     0.4     SSE   154   1.4     SSE   154   9.87    354        8.8
   11/08/2019 06:40      47.2      46.5       88     43.5      0.00      0.00      68.7     0.28      1020.6     0.4     SSE   160   1.2     SSE   152   9.87    355        3.9
   11/08/2019 06:30      47.1      46.4       88     43.4      0.00      0.00      68.7     0.28      1020.5     0.0     SSE   158   0.8     SSE   156   9.87    352       -1.1
   11/08/2019 06:20      47.1      46.4       88     43.5      0.00      0.00      68.7     0.28      1020.5     0.2     SSE   163   1.1     SSE   163   9.87    350       -5.0
   11/08/2019 06:10      47.1      46.4       88     43.4      0.00      0.00      68.8     0.28      1020.5     0.1     SSE   154   0.8      SE   145   9.87    346       -7.2
   11/08/2019 06:00      47.1      46.7       88     43.5      0.00      0.00      68.8     0.28      1020.4     0.4       S   182   1.6     SSW   198   9.87    342       -7.3
   11/08/2019 05:50      47.4      46.8       88     43.7      0.00      0.00      68.8     0.28      1020.4     0.5      SE   146   1.2     SSE   161   9.88    341       -7.6
   11/08/2019 05:40      47.2      46.9       88     43.7      0.00      0.00      68.8     0.28      1020.3     0.3       S   170   1.0       S   189   9.88    341       -8.4
   11/08/2019 05:30      47.5      46.8       88     43.8      0.00      0.00      68.9     0.28      1020.3     0.1       S   177   0.8     SSW   198   9.88    334       -8.6
   11/08/2019 05:20      47.7      46.8       88     43.9      0.00      0.00      68.9     0.28      1020.3     0.1       S   182   1.1       S   178   9.88    333       -8.8
   11/08/2019 05:10      47.8      47.2       88     44.2      0.00      0.00      69.0     0.28      1020.2     0.7       S   184   2.3     SSW   192   9.88    330       -8.9
   11/08/2019 05:00      48.3      47.4       88     44.4      0.00      0.00      69.0     0.28      1020.1     0.7       S   183   2.2     SSW   195   9.88    328       -9.1
   11/08/2019 04:50      48.1      47.0       88     44.1      0.00      0.00      69.0     0.28      1020.0     0.6     SSW   206   2.1     SSW   212   9.88    324       -9.9
   11/08/2019 04:40      48.0      47.5       88     44.4      0.00      0.00      69.0     0.28      1019.9     0.3     SSE   164   1.4     SSW   211   9.88    319      -10.4
   11/08/2019 04:30      48.3      47.5       87     44.2      0.00      0.00      69.1     0.28      1019.9     0.1       S   190   0.8       S   190   9.88    313      -10.8
   11/08/2019 04:20      48.6      47.8       87     44.5      0.00      0.00      69.1     0.28      1019.9     0.5     SSE   158   1.0     SSE   150   9.88    310      -11.2
   11/08/2019 04:10      48.6      48.1       87     44.8      0.00      0.00      69.1     0.28      1020.0     0.2     SSE   159   1.0     SSE   159   9.88    307      -12.2
   11/08/2019 04:00      48.7      48.3       87     44.8      0.00      0.00      69.1     0.28      1019.9     0.0     SSE   153   0.8     SSE   153   9.88    303      -13.1
   11/08/2019 03:50      49.2      48.5       87     45.2      0.00      0.00      69.2     0.28      1019.8     0.4     SSE   155   1.1     SSE   147   9.88    297      -14.2
   11/08/2019 03:40      49.0      48.5       87     44.9      0.00      0.00      69.2     0.28      1019.8     0.1       S   181   0.8       S   181   9.88    292      -16.1
   11/08/2019 03:30      48.9      48.5       87     44.9      0.00      0.00      69.2     0.28      1019.8     0.2     SSE   155   1.0     SSE   153   9.88    286      -17.8
   11/08/2019 03:20      49.0      48.5       87     45.0      0.00      0.00      69.2     0.28      1019.8     0.2       S   179   1.0       S   183   9.88    281      -19.5
   11/08/2019 03:10      49.1      48.5       86     44.8      0.00      0.00      69.3     0.28      1019.8     0.5     SSE   156   1.4     SSE   149   9.88    277      -21.3
   11/08/2019 03:00      49.7      48.6       86     45.2      0.00      0.00      69.3     0.28      1019.8     0.4     SSE   164   1.2      SE   142   9.88    271      -23.2
   11/08/2019 02:50      49.5      49.3       85     45.2      0.00      0.00      69.3     0.28      1019.9     0.0       N     0   0.0       S   179   9.88    264      -26.9
   11/08/2019 02:40      50.0      49.3       85     45.1      0.00      0.00      69.3     0.28      1019.9     0.2     SSE   149   1.5      SE   140   9.88    257      -29.7
   11/08/2019 02:30      50.2      49.8       85     45.7      0.00      0.00      69.3     0.28      1019.9     0.7       S   174   1.4     SSW   202   9.88    255      -31.1
   11/08/2019 02:20      50.0      49.5       85     45.3      0.00      0.00      69.3     0.28      1020.0     0.1     SSE   168   0.7       S   171   9.88    254      -36.1
   11/08/2019 02:10      51.0      49.7       84     45.6      0.00      0.00      69.4     0.28      1020.0     0.0      SE   137   0.6     SSE   149   9.88    250      -38.0
   11/08/2019 02:00      51.0      50.6       85     46.4      0.00      0.00      69.4     0.28      1020.0     0.2       S   172   1.1       S   189   9.89    242      -40.0
   11/08/2019 01:50      51.8      50.7       84     46.5      0.00      0.00      69.4     0.28      1020.0     0.3      SE   143   0.8     SSE   149   9.89    238      -44.4
   11/08/2019 01:40      51.7      51.1       83     46.4      0.00      0.00      69.4     0.28      1020.0     0.5       S   186   1.3     SSW   195   9.89    236      -46.1
   11/08/2019 01:30      52.5      51.4       82     46.4      0.00      0.00      69.5     0.28      1020.0     0.4      SE   144   1.8      SE   142   9.89    242      -48.1
   11/08/2019 01:20      53.0      52.2       81     47.0      0.00      0.00      69.5     0.28      1020.1     0.3     SSE   153   0.9     SSE   151   9.89    249      -47.0
   11/08/2019 01:10      53.3      52.5       80     46.9      0.00      0.00      69.5     0.28      1020.2     0.0     NNE    23   0.7     NNE    27   9.89    247      -48.6
   11/08/2019 01:00      53.3      52.9       81     47.3      0.00      0.00      69.5     0.28      1020.2     1.0      SE   140   1.8      SE   137   9.89    249      -48.9
   11/08/2019 00:50      54.1      53.2       80     47.5      0.00      0.00      69.6     0.28      1020.2     0.6     SSE   150   1.6      SE   143   9.89    256      -48.4
   11/08/2019 00:40      54.3      53.6       77     46.9      0.00      0.00      69.6     0.28      1020.3     0.3     SSE   168   0.8     SSE   146   9.89    259      -49.3
   11/08/2019 00:30      54.3      53.8       74     45.9      0.00      0.00      69.6     0.28      1020.3     0.6     SSE   157   1.6      SE   141   9.89    264      -51.1
   11/08/2019 00:20      54.6      53.9       73     45.7      0.00      0.00      69.6     0.28      1020.4     0.6     SSE   168   1.4     SSW   197   9.89    266      -51.8
   11/08/2019 00:10      54.5      53.8       73     45.5      0.00      0.00      69.6     0.28      1020.5     1.1     SSE   163   1.8     SSE   147   9.89    267      -51.8
   11/08/2019 00:00      54.9      54.2       74     46.6      0.00      0.00      69.6     0.28      1020.6     0.9     SSE   153   1.8      SE   144   9.89    265      -51.8
   11/07/2019 23:50      57.0      54.6       71     46.7      0.00      0.00      69.6     0.28      1020.7     1.3      SE   146   2.2      SE   144   9.89    265      -52.1
   11/07/2019 23:40      56.9      55.1       74     48.0      0.00      0.00      69.7     0.28      1020.7     1.4     WSW   250   2.9     WSW   252   9.89    265      -51.4
   11/07/2019 23:30      55.3      54.7       72     46.0      0.00      0.00      69.7     0.28      1020.8     0.8      SW   227   1.8      SW   234   9.89    264      -52.7
   11/07/2019 23:20      55.1      53.8       71     44.9      0.00      0.00      69.7     0.28      1020.8     1.8     SSW   208   3.7      SW   231   9.89    267      -52.1
   11/07/2019 23:10      54.7      54.1       69     44.4      0.00      0.00      69.7     0.28      1020.8     0.3      SW   236   1.5       W   274   9.90    266      -51.8
   11/07/2019 23:00      54.9      54.5       69     44.6      0.00      0.00      69.7     0.28      1020.7     0.3      SE   139   1.4      SE   137   9.90    266      -52.2
   11/07/2019 22:50      54.9      54.4       68     44.4      0.00      0.00      69.7     0.28      1020.6     0.6     SSE   160   1.1      SE   142   9.90    266      -51.9
   11/07/2019 22:40      54.9      54.5       66     43.6      0.00      0.00      69.7     0.28      1020.6     0.5     SSE   153   1.1       S   177   9.90    266      -52.5
   11/07/2019 22:30      55.4      54.6       65     43.3      0.00      0.00      69.7     0.28      1020.5     0.3     SSE   163   0.9     SSE   163   9.90    266      -53.2
   11/07/2019 22:20      55.5      55.0       64     43.2      0.00      0.00      69.7     0.28      1020.4     1.3      SE   140   2.1      SE   138   9.90    266      -54.0
   11/07/2019 22:10      55.5      54.9       65     43.6      0.00      0.00      69.7     0.28      1020.3     0.4     SSE   154   1.0      SE   142   9.90    267      -53.3
   11/07/2019 22:00      55.9      54.9       64     43.5      0.00      0.00      69.7     0.28      1020.3     0.5      SE   144   1.6      SE   142   9.90    266      -53.7
   11/07/2019 21:50      56.3      55.4       65     44.0      0.00      0.00      69.7     0.28      1020.2     0.6       S   170   1.2       S   176   9.90    266      -53.7
   11/07/2019 21:40      56.7      55.9       65     44.7      0.00      0.00      69.7     0.28      1020.1     0.6     SSE   151   1.6      SE   142   9.90    266      -53.7
   11/07/2019 21:30      57.8      56.4       65     45.5      0.00      0.00      69.7     0.28      1020.1     0.5     SSE   155   1.4      SE   143   9.91    266      -53.8
   11/07/2019 21:20      58.0      57.4       65     46.1      0.00      0.00      69.7     0.28      1020.0     0.4     SSE   159   0.9     SSE   147   9.91    266      -53.5
   11/07/2019 21:10      58.3      57.3       66     46.4      0.00      0.00      69.6     0.28      1020.0     0.4     SSE   162   1.0     SSE   151   9.91    266      -54.6
   11/07/2019 21:00      58.5      57.9       66     46.7      0.00      0.00      69.6     0.28      1019.9     0.5     SSE   149   1.2     SSE   148   9.91    266      -54.6
   11/07/2019 20:50      58.8      58.1       65     46.8      0.00      0.00      69.6     0.28      1019.9     0.6     SSE   151   1.2      SE   146   9.91    266      -55.2
   11/07/2019 20:40      59.8      58.6       63     46.8      0.00      0.00      69.6     0.28      1019.7     0.5     SSE   162   1.2       S   174   9.91    266      -55.2
   11/07/2019 20:30      60.2      59.5       61     46.6      0.00      0.00      69.6     0.28      1019.6     0.8       S   177   2.0      SW   218   9.91    266      -55.2
   11/07/2019 20:20      60.6      59.7       61     46.5      0.00      0.00      69.5     0.28      1019.5     0.5     SSW   201   2.3     SSW   207   9.91    266      -55.6
   11/07/2019 20:10      60.9      60.3       60     46.8      0.00      0.00      69.5     0.28      1019.4     0.4     ESE   117   1.0     ESE   112   9.91    266      -56.9
   11/07/2019 20:00      61.2      60.3       60     46.5      0.00      0.00      69.5     0.28      1019.3     0.8     SSE   161   1.8     SSW   200   9.92    266      -56.5
   11/07/2019 19:50      61.9      60.8       58     46.3      0.00      0.00      69.5     0.28      1019.3     0.6      SE   141   1.7     SSE   161   9.92    266      -57.7
   11/07/2019 19:40      62.6      61.6       56     46.0      0.00      0.00      69.5     0.28      1019.3     0.5     SSE   168   1.2     SSE   161   9.92    266      -57.6
   11/07/2019 19:30      63.3      62.4       54     45.8      0.00      0.00      69.4     0.28      1019.2     0.5     SSE   157   1.2     SSE   156   9.92    266      -57.8
   11/07/2019 19:20      63.3      62.8       53     45.8      0.00      0.00      69.4     0.28      1019.1     0.4     SSE   165   1.3       S   180   9.92    266      -58.0
   11/07/2019 19:10      63.5      62.7       53     45.4      0.00      0.00      69.3     0.28      1019.0     0.2     SSE   151   1.2     SSE   150   9.93    266      -59.0
   11/07/2019 19:00      64.8      63.3       50     45.2      0.00      0.00      69.3     0.28      1019.0     0.8      SE   137   1.3      SE   133   9.93    265      -60.2
   11/07/2019 18:50      65.7      64.8       48     45.2      0.00      0.00      69.3     0.28      1018.9     0.2      SE   139   1.3      SE   136   9.93    265      -60.4
   11/07/2019 18:40      66.8      65.4       48     45.6      0.00      0.00      69.2     0.28      1018.7     0.1      SE   146   0.9      SE   129   9.93    265      -61.7
   11/07/2019 18:30      67.0      66.4       46     45.4      0.00      0.00      69.2     0.28      1018.6     0.2      NE    36   1.5     NNE    19   9.93    265      -62.8
   11/07/2019 18:20      67.8      66.4       48     46.5      0.00      0.00      69.1     0.28      1018.5     0.2       S   185   1.1       S   190   9.93    264      -63.8
   11/07/2019 18:10      68.4      67.6       47     47.0      0.00      0.00      69.0     0.28      1018.5     0.2      SE   125   1.5     SSE   151   9.93    264      -64.7
   11/07/2019 18:00      69.0      68.0       49     48.3      0.00      0.00      69.1     0.28      1018.4     0.3     SSE   150   1.0      SE   139   9.94    265      -65.1
   11/07/2019 17:50      70.0      68.6       47     48.1      0.00      0.00      69.0     0.28      1018.3     0.1       S   170   0.9     SSW   195   9.94    264      -66.1
   11/07/2019 17:40      70.1      69.7       46     47.9      0.00      0.00      68.9     0.28      1018.3     0.7     SSW   202   2.5     SSW   204   9.94    264      -65.6
   11/07/2019 17:30      71.7      70.0       45     48.2      0.00      0.00      68.8     0.28      1018.2     0.7     SSE   152   1.6       S   189   9.94    264      -67.2
   11/07/2019 17:20      74.6      71.5       41     48.0      0.00      0.00      68.8     0.28      1018.0     0.0     SSE   164   0.7     SSE   166   9.95    263      -69.5
   11/07/2019 17:10      76.4      74.3       39     48.4      0.00      0.00      68.8     0.28      1017.9     0.1     SSW   198   1.0       S   184   9.95    263      -70.3
   11/07/2019 17:00      77.7      76.1       36     48.2      0.00      0.00      68.7     0.28      1017.8     1.4     WSW   240   3.7     WSW   254   9.95    263      -71.3
   11/07/2019 16:50      78.9      77.5       34     47.8      0.00      0.00      68.7     0.28      1017.7     2.3     WSW   238   4.7     WSW   240   9.95    263      -69.7
   11/07/2019 16:40      80.0      78.6       33     47.4      0.00      0.00      68.6     0.28      1017.7     3.8     WSW   247   6.2      SW   230   9.95    263      -66.1
   11/07/2019 16:30      80.8      79.7       31     47.0      0.00      0.00      68.5     0.28      1017.6     3.1      SW   236   6.3      SW   233   9.96    262      -63.0
   11/07/2019 16:20      82.4      80.4       29     46.4      0.00      0.00      68.5     0.28      1017.6     2.0      SW   215   3.8       W   261   9.96    262      -59.9
   11/07/2019 16:10      83.5      82.2       27     45.7      0.00      0.00      68.4     0.28      1017.5     3.3     WSW   237   5.5       W   261   9.96    261      -23.0
   11/07/2019 16:00      84.5      83.1       26     44.9      0.00      0.00      68.4     0.28      1017.4     2.7      SW   229   5.3      SW   234   9.97    261       -6.0
   11/07/2019 15:50      87.5      84.2       20     40.1      0.00      0.00      68.3     0.28      1017.3     3.1      SW   225   4.8     WSW   249   9.97    261       14.1
   11/07/2019 15:40      88.0      87.1       11     27.4      0.00      0.00      68.3     0.28      1017.3     1.1      SW   236   2.7      SW   231   9.97    261       28.4
   11/07/2019 15:30      88.4      87.7       12     29.3      0.00      0.00      68.2     0.28      1017.2     1.2     WSW   247   3.0     WSW   256   9.98    261       51.9
   11/07/2019 15:20      89.8      88.2       13     30.8      0.00      0.00      68.1     0.28      1017.1     0.9       S   181   2.0       S   177   9.98    261       74.0
   11/07/2019 15:10      89.6      87.7       12     29.7      0.00      0.00      68.1     0.28      1017.1     0.2       E    88   2.3      SE   134   9.98    260       96.5
   11/07/2019 15:00      89.1      87.7       11     28.3      0.00      0.00      68.0     0.28      1017.1     0.9     NNW   345   2.1       N   355   9.98    261      119.4
   11/07/2019 14:50      88.2      87.1       11     27.0      0.00      0.00      68.0     0.28      1017.1     0.9     NNE    19   2.5     NNE    21   9.98    260      139.2
   11/07/2019 14:40      88.8      87.6       11     26.3      0.00      0.00      68.0     0.28      1017.0     1.1     ENE    64   2.6       E    80   9.99    260      159.7
   11/07/2019 14:30      88.2      86.8       10     24.7      0.00      0.00      67.9     0.28      1017.0     0.9     NNE    34   2.2       N    10   9.99    260      176.1
   11/07/2019 14:20      89.6      87.1       11     26.6      0.00      0.00      67.7     0.28      1017.0     1.8     NNE    27   3.1       N    10   9.99    260      195.3
   11/07/2019 14:10      89.5      88.3       11     28.3      0.00      0.00      67.8     0.28      1017.0     0.4      NE    36   1.7      NE    51   9.99    260      214.6
   11/07/2019 14:00      88.4      87.2       11     27.3      0.00      0.00      67.8     0.28      1017.1     1.3     WSW   259   3.0     WSW   242   9.99    260      233.0
   11/07/2019 13:50      88.3      86.9       13     31.3      0.00      0.00      67.8     0.28      1017.2     0.8      SW   236   2.4       W   274   9.99    260      249.5
   11/07/2019 13:40      87.2      86.0       15     32.8      0.00      0.00      67.8     0.28      1017.3     1.5       W   274   3.4       W   273   9.99    260      265.9
   11/07/2019 13:30      87.0      86.4       15     33.7      0.00      0.00      67.7     0.28      1017.4     1.2     ENE    71   3.0       E    90   9.99    261      279.4
   11/07/2019 13:20      87.0      86.1       15     33.9      0.00      0.00      67.7     0.28      1017.5     0.9     NNE    24   3.2       E    84   9.99    260      294.6
   11/07/2019 13:10      86.6      84.7       16     34.2      0.00      0.00      67.6     0.28      1017.6     1.0      SE   144   3.4      SE   134  10.00    261      306.2
   11/07/2019 13:00      85.5      83.9       17     35.1      0.00      0.00      67.7     0.28      1017.8     1.1     ENE    68   2.6     ENE    76  10.00    261      318.9
   11/07/2019 12:50      84.7      83.9       15     31.5      0.00      0.00      67.6     0.28      1017.8     1.8       E    89   4.3     ESE   102  10.00    261      327.8
   11/07/2019 12:40      84.5      83.5       16     32.8      0.00      0.00      67.5     0.28      1017.9     1.6     ESE   102   4.4       E    90  10.00    261      337.5
   11/07/2019 12:30      84.3      82.8       19     36.3      0.00      0.00      67.6     0.28      1018.0     1.4       N   357   3.3       N   353  10.00    261      342.1
   11/07/2019 12:20      83.2      82.5       19     36.7      0.00      0.00      67.6     0.28      1018.1     1.7       N     6   4.6       N   355  10.00    261      350.4
   11/07/2019 12:10      82.8      82.2       21     39.1      0.00      0.00      67.6     0.28      1018.2     1.4     NNE    32   3.2      NE    34  10.00    262      355.8
   11/07/2019 12:00      82.6      81.2       22     39.2      0.00      0.00      67.6     0.28      1018.3     1.2      NE    36   3.8     ENE    78  10.00    262      360.2
   11/07/2019 11:50      82.0      81.1       23     39.8      0.00      0.00      67.6     0.28      1018.4     1.3     NNE    19   3.5      NE    45  10.00    262      362.3
   11/07/2019 11:40      81.4      79.6       25     41.1      0.00      0.00      67.6     0.28      1018.6     0.8       N   349   2.0       N   354  10.00    263      364.3
   11/07/2019 11:30      80.1      79.2       26     42.0      0.00      0.00      67.6     0.28      1018.7     1.6       N   350   3.3     NNE    31  10.00    263      364.7
   11/07/2019 11:20      80.0      78.1       28     42.9      0.00      0.00      67.6     0.28      1018.9     0.7     ENE    69   2.1     WNW   303  10.00    263      366.7
   11/07/2019 11:10      78.4      77.0       29     42.9      0.00      0.00      67.6     0.28      1019.1     1.2     ENE    70   2.8      SE   126  10.00    263      362.5
   11/07/2019 11:00      77.8      76.3       30     43.2      0.00      0.00      67.6     0.28      1019.4     0.9     NNW   337   2.8      NE    36  10.00    263      355.8
   11/07/2019 10:50      76.3      74.5       34     44.7      0.00      0.00      67.6     0.28      1019.5     0.4     NNW   330   1.4     NNW   329  10.00    263      351.4
   11/07/2019 10:40      74.8      73.5       36     45.8      0.00      0.00      67.6     0.28      1019.6     0.9       W   275   2.5       W   278  10.00    264      347.3
   11/07/2019 10:30      73.6      72.3       39     46.2      0.00      0.00      67.6     0.28      1019.7     0.6       W   278   2.1       W   280  10.00    264      338.8
   11/07/2019 10:20      72.5      70.1       42     47.5      0.00      0.00      67.7     0.28      1019.9     0.5     WNW   294   1.5     WSW   243  10.00    265      330.7
   11/07/2019 10:10      70.3      67.8       47     47.7      0.00      0.00      67.7     0.28      1020.0     0.9       S   183   2.5     SSW   210  10.00    266      322.5
   11/07/2019 10:00      69.0      68.0       48     47.9      0.00      0.00      67.7     0.28      1020.1     0.9     WNW   302   2.1      SW   215  10.00    266      309.7
   11/07/2019 09:50      68.1      65.0       50     47.5      0.00      0.00      67.7     0.28      1020.2     0.6       S   182   1.6     SSE   153  10.00    266      299.0
   11/07/2019 09:40      64.9      64.1       55     48.0      0.00      0.00      67.7     0.28      1020.2     1.3       N     9   3.0      NE    47  10.00    266      283.0
   11/07/2019 09:30      65.1      62.7       66     52.6      0.00      0.00      67.7     0.28      1020.2     0.8       N   358   3.6       N   350  10.00    266      269.3
   11/07/2019 09:20      62.8      59.4       86     56.8      0.00      0.00      67.8     0.28      1020.3     0.3       W   278   2.1       W   280  10.00    267      253.3
   11/07/2019 09:10      59.4      57.0       92     55.6      0.00      0.00      67.8     0.28      1020.3     0.8       W   265   2.1       W   272  10.00    267      237.0
   11/07/2019 09:00      57.0      55.9       93     54.4      0.00      0.00      67.8     0.28      1020.4     1.6       W   272   2.8     WSW   251  10.00    266      223.3
   11/07/2019 08:50      56.1      55.4       94     54.0      0.00      0.00      67.8     0.28      1020.5     1.7       W   274   3.2     WSW   240  10.00    290      262.8
   11/07/2019 08:40      55.9      54.5       95     53.7      0.00      0.00      67.8     0.28      1020.5     0.8     NNW   327   2.8      NW   311  10.00    309      252.6
   11/07/2019 08:30      54.9      53.6       96     53.0      0.00      0.00      67.8     0.28      1020.4     1.2       W   271   3.3     WNW   295  10.00    325      245.4
   11/07/2019 08:20      53.7      51.9       96     51.6      0.00      0.00      67.8     0.28      1020.3     1.4      SW   225   3.3      SW   221  10.00    333      209.7
   11/07/2019 08:10      52.2      51.6       96     50.9      0.00      0.00      67.8     0.28      1020.3     2.0     WSW   241   3.9     WSW   253  10.00    330      120.8
   11/07/2019 08:00      52.1      51.6       96     50.7      0.00      0.00      67.8     0.28      1020.3     1.8      SW   228   3.0     WSW   246  10.00    333       90.2
   11/07/2019 07:50      52.5      51.7       96     50.8      0.00      0.00      67.9     0.28      1020.2     2.0      SW   220   3.7     WSW   240  10.00    331       74.8
   11/07/2019 07:40      52.5      52.1       96     51.3      0.00      0.00      67.9     0.28      1020.1     1.3     SSW   198   2.6      SW   235  10.00    332       66.5
   11/07/2019 07:30      52.4      52.0       96     51.1      0.00      0.00      67.9     0.28      1020.0     0.7     SSE   160   2.6      SW   227  10.00    332       42.1
   11/07/2019 07:20      52.4      51.8       96     51.1      0.00      0.00      67.9     0.28      1019.9     0.1     NNE    30   1.0      NE    48  10.00    328       31.1
   11/07/2019 07:10      52.4      51.7       96     50.9      0.00      0.00      67.9     0.28      1019.8     0.6     SSW   203   2.0     SSW   209  10.00    326       24.7
   11/07/2019 07:00      52.4      51.9       96     51.0      0.00      0.00      67.9     0.28      1019.7     0.7      NE    37   2.7      NE    51  10.00    329       13.4
   11/07/2019 06:50      52.4      52.0       96     51.0      0.00      0.00      67.9     0.28      1019.6     0.7     NNE    18   2.9     NNE    18  10.00    332        8.0
   11/07/2019 06:40      52.3      51.6       96     50.8      0.00      0.00      68.0     0.28      1019.3     0.0      SW   219   1.0     SSW   206  10.00    333        3.8
   11/07/2019 06:30      52.0      51.4       96     50.6      0.00      0.00      68.0     0.28      1019.2     0.3     SSW   207   0.9     SSW   208  10.00    334        1.0
   11/07/2019 06:20      52.0      51.6       96     50.6      0.00      0.00      68.0     0.28      1019.1     1.0       S   180   1.9       S   172  10.00    333       -1.2
   11/07/2019 06:10      52.0      51.5       96     50.6      0.00      0.00      68.0     0.28      1019.0     0.9     SSE   154   2.1       S   190  10.00    333       -2.2
   11/07/2019 06:00      52.0      51.6       96     50.6      0.00      0.00      68.0     0.28      1018.8     1.0       S   175   2.3       S   177  10.00    334       -2.2
   11/07/2019 05:50      51.9      51.5       96     50.5      0.00      0.00      68.0     0.28      1018.6     1.1       S   177   2.2     SSW   202  10.00    334       -2.4
   11/07/2019 05:40      52.0      51.5       96     50.5      0.00      0.00      68.0     0.28      1018.6     1.9     SSW   195   2.9      SW   219  10.00    334       -2.4
   11/07/2019 05:30      52.5      51.7       95     50.8      0.00      0.00      68.0     0.28      1018.4     1.8     SSW   200   2.9      SW   215  10.00    334       -2.3
   11/07/2019 05:20      53.0      52.3       96     51.4      0.00      0.00      68.1     0.28      1018.3     1.5       S   180   3.6      SW   214  10.00    333       -2.3
   11/07/2019 05:10      53.3      52.7       96     51.7      0.00      0.00      68.1     0.28      1018.2     1.7     SSW   210   3.4     SSW   210  10.00    334       -2.1
   11/07/2019 05:00      53.3      52.8       96     51.8      0.00      0.00      68.1     0.28      1018.2     1.0     WNW   286   3.3       W   265  10.00    334       -2.2
   11/07/2019 04:50      53.6      53.0       95     52.0      0.00      0.00      68.1     0.28      1018.1     1.5       W   281   2.8      SW   233  10.00    334       -1.9
   11/07/2019 04:40      53.7      53.3       96     52.2      0.00      0.00      68.1     0.28      1018.1     1.2       W   267   2.2      SW   236  10.00    335       -1.6
   11/07/2019 04:30      53.8      53.3       96     52.2      0.00      0.00      68.2     0.28      1017.9     1.1      SW   229   2.6     WSW   241  10.00    356       -1.5
   11/07/2019 04:20      53.8      53.2       95     52.1      0.00      0.00      68.2     0.28      1017.8     1.3     SSW   192   2.5      SE   139  10.00    355       -1.5
   11/07/2019 04:10      53.8      53.3       95     52.3      0.00      0.00      68.2     0.28      1017.8     0.8       S   175   1.7       S   189  10.00    354       -1.6
   11/07/2019 04:00      54.0      53.4       95     52.3      0.00      0.00      68.2     0.28      1017.7     0.9     SSW   200   1.4     SSW   200  10.00    354       -1.7
   11/07/2019 03:50      54.0      53.5       95     52.3      0.00      0.00      68.2     0.28      1017.7     1.1     SSE   164   2.3      SE   134  10.00    352       -1.5
   11/07/2019 03:40      54.1      53.6       95     52.3      0.00      0.00      68.3     0.28      1017.7     0.8       S   179   1.9      SW   218  10.00    351       -1.4
   11/07/2019 03:30      54.1      53.8       95     52.5      0.00      0.00      68.3     0.28      1017.7     0.2      SW   217   2.0     SSW   196  10.00    350       -1.3
   11/07/2019 03:20      54.1      53.6       95     52.4      0.00      0.00      68.3     0.28      1017.6     0.6      SE   127   2.0      SW   223  10.00    352       -1.3
   11/07/2019 03:10      54.3      53.8       95     52.4      0.00      0.00      68.3     0.28      1017.6     1.2     WSW   241   1.9      NW   317  10.00    352       -1.3
   11/07/2019 03:00      54.6      54.0       94     52.6      0.00      0.00      68.3     0.28      1017.7     1.8     WSW   255   3.5     WSW   241  10.00    357       -1.2
   11/07/2019 02:50      54.6      54.1       94     52.7      0.00      0.00      68.4     0.28      1017.7     0.5      SW   227   2.1     WSW   248  10.00    361       -1.4
   11/07/2019 02:40      54.6      54.1       94     52.7      0.00      0.00      68.4     0.28      1017.7     0.3       S   180   1.3       S   189  10.00    359       -1.7
   11/07/2019 02:30      54.3      54.0       94     52.5      0.00      0.00      68.4     0.28      1017.7     0.2       S   190   1.0     SSW   192  10.00    363       -1.7
   11/07/2019 02:20      54.2      53.6       94     52.3      0.00      0.00      68.4     0.28      1017.8     0.8     SSW   193   1.2     SSW   199  10.00    362       -1.7
   11/07/2019 02:10      53.9      53.5       94     52.0      0.00      0.00      68.4     0.28      1017.9     0.2       S   183   1.0       S   180  10.00    366       -1.6
   11/07/2019 02:00      53.6      53.0       94     51.6      0.00      0.00      68.5     0.28      1017.9     0.0       N     0   0.0     SSE   161  10.00    373       -1.5
   11/07/2019 01:50      53.3      52.8       94     51.3      0.00      0.00      68.5     0.28      1017.9     0.0       S   173   0.2       S   173  10.00    373       -1.6
   11/07/2019 01:40      53.0      52.4       94     50.8      0.00      0.00      68.5     0.28      1017.8     0.2     SSE   169   1.2       S   181  10.00    376       -1.8
   11/07/2019 01:30      52.6      52.1       93     50.3      0.00      0.00      68.5     0.28      1017.9     0.0     SSE   154   0.8       S   187  10.00    387       -1.7
   11/07/2019 01:20      52.4      51.6       93     49.9      0.00      0.00      68.6     0.28      1018.0     0.5      SE   145   1.5      SE   137  10.00    386       -1.4
   11/07/2019 01:10      51.9      51.1       92     49.4      0.00      0.00      68.6     0.28      1018.1     1.0      SW   217   1.7      SW   235  10.00    386       -1.4
   11/07/2019 01:00      51.1      49.6       92     48.1      0.00      0.00      68.6     0.28      1018.1     0.7     SSW   210   1.4       S   184  10.00    388       -1.6
   11/07/2019 00:50      50.5      49.5       91     47.5      0.00      0.00      68.6     0.28      1018.1     0.4     SSE   159   1.6      SE   143  10.01    385       -6.9
   11/07/2019 00:40      50.4      49.4       91     47.2      0.00      0.00      68.6     0.28      1018.1     0.2       S   181   0.8     SSE   158  10.01    378       -7.4
   11/07/2019 00:30      50.6      50.0       91     47.8      0.00      0.00      68.6     0.28      1018.0     0.0     SSE   157   0.4     SSE   157  10.01    397      -10.5
   11/07/2019 00:20      50.5      49.9       90     47.4      0.00      0.00      68.6     0.28      1017.9     0.1     SSW   207   0.7     SSW   212  10.01    384      -10.6
   11/07/2019 00:10      51.2      50.1       90     47.6      0.00      0.00      68.7     0.28      1017.9     0.1     SSE   150   0.9     SSE   153  10.01    371      -11.5
   11/07/2019 00:00      51.5      50.7       90     48.2      0.00      0.00      68.7     0.28      1017.8     0.5     SSE   161   0.9     SSE   150  10.01    358      -11.1
   11/06/2019 23:50      51.5      51.1       90     48.4      0.00      0.00      68.7     0.28      1017.8     0.0       S   188   0.3       S   188  10.01    343      -11.8
   11/06/2019 23:40      51.8      51.1       90     48.5      0.00      0.00      68.7     0.28      1017.8     0.6     SSE   155   1.5      SE   143  10.01    330      -12.3
   11/06/2019 23:30      52.0      51.0       89     48.2      0.00      0.00      68.7     0.28      1017.8     0.4     SSE   150   1.2      SE   136  10.01    325      -13.1
   11/06/2019 23:20      51.9      51.4       90     48.8      0.00      0.00      68.7     0.28      1017.9     1.5     SSE   146   2.5     SSE   148  10.01    313      -13.7
   11/06/2019 23:10      52.1      51.1       89     48.1      0.00      0.00      68.7     0.28      1017.7     0.6       S   173   1.3     SSW   199  10.01    306      -14.5
   11/06/2019 23:00      53.0      51.9       89     49.0      0.00      0.00      68.7     0.28      1017.8     0.6     SSE   167   0.9     SSE   161  10.01    296      -14.8
   11/06/2019 22:50      53.0      52.2       89     49.2      0.00      0.00      68.7     0.28      1017.8     0.2     SSE   167   0.9       S   173  10.01    290      -16.4
   11/06/2019 22:40      53.5      52.2       88     49.1      0.00      0.00      68.8     0.28      1017.8     0.5     SSE   160   1.1       S   175  10.01    277      -18.3
   11/06/2019 22:30      53.2      52.5       88     49.5      0.00      0.00      68.8     0.28      1017.8     0.2     SSW   206   1.0     SSW   208  10.01    263      -21.3
   11/06/2019 22:20      53.4      52.4       86     48.7      0.00      0.00      68.8     0.28      1017.8     0.4     SSE   159   1.1     SSE   162  10.02    247      -25.3
   11/06/2019 22:10      53.2      52.7       86     49.0      0.00      0.00      68.7     0.28      1017.8     0.3     SSE   163   0.9     SSE   161  10.02    235      -28.7
   11/06/2019 22:00      53.0      52.4       85     48.3      0.00      0.00      68.8     0.28      1017.8     0.2       S   181   1.0     SSE   167  10.02    225      -33.2
   11/06/2019 21:50      53.0      52.6       85     48.4      0.00      0.00      68.8     0.28      1017.8     0.3       S   185   1.1     SSW   203  10.02    221      -36.5
   11/06/2019 21:40      53.2      52.6       84     48.1      0.00      0.00      68.7     0.28      1017.7     0.0       S   173   0.6       S   174  10.02    220      -41.3
   11/06/2019 21:30      53.7      53.0       84     48.4      0.00      0.00      68.7     0.28      1017.5     0.3     SSE   154   1.1       S   185  10.02    219      -43.5
   11/06/2019 21:20      53.9      53.3       83     48.3      0.00      0.00      68.8     0.28      1017.5     0.7     SSE   159   1.5      SE   142  10.02    222      -46.7
   11/06/2019 21:10      53.9      53.4       83     48.6      0.00      0.00      68.7     0.28      1017.4     0.8     SSE   148   1.3      SE   145  10.02    221      -48.0
   11/06/2019 21:00      54.5      53.5       82     48.5      0.00      0.00      68.7     0.28      1017.3     0.4     SSE   162   1.0     SSE   159  10.03    223      -50.0
   11/06/2019 20:50      54.5      54.0       82     48.8      0.00      0.00      68.7     0.28      1017.2     0.6     SSE   152   1.3     SSE   157  10.03    229      -51.4
   11/06/2019 20:40      54.9      54.0       81     48.5      0.00      0.00      68.7     0.28      1017.1     0.6     SSE   166   1.2     SSE   162  10.03    253      -53.3
   11/06/2019 20:30      55.6      54.6       80     48.8      0.00      0.00      68.7     0.28      1017.0     0.5     SSE   157   1.1      SE   141  10.03    251      -53.5
   11/06/2019 20:20      55.7      55.2       79     49.1      0.00      0.00      68.7     0.28      1016.9     0.3     SSE   148   1.1      SE   145  10.03    250      -54.3
   11/06/2019 20:10      55.7      55.1       77     48.4      0.00      0.00      68.7     0.28      1016.8     0.5     SSE   161   1.2      SE   146  10.03    264      -56.7
   11/06/2019 20:00      56.3      55.4       77     48.6      0.00      0.00      68.6     0.28      1016.7     0.5     SSE   155   1.8      SE   144  10.04    267      -57.0
   11/06/2019 19:50      56.6      55.9       77     48.9      0.00      0.00      68.6     0.28      1016.6     0.6     SSE   165   1.4       S   190  10.04    267      -57.1
   11/06/2019 19:40      56.8      56.1       77     49.3      0.00      0.00      68.6     0.28      1016.5     0.7     SSE   162   1.6      SE   139  10.04    268      -57.8
   11/06/2019 19:30      57.3      56.4       76     49.2      0.00      0.00      68.5     0.28      1016.4     0.8     SSE   157   1.9      SE   144  10.04    268      -58.2
   11/06/2019 19:20      57.7      57.0       76     49.7      0.00      0.00      68.5     0.28      1016.2     0.8     SSE   150   1.7      SE   141  10.04    268      -58.7
   11/06/2019 19:10      58.3      57.4       74     49.8      0.00      0.00      68.5     0.28      1016.1     0.6     SSE   166   1.5     SSE   151  10.05    267      -58.7
   11/06/2019 19:00      59.1      58.1       72     49.6      0.00      0.00      68.5     0.28      1016.1     0.8       S   180   1.4      SW   222  10.05    268      -58.4
   11/06/2019 18:50      59.7      58.8       72     50.0      0.00      0.00      68.4     0.28      1015.9     0.4       S   170   1.5       S   184  10.05    268      -59.2
   11/06/2019 18:40      59.8      59.3       71     50.2      0.00      0.00      68.4     0.28      1015.7     0.3       S   175   1.5       S   187  10.05    268      -59.3
   11/06/2019 18:30      60.6      59.3       69     49.7      0.00      0.00      68.3     0.28      1015.6     1.0     SSW   194   1.9       S   186  10.05    268      -59.1
   11/06/2019 18:20      61.2      60.2       69     50.7      0.00      0.00      68.3     0.28      1015.5     0.4     SSW   209   1.4      SW   214  10.06    267      -60.8
   11/06/2019 18:10      61.3      60.7       71     51.3      0.00      0.00      68.2     0.28      1015.4     0.2     SSW   211   0.9     SSW   204  10.06    268      -61.6
   11/06/2019 18:00      62.0      60.8       69     51.0      0.00      0.00      68.1     0.28      1015.3     0.3     SSE   159   1.2      SE   146  10.06    268      -63.8
   11/06/2019 17:50      63.2      61.6       67     51.1      0.00      0.00      68.1     0.28      1015.3     0.3     SSE   166   1.2       S   180  10.06    267      -65.0
   11/06/2019 17:40      64.3      62.9       66     52.0      0.00      0.00      68.0     0.28      1015.1     0.0       S   174   0.7       S   177  10.07    267      -65.8
   11/06/2019 17:30      65.2      64.2       64     52.4      0.00      0.00      68.0     0.28      1015.0     0.0       N     0   0.0     ESE   119  10.07    266      -68.8
   11/06/2019 17:20      66.2      65.0       63     52.6      0.00      0.00      67.9     0.28      1014.9     0.3     ESE   109   1.3       E   101  10.07    266      -70.9
   11/06/2019 17:10      67.1      65.7       62     52.9      0.00      0.00      67.9     0.28      1014.8     0.7     ESE   105   2.0     ESE   106  10.08    266      -71.5
   11/06/2019 17:00      68.0      66.8       61     53.4      0.00      0.00      67.8     0.28      1014.8     0.5       E    87   2.0       E    83  10.08    266      -70.2
   11/06/2019 16:50      68.8      67.6       59     53.6      0.00      0.00      67.8     0.28      1014.7     0.8       E    95   1.9      NE    47  10.08    266      -67.0
   11/06/2019 16:40      70.3      68.7       58     53.7      0.00      0.00      67.7     0.28      1014.6     1.5       E    82   3.7      NE    42  10.08    265      -63.6
   11/06/2019 16:30      71.4      69.9       55     53.6      0.00      0.00      67.6     0.28      1014.5     1.5     ENE    64   3.5      NE    52  10.09    264      -60.1
   11/06/2019 16:20      72.5      71.0       53     53.7      0.00      0.00      67.6     0.28      1014.5     1.4     ENE    59   2.9     NNE    28  10.09    264      -56.8
   11/06/2019 16:10      73.5      72.3       52     54.1      0.00      0.00      67.5     0.28      1014.5     1.6     ENE    60   3.2     ENE    56  10.09    263      -21.6
   11/06/2019 16:00      74.6      73.2       50     54.2      0.00      0.00      67.4     0.28      1014.5     1.9      NE    51   3.7     NNE    16  10.10    263       -0.3
   11/06/2019 15:50      75.5      74.2       48     53.9      0.00      0.00      67.4     0.28      1014.4     1.7      NE    43   2.9      NE    48  10.10    263       19.6
   11/06/2019 15:40      75.7      75.1       47     53.6      0.00      0.00      67.3     0.28      1014.4     1.6      NE    39   3.0      NE    43  10.10    263       40.9
   11/06/2019 15:30      76.2      75.3       46     53.5      0.00      0.00      67.3     0.28      1014.3     2.1      NE    53   4.3     ENE    65  10.10    263       62.1
   11/06/2019 15:20      76.8      76.0       45     53.4      0.00      0.00      67.3     0.28      1014.3     1.9      NE    45   3.9      NE    48  10.11    263       81.5
   11/06/2019 15:10      76.9      76.2       44     52.8      0.00      0.00      67.2     0.28      1014.1     1.9      NE    55   4.2      NE    47  10.11    263      103.4
   11/06/2019 15:00      77.4      76.5       43     52.5      0.00      0.00      67.1     0.28      1014.1     2.3      NE    47   4.3     ENE    68  10.11    263      126.9
   11/06/2019 14:50      78.4      77.0       41     52.0      0.00      0.00      67.1     0.28      1014.0     2.9      NE    50   5.5      NE    55  10.11    262      147.8
   11/06/2019 14:40      79.2      78.1       39     51.8      0.00      0.00      67.0     0.28      1013.8     2.6      NE    51   4.5      NE    41  10.11    262      169.0
   11/06/2019 14:30      80.3      78.8       36     50.6      0.00      0.00      67.0     0.28      1013.8     2.4     ENE    59   4.4       E    93  10.12    261      184.2
   11/06/2019 14:20      80.3      79.5       35     49.8      0.00      0.00      66.9     0.28      1013.8     2.3     NNE    27   4.3       N     4  10.12    261      202.1
   11/06/2019 14:10      81.1      80.1       34     49.7      0.00      0.00      66.9     0.28      1013.8     2.2      NE    55   4.4       N     8  10.12    261      220.5
   11/06/2019 14:00      81.0      80.4       34     50.1      0.00      0.00      66.8     0.28      1013.8     2.1     ENE    59   5.4      NE    51  10.12    261      237.6
   11/06/2019 13:50      80.9      80.2       34     49.8      0.00      0.00      66.8     0.28      1013.8     2.4      NE    37   3.9      NE    41  10.13    261      255.3
   11/06/2019 13:40      80.8      80.3       34     49.5      0.00      0.00      66.8     0.28      1013.8     2.5      NE    53   4.7       E    82  10.13    261      270.9
   11/06/2019 13:30      81.7      80.2       34     50.1      0.00      0.00      66.8     0.28      1013.8     2.7      NE    46   4.8       E    81  10.13    261      286.1
   11/06/2019 13:20      81.6      80.1       34     50.2      0.00      0.00      66.7     0.28      1013.9     1.9     NNE    32   4.6     NNE    31  10.13    261      297.1
   11/06/2019 13:10      81.2      80.4       34     49.8      0.00      0.00      66.7     0.28      1013.9     2.6      NE    43   5.4       E    94  10.13    261      310.1
   11/06/2019 13:00      81.2      80.6       33     49.2      0.00      0.00      66.7     0.28      1014.0     2.4      NE    49   4.4      NE    39  10.14    261      321.6
   11/06/2019 12:50      81.0      80.4       34     49.7      0.00      0.00      66.7     0.28      1014.0     2.3      NE    49   4.8      NE    45  10.14    261      332.2
   11/06/2019 12:40      81.7      80.3       34     49.5      0.00      0.00      66.7     0.28      1014.2     2.9     ENE    70   7.1     ESE   113  10.14    261      339.6
   11/06/2019 12:30      81.5      81.1       33     49.5      0.00      0.00      66.7     0.28      1014.3     2.1     ENE    66   4.6       E    83  10.14    261      346.6
   11/06/2019 12:20      81.8      80.7       32     48.2      0.00      0.00      66.7     0.28      1014.4     2.6      NE    37   4.4      NE    47  10.15    261      352.1
   11/06/2019 12:10      82.0      81.2       28     45.2      0.00      0.00      66.7     0.28      1014.5     2.2     NNE    31   4.6      NE    52  10.15    261      358.3
   11/06/2019 12:00      82.1      80.9       26     42.9      0.00      0.00      66.6     0.28      1014.6     2.2      NE    53   4.3       E    97  10.15    261      362.8
   11/06/2019 11:50      81.6      80.7       23     40.3      0.00      0.00      66.7     0.28      1014.8     1.9     ENE    60   4.2       E    99  10.16    261      365.6
   11/06/2019 11:40      81.5      80.4       23     39.8      0.00      0.00      66.7     0.28      1014.9     1.5     NNE    30   4.3      NE    36  10.16    261      368.5
   11/06/2019 11:30      80.6      79.3       22     37.3      0.00      0.00      66.6     0.27      1015.1     1.9     ENE    73   3.9      NE    49  10.16    261      370.4
   11/06/2019 11:20      79.7      78.6       19     33.8      0.00      0.00      66.7     0.27      1015.2     1.9     ENE    57   3.6     NNE    33  10.17    261      368.7
   11/06/2019 11:10      78.6      78.1       19     32.5      0.00      0.00      66.7     0.27      1015.5     2.0     ENE    69   4.3     ESE   102  10.17    261      366.5
   11/06/2019 11:00      78.5      76.8       19     32.1      0.00      0.00      66.8     0.27      1015.7     1.4      NE    51   4.0       E    86  10.17    261      361.1
   11/06/2019 10:50      77.3      76.7       19     31.1      0.00      0.00      66.8     0.28      1015.8     1.7     ENE    58   3.7     ENE    67  10.18    261      356.8
   11/06/2019 10:40      77.0      75.9       19     31.1      0.00      0.00      66.8     0.28      1015.9     1.6      NE    34   4.0       N   354  10.18    261      350.7
   11/06/2019 10:30      76.4      74.8       20     31.7      0.00      0.00      66.8     0.28      1016.1     1.4      NE    56   3.4      NE    54  10.19    261      344.5
   11/06/2019 10:20      75.1      74.3       23     34.3      0.00      0.00      66.8     0.27      1016.1     1.4     NNE    27   3.2     NNE    14  10.19    261      337.1
   11/06/2019 10:10      74.7      73.3       25     35.5      0.00      0.00      66.8     0.28      1016.2     1.1     NNE    34   2.5     NNE    25  10.20    261      329.0
   11/06/2019 10:00      73.7      73.1       27     37.2      0.00      0.00      66.9     0.28      1016.2     1.2     NNE    25   3.4     ENE    62  10.20    262      319.3
   11/06/2019 09:50      73.4      71.5       27     36.6      0.00      0.00      66.9     0.28      1016.3     1.1       E    85   3.3      SE   136  10.21    262      306.8
   11/06/2019 09:40      71.9      71.3       30     38.8      0.00      0.00      67.0     0.28      1016.4     1.1     NNE    29   2.4      NE    46  10.23    262      294.0
   11/06/2019 09:30      71.4      69.7       32     39.5      0.00      0.00      67.0     0.28      1016.5     0.5     NNE    17   2.0      NE    39  10.26    262      278.3
   11/06/2019 09:20      70.0      68.9       35     40.8      0.00      0.00      67.1     0.28      1016.5     0.6     WSW   239   2.2     WSW   244  10.28    263      261.9
   11/06/2019 09:10      69.4      68.1       39     42.6      0.00      0.00      67.1     0.28      1016.6     0.3     NNW   346   1.7      NW   320   9.73    263      245.9
   11/06/2019 09:00      68.3      67.2       40     42.8      0.00      0.00      67.2     0.28      1016.6     0.3       N   357   1.6     NNE    24   9.73    263      229.2
   11/06/2019 08:50      67.2      64.9       43     42.7      0.00      0.00      67.2     0.28      1016.6     0.1      NW   325   1.2       N     3   9.73    263      213.6
   11/06/2019 08:40      65.2      63.0       46     43.0      0.00      0.00      67.3     0.28      1016.7     0.4     NNW   331   1.4      NW   313   9.73    264      198.0
   11/06/2019 08:30      63.3      61.8       48     42.6      0.00      0.00      67.3     0.28      1016.6     0.4     NNE    17   1.6     NNE    12   9.73    264      180.9
   11/06/2019 08:20      62.4      61.8       49     42.6      0.00      0.00      67.3     0.28      1016.5     0.7       N   357   2.0       N   355   9.73    264      165.3
   11/06/2019 08:10      62.2      61.1       49     42.5      0.00      0.00      67.3     0.28      1016.5     0.2     NNE    14   1.1     NNE    18   9.73    264      148.9
   11/06/2019 08:00      61.0      58.3       53     42.2      0.00      0.00      67.4     0.28      1016.5     0.2     ENE    58   0.9     ENE    58   9.73    265      132.3
   11/06/2019 07:50      59.3      58.2       52     41.2      0.00      0.00      67.4     0.28      1016.5     0.4     NNE    12   1.6     NNE    21   9.73    266      114.4
   11/06/2019 07:40      58.6      55.0       57     41.4      0.00      0.00      67.5     0.28      1016.3     0.0       N     0   0.0      SE   144   9.75    268       67.7
   11/06/2019 07:30      54.8      50.7       66     41.7      0.00      0.00      67.5     0.28      1016.3     0.0       N     0   0.0      SE   144   9.75    269       79.6
   11/06/2019 07:20      50.8      48.8       72     41.2      0.00      0.00      67.5     0.28      1016.3     0.6     SSE   151   1.2      SE   144   9.75    269       22.0
   11/06/2019 07:10      49.0      45.9       80     41.3      0.00      0.00      67.6     0.28      1016.3     0.0       N     0   0.0      SE   133   9.75    264       -7.3
   11/06/2019 07:00      46.0      45.0       81     40.0      0.00      0.00      67.6     0.28      1016.2     0.3      SE   135   1.5      SE   137   9.75    248       -9.8
   11/06/2019 06:50      45.2      44.5       82     39.6      0.00      0.00      67.6     0.28      1016.1     0.4     SSE   159   1.5      SE   138   9.75    242      -14.1
   11/06/2019 06:40      44.9      44.2       80     38.6      0.00      0.00      67.6     0.28      1016.0     0.6     SSE   156   1.9      SE   140   9.75    234      -20.2
   11/06/2019 06:30      45.1      44.4       81     39.2      0.00      0.00      67.7     0.28      1016.0     0.7     SSE   158   1.4     SSE   162   9.75    228      -23.5
   11/06/2019 06:20      45.1      44.2       81     39.2      0.00      0.00      67.7     0.28      1015.9     0.4     SSE   151   1.1      SE   132   9.75    234      -27.6
   11/06/2019 06:10      45.3      44.8       82     39.9      0.00      0.00      67.7     0.28      1015.9     0.1       N     0   1.0       N     0   9.75    241      -29.5
   11/06/2019 06:00      45.1      44.8       84     40.4      0.00      0.00      67.8     0.28      1015.8     0.2     SSW   211   1.0     SSW   211   9.75    234      -29.8
   11/06/2019 05:50      45.6      44.8       84     40.5      0.00      0.00      67.8     0.28      1015.9     0.0       N     0   0.0       S   169   9.76    240      -31.6
   11/06/2019 05:40      46.0      45.4       84     41.2      0.00      0.00      67.8     0.28      1015.9     0.0       S   178   0.5       S   178   9.76    234      -34.0
   11/06/2019 05:30      46.3      45.5       83     40.8      0.00      0.00      67.9     0.28      1015.8     0.5     SSE   165   1.1       S   173   9.76    226      -38.3
   11/06/2019 05:20      46.4      46.0       83     41.2      0.00      0.00      67.9     0.28      1015.8     0.1     SSE   167   0.7     SSE   167   9.76    224      -41.1
   11/06/2019 05:10      46.3      45.5       81     40.2      0.00      0.00      67.9     0.28      1015.8     0.2     SSE   168   0.9     SSE   167   9.76    226      -44.0
   11/06/2019 05:00      46.2      45.7       78     39.3      0.00      0.00      68.0     0.28      1015.9     0.0       N     0   0.0     SSW   207   9.76    246      -45.8
   11/06/2019 04:50      46.1      45.5       80     39.8      0.00      0.00      67.9     0.28      1015.9     0.4     SSW   195   1.0       S   189   9.76    263      -45.2
   11/06/2019 04:40      46.3      45.7       81     40.4      0.00      0.00      68.0     0.28      1015.8     0.0     SSE   164   0.6       S   181   9.76    245      -45.4
   11/06/2019 04:30      46.6      45.9       79     39.9      0.00      0.00      68.0     0.28      1015.8     0.4     SSE   165   1.1       S   169   9.76    253      -45.5
   11/06/2019 04:20      46.5      45.9       76     39.0      0.00      0.00      68.1     0.28      1015.8     0.4     SSE   155   1.1     SSE   154   9.76    259      -46.4
   11/06/2019 04:10      46.3      45.9       77     39.1      0.00      0.00      68.1     0.28      1015.7     0.1       S   170   1.1       S   172   9.76    267      -47.1
   11/06/2019 04:00      46.6      45.8       77     39.3      0.00      0.00      68.1     0.28      1015.6     0.0       N     0   0.0     SSE   152   9.76    264      -47.2
   11/06/2019 03:50      46.8      46.1       77     39.6      0.00      0.00      68.1     0.28      1015.7     0.0       N     0   0.0     SSE   151   9.76    267      -47.2
   11/06/2019 03:40      47.4      46.4       75     39.3      0.00      0.00      68.1     0.28      1015.6     0.2     SSE   153   0.8     SSE   156   9.76    266      -47.1
   11/06/2019 03:30      47.1      46.8       73     38.9      0.00      0.00      68.2     0.28      1015.5     0.0       N     0   0.0       S   171   9.76    262      -47.6
   11/06/2019 03:20      47.2      46.6       77     40.1      0.00      0.00      68.2     0.28      1015.6     0.0     SSE   163   0.4     SSE   163   9.76    258      -47.5
   11/06/2019 03:10      47.6      46.7       73     38.8      0.00      0.00      68.3     0.28      1015.6     0.4     SSE   154   0.9     SSE   152   9.76    266      -48.3
   11/06/2019 03:00      47.5      47.0       73     39.0      0.00      0.00      68.2     0.28      1015.7     0.3       S   171   0.9     SSE   157   9.76    267      -47.6
   11/06/2019 02:50      47.6      47.2       74     39.6      0.00      0.00      68.3     0.28      1015.7     0.0       S   178   0.5       S   178   9.76    265      -47.7
   11/06/2019 02:40      48.1      47.2       73     39.3      0.00      0.00      68.3     0.28      1015.8     0.0     SSE   167   0.7     SSE   167   9.76    264      -48.2
   11/06/2019 02:30      48.5      47.8       73     39.7      0.00      0.00      68.3     0.28      1015.9     0.3     SSE   162   0.9     SSE   148   9.76    266      -47.6
   11/06/2019 02:20      48.9      47.8       69     38.6      0.00      0.00      68.4     0.28      1016.0     0.2      SE   135   0.9      SE   135   9.76    266      -48.4
   11/06/2019 02:10      49.6      48.8       65     37.7      0.00      0.00      68.4     0.28      1015.9     0.0      SE   139   0.7      SE   139   9.76    266      -48.1
   11/06/2019 02:00      49.4      48.6       63     37.2      0.00      0.00      68.4     0.28      1015.9     0.3     SSW   214   0.8      SW   216   9.77    266      -47.7
   11/06/2019 01:50      49.2      48.8       64     37.5      0.00      0.00      68.4     0.28      1016.0     0.2       S   189   1.1     SSW   193   9.77    266      -48.9
   11/06/2019 01:40      49.3      48.3       65     37.4      0.00      0.00      68.4     0.28      1016.0     0.4     SSE   162   0.9      SE   141   9.77    266      -49.4
   11/06/2019 01:30      49.7      48.8       64     37.6      0.00      0.00      68.4     0.28      1016.1     0.0      SE   141   0.5      SE   141   9.77    266      -49.7
   11/06/2019 01:20      49.7      49.3       64     38.0      0.00      0.00      68.5     0.28      1016.1     0.2     SSE   155   0.8     SSE   155   9.77    266      -49.8
   11/06/2019 01:10      49.7      49.3       63     37.3      0.00      0.00      68.5     0.28      1016.1     0.3     SSE   161   1.2     SSE   159   9.77    266      -50.1
   11/06/2019 01:00      51.0      49.4       61     37.3      0.00      0.00      68.5     0.28      1016.2     0.6     SSE   154   1.6     SSE   150   9.77    266      -50.6
   11/06/2019 00:50      50.8      50.0       64     38.7      0.00      0.00      68.5     0.28      1016.2     0.8     SSW   192   1.4      SW   223   9.77    266      -50.0
   11/06/2019 00:40      50.2      49.7       66     38.9      0.00      0.00      68.5     0.28      1016.2     0.3     SSW   202   1.4     SSW   202   9.77    266      -50.9
   11/06/2019 00:30      51.0      49.9       64     38.4      0.00      0.00      68.5     0.28      1016.2     0.0      SE   143   0.9      SE   143   9.77    266      -52.2
   11/06/2019 00:20      52.4      50.7       66     40.5      0.00      0.00      68.5     0.28      1016.2     0.2      SE   134   1.1      SE   142   9.77    266      -52.2
   11/06/2019 00:10      52.5      52.0       69     42.2      0.00      0.00      68.5     0.28      1016.1     0.1     SSE   163   0.8     SSE   156   9.77    265      -52.1
   11/06/2019 00:00      52.5      52.0       69     42.2      0.00      0.00      68.6     0.28      1016.2     0.3     SSE   168   0.9      SE   146   9.77    264      -52.5
   11/05/2019 23:50      52.6      52.1       60     38.9      0.00      0.00      68.6     0.28      1016.2     0.7     SSE   150   1.5      SE   145   9.77    265      -53.9
   11/05/2019 23:40      52.9      52.2       59     38.5      0.00      0.00      68.6     0.28      1016.2     1.2     SSE   160   3.2     SSE   154   9.77    265      -54.5
   11/05/2019 23:30      53.0      52.0       56     37.4      0.00      0.00      68.6     0.28      1016.3     1.3     SSE   152   3.7      SE   134   9.77    265      -53.3
   11/05/2019 23:20      53.8      52.5       54     36.8      0.00      0.00      68.6     0.28      1016.3     0.9     SSE   153   1.9      SE   139   9.78    264      -53.3
   11/05/2019 23:10      53.8      53.3       50     35.3      0.00      0.00      68.6     0.28      1016.3     0.2     SSE   154   1.4      SE   141   9.78    264      -53.6
   11/05/2019 23:00      53.8      53.0       48     34.2      0.00      0.00      68.6     0.28      1016.3     0.5       S   177   1.5      SE   130   9.78    264      -54.5
   11/05/2019 22:50      53.9      53.5       45     32.8      0.00      0.00      68.6     0.28      1016.3     0.5       S   190   1.6      SE   129   9.78    264      -54.2
   11/05/2019 22:40      53.8      53.5       46     33.2      0.00      0.00      68.6     0.28      1016.3     0.4     SSE   162   1.8      SE   138   9.78    264      -54.7
   11/05/2019 22:30      54.3      53.5       44     32.3      0.00      0.00      68.6     0.28      1016.2     0.9     SSE   160   1.8      SE   141   9.78    264      -54.9
   11/05/2019 22:20      55.1      54.2       40     30.7      0.00      0.00      68.6     0.28      1016.4     0.6     SSE   160   1.4      SE   145   9.78    264      -54.9
   11/05/2019 22:10      55.0      54.5       39     30.4      0.00      0.00      68.6     0.28      1016.4     0.2     SSW   196   0.7       S   188   9.78    264      -54.9
   11/05/2019 22:00      55.8      54.6       40     31.0      0.00      0.00      68.6     0.28      1016.3     0.1     SSW   194   1.0     SSW   200   9.78    264      -55.6
   11/05/2019 21:50      56.0      55.4       39     30.9      0.00      0.00      68.6     0.28      1016.3     0.3     SSE   151   1.1     SSE   147   9.78    263      -56.5
   11/05/2019 21:40      56.3      55.4       39     31.3      0.00      0.00      68.6     0.28      1016.2     0.7       S   170   1.8       S   183   9.79    263      -56.9
   11/05/2019 21:30      56.5      55.9       38     31.1      0.00      0.00      68.5     0.28      1016.1     1.0     SSE   152   2.3      SE   137   9.79    263      -57.3
   11/05/2019 21:20      56.7      55.7       39     31.6      0.00      0.00      68.5     0.28      1016.1     0.9       S   174   2.1      SE   132   9.79    263      -57.7
   11/05/2019 21:10      58.0      56.4       37     31.0      0.00      0.00      68.5     0.28      1016.1     1.1     SSE   152   2.1      SE   134   9.79    263      -57.9
   11/05/2019 21:00      58.4      57.6       35     30.6      0.00      0.00      68.5     0.28      1015.9     0.6     SSE   164   1.3     SSE   155   9.79    263      -57.4
   11/05/2019 20:50      58.5      57.8       35     30.6      0.00      0.00      68.5     0.28      1015.9     0.5     SSE   157   1.3     SSE   148   9.79    263      -57.9
   11/05/2019 20:40      58.8      58.0       34     30.2      0.00      0.00      68.4     0.28      1015.8     0.4     SSE   161   1.4      SE   144   9.79    263      -58.2
   11/05/2019 20:30      59.6      58.5       33     30.0      0.00      0.00      68.4     0.28      1015.8     1.1     SSE   150   2.2      SE   132   9.80    263      -58.4
   11/05/2019 20:20      60.5      59.4       32     29.9      0.00      0.00      68.4     0.28      1015.8     0.7     SSE   158   2.3      SE   135   9.80    263      -58.6
   11/05/2019 20:10      61.6      60.1       31     30.0      0.00      0.00      68.4     0.28      1015.8     0.7     SSE   150   1.6      SE   135   9.80    263      -58.8
   11/05/2019 20:00      62.0      61.3       29     29.1      0.00      0.00      68.3     0.28      1015.8     0.3       S   175   0.9      SE   139   9.80    262      -58.5
   11/05/2019 19:50      62.0      61.3       30     30.1      0.00      0.00      68.3     0.28      1015.7     0.4     SSE   161   1.1       S   181   9.80    262      -59.1
   11/05/2019 19:40      63.1      61.7       30     30.3      0.00      0.00      68.3     0.28      1015.7     0.6      SE   138   1.3      SE   136   9.80    262      -60.3
   11/05/2019 19:30      63.7      62.8       28     29.5      0.00      0.00      68.2     0.28      1015.6     0.7     SSE   148   1.8     SSE   147   9.81    262      -60.8
   11/05/2019 19:20      64.8      63.4       27     29.7      0.00      0.00      68.2     0.28      1015.5     0.3     SSE   152   1.2      SE   143   9.81    262      -61.9
   11/05/2019 19:10      66.0      64.5       27     30.0      0.00      0.00      68.1     0.28      1015.4     0.2     SSW   193   1.9     SSW   205   9.81    262      -64.0
   11/05/2019 19:00      67.9      65.7       25     29.4      0.00      0.00      68.1     0.28      1015.4     0.4       E    96   1.5      SE   126   9.81    261      -66.0
   11/05/2019 18:50      70.0      67.7       22     28.8      0.00      0.00      68.0     0.28      1015.4     0.4     SSE   154   1.7       S   181   9.81    261      -67.7
   11/05/2019 18:40      70.1      69.5       21     28.2      0.00      0.00      68.0     0.28      1015.4     1.6     SSW   209   3.8     WSW   249   9.81    261      -68.8
   11/05/2019 18:30      71.1      69.7       21     28.9      0.00      0.00      67.9     0.28      1015.3     1.4     SSW   201   3.7     SSW   194   9.82    261      -69.3
   11/05/2019 18:20      71.2      70.7       21     29.5      0.00      0.00      67.8     0.28      1015.3     1.6     SSW   208   4.4     SSW   212   9.82    261      -70.7
   11/05/2019 18:10      72.0      70.8       22     30.8      0.00      0.00      67.8     0.28      1015.2     1.8     SSW   201   3.5       W   266   9.82    261      -70.8
   11/05/2019 18:00      72.5      71.7       22     31.2      0.00      0.00      67.7     0.28      1015.1     1.6      SW   214   3.2      SW   221   9.82    261      -73.0
   11/05/2019 17:50      73.5      72.3       21     31.1      0.00      0.00      67.7     0.28      1015.1     2.5      SW   220   6.8     WSW   249   9.83    261      -73.8
   11/05/2019 17:40      74.0      73.1       22     32.0      0.00      0.00      67.6     0.28      1015.0     3.4     WSW   239   7.4     WSW   252   9.83    261      -75.1
   11/05/2019 17:30      74.4      73.7       24     34.5      0.00      0.00      67.6     0.28      1014.9     2.8      SW   227   5.4      SW   217   9.83    261      -76.0
   11/05/2019 17:20      75.4      74.2       26     37.6      0.00      0.00      67.5     0.28      1014.8     3.1     SSW   202   4.9     WSW   240   9.84    261      -76.0
   11/05/2019 17:10      76.8      75.2       28     40.2      0.00      0.00      67.4     0.28      1014.7     2.9     SSW   214   6.1      SW   223   9.84    261      -76.2
   11/05/2019 17:00      77.6      76.4       28     41.6      0.00      0.00      67.3     0.28      1014.6     3.3     WSW   244   5.7     WSW   246   9.84    261      -73.2
   11/05/2019 16:50      78.7      77.4       27     41.2      0.00      0.00      67.3     0.28      1014.4     2.8     WSW   254   5.4     WSW   248   9.85    261      -69.0
   11/05/2019 16:40      80.6      78.5       27     42.4      0.00      0.00      67.2     0.28      1014.4     3.7       W   266   7.4       W   266   9.85    261      -65.7
   11/05/2019 16:30      82.8      80.4       25     42.2      0.00      0.00      67.1     0.28      1014.2     3.8       W   265   7.9     WSW   257   9.85    261      -61.4
   11/05/2019 16:20      83.4      82.4       19     35.7      0.00      0.00      67.1     0.28      1014.1     2.6     WSW   253   6.6       W   259   9.86    261      -59.4
   11/05/2019 16:10      84.7      83.1       16     32.7      0.00      0.00      67.0     0.28      1014.1     2.2     SSW   207   4.2     SSW   207   9.86    260      -27.2
   11/05/2019 16:00      85.2      84.3       15     31.8      0.00      0.00      66.9     0.28      1014.0     2.2     SSW   193   4.6       S   190   9.86    260       -5.1
   11/05/2019 15:50      85.9      84.8       14     30.7      0.00      0.00      66.8     0.28      1014.0     3.9     SSW   196   6.7     SSW   202   9.87    260       18.9
   11/05/2019 15:40      87.5      85.5       14     30.9      0.00      0.00      66.8     0.28      1013.9     4.4     SSW   208   7.6      SW   230   9.87    260       37.6
   11/05/2019 15:30      88.9      87.2       12     29.6      0.00      0.00      66.7     0.28      1013.8     2.7       S   186   6.4     SSW   198   9.87    260       58.0
   11/05/2019 15:20      89.9      88.5       10     25.7      0.00      0.00      66.7     0.28      1013.8     1.2      SE   142   4.2      SE   131   9.88    260       77.3
   11/05/2019 15:10      89.6      89.0        9     23.2      0.00      0.00      66.6     0.28      1013.8     1.5       E    96   3.9       E    90   9.88    259       99.6
   11/05/2019 15:00      89.6      89.0        9     23.7      0.00      0.00      66.5     0.28      1013.8     1.4      SE   136   3.9     SSE   155   9.88    260      122.0
   11/05/2019 14:50      90.0      89.0        9     23.2      0.00      0.00      66.5     0.28      1013.9     2.2     SSE   158   5.1       S   184   9.88    260      143.9
   11/05/2019 14:40      90.2      89.3        9     22.9      0.00      0.00      66.4     0.28      1013.9     1.4       E   101   5.0      SE   125   9.88    259      164.3
   11/05/2019 14:30      89.9      88.9        9     22.9      0.00      0.00      66.4     0.28      1014.0     1.5       S   170   4.1      SE   146   9.89    259      182.9
   11/05/2019 14:20      89.8      88.8        9     23.5      0.00      0.00      66.3     0.28      1013.9     2.7       S   169   4.1      SE   138   9.89    259      203.9
   11/05/2019 14:10      89.7      88.2        9     23.9      0.00      0.00      66.3     0.28      1014.0     2.2     SSE   162   5.7      SE   135   9.89    259      221.1
   11/05/2019 14:00      90.0      89.0        9     23.8      0.00      0.00      66.2     0.28      1014.0     2.0     ENE    69   5.7      SE   130   9.89    259      235.0
   11/05/2019 13:50      90.1      89.4        9     23.6      0.00      0.00      66.2     0.28      1014.1     2.0     ESE   107   4.1      SE   133   9.89    259      254.0
   11/05/2019 13:40      90.9      90.0        9     23.2      0.00      0.00      66.2     0.28      1014.3     1.5     ESE   114   3.6     ESE   122   9.89    259      268.5
   11/05/2019 13:30      91.2      89.1        8     22.2      0.00      0.00      66.1     0.28      1014.3     1.0     NNE    33   3.0     NNW   336   9.89    259      282.0
   11/05/2019 13:20      89.9      88.8        8     21.2      0.00      0.00      66.1     0.28      1014.4     1.4     NNE    12   3.6       W   266   9.89    259      296.0
   11/05/2019 13:10      88.9      88.0        8     19.7      0.00      0.00      66.0     0.27      1014.5     1.5     ENE    71   4.0      SE   135   9.90    259      310.8
   11/05/2019 13:00      89.1      88.3        8     19.3      0.00      0.00      66.0     0.27      1014.6     1.8     SSW   192   5.0       E    95   9.90    259      322.4
   11/05/2019 12:50      88.5      87.8        8     19.7      0.00      0.00      66.0     0.27      1014.8     1.4     ESE   103   4.5      SE   143   9.90    259      330.1
   11/05/2019 12:40      88.2      87.3        9     21.0      0.00      0.00      66.0     0.27      1015.0     1.6      SE   132   3.2       S   187   9.90    259      341.0
   11/05/2019 12:30      87.9      86.4        9     21.4      0.00      0.00      66.0     0.27      1015.2     1.4      SE   133   5.1      SE   140   9.90    259      349.1
   11/05/2019 12:20      86.8      86.2        9     22.2      0.00      0.00      66.0     0.27      1015.4     1.6       E   101   3.6       E    80   9.90    259      355.4
   11/05/2019 12:10      86.9      85.3       10     23.3      0.00      0.00      66.0     0.27      1015.5     2.0     ESE   109   4.7      SE   124   9.90    259      362.9
   11/05/2019 12:00      85.8      85.1       10     22.9      0.00      0.00      66.0     0.27      1015.8     2.1     ESE   121   4.6      SE   124   9.90    260      366.7
   11/05/2019 11:50      85.8      85.0       11     24.0      0.00      0.00      66.0     0.27      1015.9     2.0       E    91   4.5     SSE   148   9.90    260      368.1
   11/05/2019 11:40      85.2      84.4       11     23.9      0.00      0.00      66.0     0.27      1016.1     2.0     ENE    60   4.3     ENE    59   9.90    260      367.9
   11/05/2019 11:30      84.8      83.7       11     23.5      0.00      0.00      66.0     0.27      1016.3     1.3     ENE    59   3.1     NNE    28   9.90    260      368.8
   11/05/2019 11:20      84.1      82.6       11     23.0      0.00      0.00      66.0     0.27      1016.5     1.2     ENE    76   3.5       E    88   9.90    260      367.8
   11/05/2019 11:10      83.0      82.3       12     25.1      0.00      0.00      66.1     0.27      1016.6     1.4     ENE    70   3.1      NE    56   9.90    260      365.0
   11/05/2019 11:00      82.4      81.2       14     27.3      0.00      0.00      66.0     0.27      1016.8     1.2     NNE    16   3.2       E    94   9.90    260      362.1
   11/05/2019 10:50      81.5      80.3       15     28.4      0.00      0.00      66.0     0.27      1016.9     1.3       N     3   3.2       N     2   9.90    260      355.7
   11/05/2019 10:40      80.5      79.2       16     29.1      0.00      0.00      66.1     0.27      1017.1     1.0     NNE    28   2.5     NNW   345   9.90    260      351.4
   11/05/2019 10:30      79.4      77.8       17     30.1      0.00      0.00      66.1     0.27      1017.1     1.2     NNE    33   2.8     ENE    74   9.90    261      344.7
   11/05/2019 10:20      78.2      77.5       18     30.4      0.00      0.00      66.1     0.27      1017.2     1.4     NNE    22   2.5     NNE    27   9.90    261      337.4
   11/05/2019 10:10      77.9      76.4       18     29.9      0.00      0.00      66.1     0.27      1017.2     1.3      NE    53   3.4       E    79   9.90    261      330.2
   11/05/2019 10:00      77.3      75.1       18     30.0      0.00      0.00      66.2     0.27      1017.3     1.0       E    96   2.5     ENE    61   9.90    261      320.1
   11/05/2019 09:50      75.1      74.2       19     30.2      0.00      0.00      66.2     0.27      1017.4     1.1     NNE    27   2.4       E   100   9.90    261      308.1
   11/05/2019 09:40      74.5      73.8       20     30.1      0.00      0.00      66.3     0.27      1017.5     0.8     ENE    68   2.0     ENE    68   9.90    261      293.2
   11/05/2019 09:30      73.8      72.8       20     29.8      0.00      0.00      66.3     0.27      1017.6     0.5       N   360   1.3       E    90   9.90    261      279.2
   11/05/2019 09:20      73.2      70.7       20     28.9      0.00      0.00      66.3     0.27      1017.6     0.2     NNW   340   1.7     NNE    33   9.90    261      260.9
   11/05/2019 09:10      71.0      69.6       24     31.6      0.00      0.00      66.4     0.27      1017.7     0.5      NW   310   2.0     WSW   257   9.90    261      247.6
   11/05/2019 09:00      69.9      66.9       26     32.3      0.00      0.00      66.4     0.27      1017.8     0.1       W   280   1.1     WNW   288   9.90    261      229.5
   11/05/2019 08:50      67.1      65.8       29     32.9      0.00      0.00      66.5     0.28      1017.9     0.6     NNE    12   1.9       N     2   9.90    262      216.2
   11/05/2019 08:40      65.8      64.9       30     33.0      0.00      0.00      66.5     0.28      1017.9     0.7     NNE    18   2.1     NNE    18   9.90    262      199.5
   11/05/2019 08:30      65.1      64.0       31     33.5      0.00      0.00      66.5     0.28      1017.8     0.4     NNE    29   1.9     NNE    33   9.90    262      183.3
   11/05/2019 08:20      64.1      62.6       33     33.5      0.00      0.00      66.6     0.28      1017.8     0.1       N     7   0.8       N   355   9.90    262      167.2
   11/05/2019 08:10      62.5      60.3       36     34.1      0.00      0.00      66.6     0.28      1017.8     0.2     ENE    68   0.6     ESE   108   9.90    263      150.8
   11/05/2019 08:00      60.4      57.9       37     32.7      0.00      0.00      66.7     0.28      1017.7     1.2       W   264   3.5       W   271   9.90    263      135.6
   11/05/2019 07:50      58.2      55.6       41     33.2      0.00      0.00      66.7     0.28      1017.7     0.8      NW   309   3.1       W   260   9.90    264      121.7
   11/05/2019 07:40      55.8      54.1       45     33.6      0.00      0.00      66.7     0.28      1017.7     1.3     WNW   282   4.2       W   281   9.91    265       71.1
   11/05/2019 07:30      54.2      51.7       48     34.3      0.00      0.00      66.8     0.28      1017.7     0.7       W   270   3.4     WSW   244   9.91    266       59.8
   11/05/2019 07:20      51.5      48.3       55     34.1      0.00      0.00      66.8     0.28      1017.6     0.2      SE   141   1.1      SE   141   9.91    266        1.2
   11/05/2019 07:10      48.4      45.8       58     33.2      0.00      0.00      66.8     0.28      1017.5     0.5     SSE   150   1.1     SSE   147   9.91    266      -25.3
   11/05/2019 07:00      45.9      44.5       61     32.6      0.00      0.00      66.9     0.28      1017.4     0.2     SSE   158   0.9     SSE   150   9.91    267      -26.5
   11/05/2019 06:50      44.7      43.9       63     32.6      0.00      0.00      66.9     0.28      1017.2     0.0       N     0   0.0      SW   218   9.91    267      -30.4
   11/05/2019 06:40      44.7      43.9       63     32.3      0.00      0.00      67.0     0.28      1017.0     0.2       E    81   1.2     NNE    23   9.91    267      -34.6
   11/05/2019 06:30      44.7      44.2       62     32.1      0.00      0.00      67.0     0.28      1016.8     0.5     SSE   149   1.5     SSE   164   9.91    267      -37.4
   11/05/2019 06:20      44.4      44.1       62     32.2      0.00      0.00      67.0     0.28      1016.7     0.2       S   170   1.1       S   175   9.91    267      -41.3
   11/05/2019 06:10      44.4      43.9       64     32.7      0.00      0.00      67.0     0.28      1016.6     0.3     SSE   165   1.1     SSE   164   9.91    266      -43.3
   11/05/2019 06:00      44.9      44.1       63     32.6      0.00      0.00      67.1     0.28      1016.5     0.3     SSE   154   0.9     SSE   154   9.91    266      -44.1
   11/05/2019 05:50      44.7      44.1       61     31.9      0.00      0.00      67.1     0.28      1016.4     0.2       S   170   0.8       S   181   9.91    266      -43.7
   11/05/2019 05:40      44.3      43.9       65     33.0      0.00      0.00      67.2     0.28      1016.4     0.4     SSE   165   1.1       S   181   9.92    266      -44.4
   11/05/2019 05:30      44.2      43.4       65     32.5      0.00      0.00      67.2     0.28      1016.4     0.6     SSE   160   1.3     SSE   159   9.92    266      -45.0
   11/05/2019 05:20      43.8      43.4       62     31.6      0.00      0.00      67.2     0.28      1016.4     0.8     SSE   152   1.6      SE   139   9.91    266      -46.3
   11/05/2019 05:10      44.2      43.5       60     30.7      0.00      0.00      67.2     0.28      1016.5     0.6     SSE   159   1.4     SSE   150   9.92    266      -46.1
   11/05/2019 05:00      44.4      43.5       60     30.9      0.00      0.00      67.3     0.28      1016.4     0.0       N     0   0.0     SSE   150   9.92    266      -45.9
   11/05/2019 04:50      44.6      44.0       61     31.4      0.00      0.00      67.3     0.28      1016.4     0.2     SSE   150   0.8     SSE   150   9.92    266      -45.8
   11/05/2019 04:40      44.9      44.4       59     31.3      0.00      0.00      67.3     0.28      1016.4     0.2     SSE   150   0.8     SSE   150   9.92    266      -45.7
   11/05/2019 04:30      44.9      44.4       62     32.3      0.00      0.00      67.3     0.28      1016.3     0.0       S   171   0.6     SSW   192   9.92    266      -45.5
   11/05/2019 04:20      45.3      44.0       60     31.5      0.00      0.00      67.4     0.28      1016.3     0.6       S   178   1.4       S   175   9.92    266      -45.8
   11/05/2019 04:10      45.2      44.5       59     31.3      0.00      0.00      67.4     0.28      1016.3     0.4     SSE   154   1.1     SSE   152   9.92    266      -46.0
   11/05/2019 04:00      44.9      44.4       61     31.8      0.00      0.00      67.4     0.28      1016.3     0.2       S   173   0.8       S   173   9.92    266      -46.8
   11/05/2019 03:50      45.2      44.5       60     32.0      0.00      0.00      67.4     0.28      1016.3     0.0       S   173   0.3       S   173   9.92    266      -47.0
   11/05/2019 03:40      45.7      44.9       59     31.7      0.00      0.00      67.5     0.28      1016.3     0.1     SSE   166   1.0     SSE   164   9.92    266      -46.6
   11/05/2019 03:30      46.1      45.3       56     31.0      0.00      0.00      67.5     0.28      1016.3     0.1     SSE   148   0.6      SE   140   9.92    266      -46.6
   11/05/2019 03:20      46.1      45.6       57     31.4      0.00      0.00      67.5     0.28      1016.3     0.3     SSE   155   0.8     SSE   165   9.92    266      -46.4
   11/05/2019 03:10      46.1      45.8       56     31.0      0.00      0.00      67.5     0.28      1016.3     0.0     SSE   148   0.6     SSE   148   9.92    266      -46.7
   11/05/2019 03:00      46.2      45.5       57     31.6      0.00      0.00      67.6     0.28      1016.3     0.2     SSE   147   0.7     SSE   148   9.92    266      -47.5
   11/05/2019 02:50      46.6      45.9       57     31.9      0.00      0.00      67.6     0.28      1016.3     0.0     SSE   147   0.5     SSE   147   9.92    266      -47.8
   11/05/2019 02:40      46.6      46.0       55     31.0      0.00      0.00      67.6     0.28      1016.3     0.5     SSE   154   0.9      SE   141   9.92    266      -47.6
   11/05/2019 02:30      46.8      46.0       55     30.9      0.00      0.00      67.7     0.28      1016.4     0.6     SSE   157   1.1       S   169   9.92    265      -47.8
   11/05/2019 02:20      46.7      46.3       54     30.9      0.00      0.00      67.7     0.28      1016.5     0.6     SSE   154   0.9     SSE   162   9.93    266      -48.1
   11/05/2019 02:10      46.6      46.2       54     30.5      0.00      0.00      67.7     0.28      1016.5     0.0     SSE   147   0.9     SSE   147   9.92    265      -48.5
   11/05/2019 02:00      46.9      46.2       56     31.7      0.00      0.00      67.7     0.28      1016.5     0.0       N     0   0.0     SSE   146   9.93    265      -48.4
   11/05/2019 01:50      47.6      46.5       54     31.1      0.00      0.00      67.8     0.28      1016.5     0.5     SSE   151   1.2      SE   146   9.93    265      -49.1
   11/05/2019 01:40      48.1      47.4       52     30.8      0.00      0.00      67.8     0.28      1016.5     0.2     SSE   149   0.7     SSE   149   9.93    265      -48.5
   11/05/2019 01:30      48.1      47.2       52     31.0      0.00      0.00      67.8     0.28      1016.6     0.0       N     0   0.0       E    96   9.93    265      -48.7
   11/05/2019 01:20      48.5      47.8       52     31.3      0.00      0.00      67.8     0.28      1016.6     0.0      SE   139   0.6     SSE   152   9.93    265      -49.2
   11/05/2019 01:10      48.7      48.1       52     31.6      0.00      0.00      67.8     0.28      1016.6     0.5     SSE   150   1.2     SSE   150   9.93    265      -48.8
   11/05/2019 01:00      48.6      48.1       56     33.3      0.00      0.00      67.8     0.28      1016.6     0.2      SE   146   0.7      SE   146   9.93    265      -49.5
   11/05/2019 00:50      48.9      48.1       56     33.7      0.00      0.00      67.9     0.28      1016.6     0.0       N     0   0.0      SE   145   9.93    264      -50.0
   11/05/2019 00:40      49.4      48.5       58     34.7      0.00      0.00      67.9     0.28      1016.6     0.3      SE   144   1.4      SE   139   9.93    265      -50.5
   11/05/2019 00:30      49.5      49.1       51     31.9      0.00      0.00      67.9     0.28      1016.7     0.4       S   170   0.9     SSE   151   9.93    264      -50.1
   11/05/2019 00:20      49.7      49.1       50     31.2      0.00      0.00      68.0     0.28      1016.7     0.2       S   179   0.8       S   178   9.93    264      -50.5
   11/05/2019 00:10      50.3      49.4       48     31.0      0.00      0.00      68.0     0.28      1016.7     0.4     SSE   156   1.0      SE   144   9.93    264      -50.6
   11/05/2019 00:00      50.4      49.7       46     30.0      0.00      0.00      68.0     0.28      1016.7     0.7     SSE   155   1.4     SSE   149   9.93    264      -50.7
   11/04/2019 23:50      50.2      49.7       47     30.5      0.00      0.00      68.0     0.28      1016.7     0.4     SSE   157   1.1     SSE   152   9.94    264      -52.0
   11/04/2019 23:40      50.5      49.7       46     30.2      0.00      0.00      68.0     0.28      1016.6     0.9     SSE   158   1.5     SSE   158   9.94    264      -52.9
   11/04/2019 23:30      51.0      50.3       44     29.6      0.00      0.00      68.0     0.28      1016.6     0.5     SSE   156   1.1     SSE   151   9.94    264      -53.2
   11/04/2019 23:20      51.4      50.6       42     28.9      0.00      0.00      68.0     0.28      1016.6     0.8     SSE   151   1.2      SE   144   9.94    264      -53.5
   11/04/2019 23:10      51.1      50.7       40     27.6      0.00      0.00      68.0     0.28      1016.7     0.7     SSE   158   1.6     SSE   155   9.94    264      -52.6
   11/04/2019 23:00      51.8      50.8       40     27.7      0.00      0.00      68.0     0.28      1016.6     0.5     SSE   155   1.0     SSE   163   9.94    264      -53.4
   11/04/2019 22:50      51.6      51.1       40     27.6      0.00      0.00      68.0     0.28      1016.5     0.4     SSE   168   1.0       S   190   9.94    263      -53.5
   11/04/2019 22:40      52.1      51.2       39     27.3      0.00      0.00      68.0     0.28      1016.5     0.0       S   183   0.7       S   184   9.94    263      -53.5
   11/04/2019 22:30      52.7      51.8       40     28.8      0.00      0.00      68.0     0.28      1016.5     0.0     SSE   149   0.9     SSE   148   9.94    263      -54.1
   11/04/2019 22:20      53.2      52.4       39     28.3      0.00      0.00      68.0     0.28      1016.4     0.6     SSE   153   1.2     SSE   151   9.94    263      -54.2
   11/04/2019 22:10      54.0      52.7       36     26.7      0.00      0.00      68.0     0.28      1016.4     0.6     SSE   154   1.1     SSE   151   9.94    263      -54.9
   11/04/2019 22:00      53.7      53.2       36     27.2      0.00      0.00      68.0     0.28      1016.4     0.2     SSE   157   1.0     SSE   155   9.95    263      -55.3
   11/04/2019 21:50      54.1      53.0       37     27.7      0.00      0.00      68.0     0.28      1016.4     0.3     SSE   164   1.4       S   179   9.95    263      -56.1
   11/04/2019 21:40      54.5      54.0       36     27.6      0.00      0.00      68.0     0.28      1016.3     1.6     SSE   147   2.9     SSE   149   9.95    263      -56.8
   11/04/2019 21:30      55.4      54.0       34     26.6      0.00      0.00      68.0     0.28      1016.3     1.1     SSE   153   1.9      SE   146   9.95    263      -55.9
   11/04/2019 21:20      55.9      55.1       31     25.2      0.00      0.00      68.0     0.28      1016.2     0.5     SSE   153   0.9     SSE   153   9.95    263      -55.9
   11/04/2019 21:10      55.9      55.5       30     24.4      0.00      0.00      68.0     0.28      1016.1     0.2     SSE   163   0.9     SSE   160   9.95    262      -56.0
   11/04/2019 21:00      56.4      55.5       30     24.9      0.00      0.00      68.0     0.28      1016.0     0.6     SSE   158   1.8      SE   144   9.95    262      -57.1
   11/04/2019 20:50      57.0      56.1       29     24.9      0.00      0.00      68.0     0.28      1015.9     1.2     SSE   152   2.2      SE   139   9.96    262      -58.3
   11/04/2019 20:40      58.2      56.9       27     23.7      0.00      0.00      67.9     0.28      1015.9     0.8     SSE   148   1.6      SE   140   9.96    262      -58.3
   11/04/2019 20:30      58.5      57.6       27     24.0      0.00      0.00      67.9     0.28      1015.8     0.7     SSE   153   1.2     SSE   153   9.96    262      -58.5
   11/04/2019 20:20      58.4      57.4       28     24.6      0.00      0.00      67.8     0.28      1015.6     0.4     SSW   194   1.9     WSW   249   9.96    262      -58.9
   11/04/2019 20:10      58.5      57.3       28     24.5      0.00      0.00      67.9     0.28      1015.4     0.4       E    83   2.6      SW   233   9.96    262      -59.5
   11/04/2019 20:00      59.0      58.3       27     24.4      0.00      0.00      67.8     0.28      1015.3     0.2     SSE   160   1.4       S   190   9.96    262      -59.2
   11/04/2019 19:50      59.3      58.4       26     24.4      0.00      0.00      67.8     0.28      1015.2     0.5     SSE   162   1.2     SSE   148   9.97    262      -59.2
   11/04/2019 19:40      60.4      59.0       26     24.7      0.00      0.00      67.8     0.28      1015.2     0.7      SE   143   1.6     ESE   115   9.97    262      -60.7
   11/04/2019 19:30      61.4      60.0       24     23.5      0.00      0.00      67.7     0.28      1015.1     1.0     SSE   150   1.9      SE   141   9.97    262      -61.9
   11/04/2019 19:20      61.5      60.9       23     23.4      0.00      0.00      67.7     0.28      1015.1     0.3       S   170   1.7       S   190   9.97    262      -63.5
   11/04/2019 19:10      63.7      61.3       23     24.2      0.00      0.00      67.7     0.28      1015.1     0.4      SE   139   1.9     ENE    69   9.97    262      -66.1
   11/04/2019 19:00      66.6      63.5       21     23.6      0.00      0.00      67.6     0.28      1015.1     0.7     ESE   123   1.4     ENE    78   9.98    262      -67.0
   11/04/2019 18:50      67.0      66.3       18     21.9      0.00      0.00      67.6     0.28      1015.0     1.8       S   183   4.0     SSW   209   9.98    262      -68.0
   11/04/2019 18:40      67.0      65.8       18     22.0      0.00      0.00      67.5     0.28      1015.0     2.5     SSW   192   5.3       S   188   9.98    262      -68.4
   11/04/2019 18:30      66.1      64.8       21     24.0      0.00      0.00      67.5     0.28      1014.9     1.3       S   184   2.9       S   170   9.98    262      -68.6
   11/04/2019 18:20      66.7      65.3       21     24.9      0.00      0.00      67.4     0.28      1014.9     1.2     SSE   157   3.9     SSE   156   9.99    262      -69.4
   11/04/2019 18:10      67.6      66.4       20     24.6      0.00      0.00      67.3     0.28      1014.8     1.4       S   171   3.6     SSW   194   9.99    261      -70.2
   11/04/2019 18:00      67.6      66.7       20     25.0      0.00      0.00      67.3     0.28      1014.7     1.6       S   183   2.7     SSE   166   9.99    261      -70.2
   11/04/2019 17:50      70.0      67.4       19     25.1      0.00      0.00      67.2     0.28      1014.6     0.9       S   170   1.9       S   180   9.99    261      -72.0
   11/04/2019 17:40      70.6      69.6       17     23.4      0.00      0.00      67.2     0.28      1014.5     1.8     SSW   193   2.6       S   185   9.99    261      -73.1
   11/04/2019 17:30      71.5      70.1       17     23.1      0.00      0.00      67.1     0.28      1014.4     1.7     SSW   193   2.4       S   190  10.00    261      -73.8
   11/04/2019 17:20      72.8      71.2       16     22.6      0.00      0.00      67.1     0.28      1014.4     1.7      SW   217   2.7      SW   220  10.00    261      -75.5
   11/04/2019 17:10      74.4      72.6       13     20.3      0.00      0.00      67.0     0.28      1014.2     1.6      SW   230   2.2     WSW   237  10.01    261      -76.9
   11/04/2019 17:00      75.7      74.2       13     21.6      0.00      0.00      66.9     0.28      1014.1     0.7     WNW   287   2.8       W   270  10.01    260      -78.2
   11/04/2019 16:50      76.9      75.3       13     22.3      0.00      0.00      66.9     0.28      1013.9     0.7     WNW   282   3.6       W   278  10.01    261      -76.0
   11/04/2019 16:40      78.2      76.7       13     22.1      0.00      0.00      66.8     0.28      1013.8     1.3       W   265   4.3     WSW   247  10.01    260      -73.8
   11/04/2019 16:30      79.2      78.0       13     22.9      0.00      0.00      66.7     0.28      1013.7     1.5       W   259   3.9      SW   222  10.02    260      -68.8
   11/04/2019 16:20      80.6      78.9       13     23.9      0.00      0.00      66.7     0.28      1013.6     2.4     WSW   247   5.3      SW   231  10.02    260      -68.5
   11/04/2019 16:10      81.2      80.3       14     26.5      0.00      0.00      66.6     0.28      1013.5     2.5       W   265   5.4     SSW   210  10.03    260      -30.9
   11/04/2019 16:00      81.5      80.9       14     26.8      0.00      0.00      66.5     0.28      1013.5     2.5     WSW   255   5.5     SSW   208  10.03    260       -3.0
   11/04/2019 15:50      82.9      81.0       13     27.1      0.00      0.00      66.5     0.28      1013.4     4.4       W   262   7.3     WSW   250  10.04    260       18.7
   11/04/2019 15:40      84.0      82.5       13     27.7      0.00      0.00      66.4     0.28      1013.3     2.5     WNW   287   5.2      NW   309  10.04    260       38.8
   11/04/2019 15:30      85.0      83.8       12     27.1      0.00      0.00      66.3     0.28      1013.3     2.4     WNW   286   5.1     WSW   256  10.05    260       61.0
   11/04/2019 15:20      86.4      84.6       11     26.0      0.00      0.00      66.3     0.28      1013.3     3.0       W   271   5.1      NW   325  10.05    260       78.6
   11/04/2019 15:10      86.9      86.1        9     20.8      0.00      0.00      66.2     0.28      1013.3     1.7     WNW   300   4.9     WNW   292  10.05    259       96.2
   11/04/2019 15:00      87.1      86.2        7     15.7      0.00      0.00      66.2     0.28      1013.3     1.5      NE    34   2.7     ENE    72  10.06    259      118.3
   11/04/2019 14:50      87.7      86.8        7     14.9      0.00      0.00      66.1     0.28      1013.3     1.2       N     4   4.1     NNE    23  10.06    259      142.4
   11/04/2019 14:40      87.2      86.1        6     13.5      0.00      0.00      66.0     0.28      1013.3     1.1     NNW   344   3.4     NNW   343  10.07    259      164.0
   11/04/2019 14:30      87.4      86.2        6     12.4      0.00      0.00      66.0     0.28      1013.3     1.7      NE    46   3.2       N     0  10.07    259      182.3
   11/04/2019 14:20      87.8      86.6        6     12.4      0.00      0.00      65.9     0.28      1013.3     1.2       N    10   5.0       N   355  10.08    259      199.9
   11/04/2019 14:10      88.2      87.1        6     12.9      0.00      0.00      65.9     0.28      1013.3     1.2       N   350   3.7       W   271  10.08    259      219.8
   11/04/2019 14:00      87.9      86.6        6     11.8      0.00      0.00      65.8     0.28      1013.3     0.7      NW   325   3.4     NNE    17  10.08    259      236.3
   11/04/2019 13:50      87.2      86.1        6     11.9      0.00      0.00      65.8     0.28      1013.5     1.1     WNW   286   2.7      SW   220  10.08    259      253.9
   11/04/2019 13:40      86.9      85.9        7     13.7      0.00      0.00      65.8     0.27      1013.5     2.0     NNW   327   4.2     NNW   338  10.09    259      271.4
   11/04/2019 13:30      87.6      86.3        6     13.9      0.00      0.00      65.7     0.27      1013.6     1.5     WNW   296   4.4     WNW   282  10.09    259      284.7
   11/04/2019 13:20      87.1      86.4        7     14.8      0.00      0.00      65.7     0.27      1013.7     1.5     NNE    28   2.6     NNE    33  10.10    259      295.2
   11/04/2019 13:10      86.9      86.0        7     15.8      0.00      0.00      65.7     0.27      1013.8     1.4       N     6   3.4     NNE    25  10.10    259      307.8
   11/04/2019 13:00      86.2      85.0        7     15.6      0.00      0.00      65.7     0.27      1013.9     1.8       N     4   3.7     NNE    16  10.10    259      321.1
   11/04/2019 12:50      86.3      85.0        8     16.3      0.00      0.00      65.6     0.27      1014.0     1.4     NNE    15   3.2     NNE    23  10.10    259      332.8
   11/04/2019 12:40      86.2      84.4        8     16.7      0.00      0.00      65.6     0.27      1014.1     1.2      NW   319   3.0     NNE    17  10.11    259      342.7
   11/04/2019 12:30      84.7      83.4        8     15.8      0.00      0.00      65.6     0.27      1014.2     1.0     NNE    25   3.6     NNE    18  10.11    259      350.9
   11/04/2019 12:20      84.1      83.2        8     15.8      0.00      0.00      65.6     0.27      1014.4     1.6      NE    36   3.1     NNE    18  10.11    259      358.1
   11/04/2019 12:10      84.6      83.1        8     16.4      0.00      0.00      65.6     0.27      1014.5     1.6     ENE    77   3.5     ESE   117  10.12    259      365.2
   11/04/2019 12:00      84.2      81.5       10     19.4      0.00      0.00      65.6     0.27      1014.6     0.8     SSE   149   2.3       E    92  10.12    259      370.7
   11/04/2019 11:50      81.8      81.3       11     21.6      0.00      0.00      65.6     0.27      1014.8     1.3       E    97   2.3      NE    38  10.12    260      372.8
   11/04/2019 11:40      81.9      80.9       11     22.8      0.00      0.00      65.6     0.27      1014.9     1.0     NNE    15   2.6     NNW   343  10.13    260      374.6
   11/04/2019 11:30      81.2      79.5       12     23.5      0.00      0.00      65.6     0.27      1015.0     1.2       N   354   3.5       N   353  10.13    260      374.6
   11/04/2019 11:20      80.1      78.8       12     23.3      0.00      0.00      65.6     0.27      1015.2     1.2       E    91   2.6     SSE   164  10.13    260      374.8
   11/04/2019 11:10      78.9      78.1       13     23.0      0.00      0.00      65.7     0.27      1015.3     1.4     NNE    12   3.7      NE    37  10.14    260      370.8
   11/04/2019 11:00      78.3      77.3       13     23.1      0.00      0.00      65.7     0.27      1015.5     1.3     NNE    18   2.4     NNE    19  10.14    260      365.5
   11/04/2019 10:50      77.6      76.8       13     23.0      0.00      0.00      65.7     0.27      1015.6     1.6     NNE    14   3.8     NNE    27  10.14    260      361.0
   11/04/2019 10:40      77.5      76.5       14     24.4      0.00      0.00      65.7     0.27      1015.7     1.3       N    11   2.9     NNE    27  10.15    260      355.2
   11/04/2019 10:30      76.9      74.5       15     25.2      0.00      0.00      65.8     0.27      1015.8     0.8      NE    43   2.7     ENE    60  10.15    260      349.5
   11/04/2019 10:20      75.0      73.9       16     24.6      0.00      0.00      65.8     0.27      1015.9     1.2     NNE    24   2.6     NNE    26  10.16    260      341.0
   11/04/2019 10:10      74.4      73.1       17     26.4      0.00      0.00      65.8     0.27      1016.0     1.3     NNE    29   2.5     ENE    66  10.16    260      333.0
   11/04/2019 10:00      73.5      72.7       18     27.4      0.00      0.00      65.8     0.27      1016.1     1.1     NNE    31   2.4     ENE    61  10.17    261      322.6
   11/04/2019 09:50      73.0      70.9       20     28.2      0.00      0.00      65.9     0.27      1016.2     0.9     NNE    26   2.8     NNE    30  10.18    261      311.4
   11/04/2019 09:40      71.2      70.1       23     30.5      0.00      0.00      65.9     0.27      1016.2     1.4     NNE    17   3.2       N     0  10.19    261      296.4
   11/04/2019 09:30      70.3      69.2       24     30.8      0.00      0.00      65.9     0.27      1016.2     1.3       N     8   3.6     NNE    24  10.21    261      281.5
   11/04/2019 09:20      69.5      68.7       24     30.9      0.00      0.00      66.0     0.27      1016.2     1.1       N     4   2.0       N   354  10.23    261      264.8
   11/04/2019 09:10      69.0      67.5       25     30.8      0.00      0.00      66.0     0.27      1016.3     0.5     NNE    30   1.9     NNE    26  10.26    261      248.7
   11/04/2019 09:00      67.9      67.1       25     30.4      0.00      0.00      66.1     0.27      1016.3     0.6     NNE    25   1.6     NNE    22  10.29    261      232.0
   11/04/2019 08:50      67.4      65.7       26     30.7      0.00      0.00      66.1     0.27      1016.4     0.0     NNE    13   0.7     NNW   327   9.28    261      215.3
   11/04/2019 08:40      65.9      63.8       28     31.3      0.00      0.00      66.2     0.27      1016.4     0.4     NNE    21   1.4       N     0   9.28    262      200.3
   11/04/2019 08:30      64.0      62.4       31     31.6      0.00      0.00      66.2     0.27      1016.4     0.1       N     7   0.8     NNW   344   9.28    262      183.2
   11/04/2019 08:20      62.4      61.2       32     32.0      0.00      0.00      66.3     0.27      1016.5     0.4     ENE    64   0.7     ENE    71   9.28    262      166.1
   11/04/2019 08:10      61.3      60.4       33     31.7      0.00      0.00      66.3     0.27      1016.5     0.2     ENE    63   0.6     ENE    73   9.28    262      151.2
   11/04/2019 08:00      60.6      59.3       33     31.2      0.00      0.00      66.3     0.27      1016.4     0.2     ENE    61   0.6     ENE    77   9.28    262      135.8
   11/04/2019 07:50      59.8      57.6       33     30.4      0.00      0.00      66.4     0.27      1016.3     0.0       N     0   0.0     SSE   150   9.28    263      120.5
   11/04/2019 07:40      57.6      55.2       37     30.0      0.00      0.00      66.4     0.28      1016.3     0.0       N     0   0.0     SSE   150   9.28    265       52.5
   11/04/2019 07:30      55.4      50.8       41     29.7      0.00      0.00      66.4     0.27      1016.2     0.0       N     0   0.0     SSE   150   9.28    265       62.9
   11/04/2019 07:20      50.8      48.6       46     29.4      0.00      0.00      66.5     0.27      1016.1     0.0       N     0   0.0     SSE   151   9.28    266        0.9
   11/04/2019 07:10      48.7      45.2       49     28.2      0.00      0.00      66.5     0.27      1016.0     0.0       N     0   0.0     SSE   151   9.28    266      -25.3
   11/04/2019 07:00      45.2      43.8       52     27.5      0.00      0.00      66.5     0.27      1015.9     0.0       N     0   0.0     SSE   151   9.28    266      -25.6
   11/04/2019 06:50      43.9      43.0       55     28.2      0.00      0.00      66.6     0.27      1015.9     0.0     SSE   151   0.0     SSE   151   9.29    266      -29.3
   11/04/2019 06:40      43.1      42.5       56     28.1      0.00      0.00      66.6     0.27      1015.7     0.5     SSE   151   0.9     SSE   151   9.29    266      -34.0
   11/04/2019 06:30      43.0      42.3       55     27.4      0.00      0.00      66.6     0.27      1015.6     0.0     SSE   151   0.8     SSE   151   9.29    266      -38.5
   11/04/2019 06:20      43.0      42.2       55     27.6      0.00      0.00      66.7     0.28      1015.6     0.0     SSE   151   0.3     SSE   151   9.29    266      -42.4
   11/04/2019 06:10      43.3      42.6       54     27.6      0.00      0.00      66.7     0.28      1015.5     0.0     SSE   151   0.7     SSE   151   9.29    266      -44.2
   11/04/2019 06:00      43.1      42.3       54     27.2      0.00      0.00      66.7     0.28      1015.4     0.3     SSE   151   1.0     SSE   151   9.29    266      -45.1
   11/04/2019 05:50      43.0      42.5       53     26.8      0.00      0.00      66.8     0.28      1015.3     0.0       N     0   0.0     SSE   151   9.29    266      -46.1
   11/04/2019 05:40      43.5      42.7       55     27.8      0.00      0.00      66.8     0.28      1015.3     0.0     SSE   152   0.5     SSE   151   9.29    266      -45.3
   11/04/2019 05:30      43.4      43.0       57     29.1      0.00      0.00      66.9     0.28      1015.4     0.2     SSE   162   0.9     SSE   154   9.29    266      -45.9
   11/04/2019 05:20      43.2      42.2       58     28.7      0.00      0.00      66.9     0.28      1015.4     0.3     SSE   158   1.0     SSE   156   9.29    266      -46.4
   11/04/2019 05:10      43.0      42.4       56     27.9      0.00      0.00      66.9     0.28      1015.4     0.3     SSE   151   0.8     SSE   151   9.29    266      -47.3
   11/04/2019 05:00      43.3      42.6       55     27.8      0.00      0.00      66.9     0.28      1015.4     0.3     SSE   153   0.9     SSE   151   9.29    266      -47.2
   11/04/2019 04:50      43.5      42.8       55     28.2      0.00      0.00      67.0     0.28      1015.4     0.0       N     0   0.0     SSE   158   9.29    266      -47.3
   11/04/2019 04:40      43.4      43.0       52     26.7      0.00      0.00      67.0     0.28      1015.3     0.4       S   181   1.3       S   182   9.29    266      -46.8
   11/04/2019 04:30      44.3      43.1       54     27.9      0.00      0.00      67.0     0.28      1015.3     0.0     SSE   150   0.6     SSE   150   9.29    265      -47.3
   11/04/2019 04:20      44.4      43.9       51     26.9      0.00      0.00      67.0     0.28      1015.2     0.0     SSE   150   0.6     SSE   150   9.29    265      -46.5
   11/04/2019 04:10      44.4      43.9       51     27.1      0.00      0.00      67.1     0.28      1015.2     0.2       S   181   1.0       S   181   9.29    265      -47.3
   11/04/2019 04:00      44.5      43.9       52     27.5      0.00      0.00      67.1     0.28      1015.1     0.0     SSE   160   0.5     SSE   160   9.29    265      -47.4
   11/04/2019 03:50      44.8      44.0       49     26.3      0.00      0.00      67.1     0.28      1015.1     0.0       S   180   0.7       S   184   9.29    265      -47.3
   11/04/2019 03:40      44.9      44.5       47     25.8      0.00      0.00      67.2     0.28      1015.1     0.2     SSE   163   0.7     SSE   159   9.29    265      -47.3
   11/04/2019 03:30      44.7      44.2       46     24.8      0.00      0.00      67.2     0.28      1015.2     0.2     SSW   209   0.8     SSW   209   9.29    265      -47.3
   11/04/2019 03:20      44.8      44.4       48     25.9      0.00      0.00      67.2     0.28      1015.2     0.0     SSE   151   0.7     SSE   151   9.29    265      -47.8
   11/04/2019 03:10      45.0      44.5       45     24.6      0.00      0.00      67.2     0.28      1015.2     0.2     SSE   159   0.7     SSE   152   9.29    264      -47.5
   11/04/2019 03:00      46.1      44.7       45     25.4      0.00      0.00      67.3     0.28      1015.2     0.0     SSE   167   0.5     SSE   167   9.29    264      -48.2
   11/04/2019 02:50      46.3      45.8       42     24.4      0.00      0.00      67.3     0.28      1015.2     0.0     SSE   167   0.6     SSE   167   9.29    264      -48.0
   11/04/2019 02:40      46.1      45.6       43     24.7      0.00      0.00      67.3     0.28      1015.2     0.0     SSE   151   0.7     SSE   153   9.29    264      -47.6
   11/04/2019 02:30      46.5      45.7       42     24.3      0.00      0.00      67.3     0.28      1015.2     0.1     SSE   152   0.9     SSE   149   9.29    264      -48.0
   11/04/2019 02:20      46.6      46.0       40     23.6      0.00      0.00      67.3     0.28      1015.3     0.0       N     0   0.0     SSE   157   9.30    264      -47.8
   11/04/2019 02:10      46.6      45.8       45     25.9      0.00      0.00      67.4     0.28      1015.4     0.5     SSE   159   1.2     SSE   162   9.30    264      -48.3
   11/04/2019 02:00      46.4      46.1       42     24.5      0.00      0.00      67.4     0.28      1015.5     0.1     SSE   166   0.6     SSE   155   9.30    264      -48.8
   11/04/2019 01:50      46.8      45.9       44     25.6      0.00      0.00      67.4     0.28      1015.5     0.2     SSE   163   0.8     SSE   151   9.30    264      -49.5
   11/04/2019 01:40      46.9      46.4       43     25.2      0.00      0.00      67.5     0.28      1015.5     0.0       N     0   0.0     SSE   151   9.30    264      -49.3
   11/04/2019 01:30      47.1      46.4       42     24.7      0.00      0.00      67.5     0.28      1015.5     0.0       N     0   0.0     SSE   151   9.30    264      -49.5
   11/04/2019 01:20      47.3      46.8       45     26.5      0.00      0.00      67.5     0.28      1015.4     0.3     SSE   154   0.9     SSE   152   9.30    264      -49.5
   11/04/2019 01:10      47.6      46.7       45     26.8      0.00      0.00      67.5     0.28      1015.4     0.4     SSE   156   1.0     SSE   160   9.30    264      -49.2
   11/04/2019 01:00      47.4      46.9       42     25.4      0.00      0.00      67.5     0.28      1015.4     0.3       S   190   0.8     SSW   197   9.30    264      -49.4
   11/04/2019 00:50      47.8      47.1       45     27.1      0.00      0.00      67.5     0.28      1015.4     0.0     SSW   196   0.0     SSW   196   9.30    264      -50.0
   11/04/2019 00:40      48.1      47.5       45     27.5      0.00      0.00      67.5     0.28      1015.4     0.2     SSE   148   1.0      SE   142   9.30    264      -50.1
   11/04/2019 00:30      48.0      47.5       45     27.4      0.00      0.00      67.6     0.28      1015.5     0.3     SSE   159   1.1       S   174   9.30    264      -50.2
   11/04/2019 00:20      48.5      47.7       42     26.4      0.00      0.00      67.6     0.28      1015.5     0.4     SSE   161   0.9     SSE   154   9.30    264      -50.1
   11/04/2019 00:10      48.5      47.8       44     27.4      0.00      0.00      67.6     0.28      1015.6     0.3     SSW   201   1.4     SSW   210   9.30    264      -50.2
   11/04/2019 00:00      48.7      48.0       43     26.6      0.00      0.00      67.6     0.28      1015.5     0.2     SSE   149   0.8     SSE   160   9.30    264      -50.7
   11/03/2019 23:50      49.2      48.3       44     27.7      0.00      0.00      67.6     0.28      1015.5     0.2       S   171   0.8     SSE   153   9.30    264      -50.8
   11/03/2019 23:40      50.2      49.1       42     27.3      0.00      0.00      67.7     0.28      1015.5     0.4     SSE   154   1.0     SSE   150   9.30    264      -51.1
   11/03/2019 23:30      50.1      49.4       41     26.8      0.00      0.00      67.6     0.28      1015.5     0.1     SSE   153   0.6     SSE   153   9.30    264      -51.1
   11/03/2019 23:20      49.9      49.3       44     28.1      0.00      0.00      67.6     0.28      1015.4     0.2     SSE   151   0.7     SSE   152   9.31    264      -52.1
   11/03/2019 23:10      51.0      49.5       42     28.0      0.00      0.00      67.7     0.28      1015.4     0.7     SSE   161   1.0     SSE   161   9.31    264      -52.6
   11/03/2019 23:00      51.4      50.7       39     26.9      0.00      0.00      67.7     0.28      1015.4     0.1     SSE   155   0.9     SSE   153   9.31    264      -51.8
   11/03/2019 22:50      51.3      50.9       40     27.9      0.00      0.00      67.7     0.28      1015.4     0.4     SSE   159   1.4       S   179   9.31    264      -51.8
   11/03/2019 22:40      51.3      50.7       42     28.6      0.00      0.00      67.6     0.28      1015.3     0.3     SSE   167   0.8      SE   145   9.31    264      -52.7
   11/03/2019 22:30      51.2      50.8       41     28.1      0.00      0.00      67.7     0.28      1015.3     0.7     SSE   152   1.3     SSE   152   9.31    264      -52.5
   11/03/2019 22:20      51.9      50.9       39     27.5      0.00      0.00      67.7     0.28      1015.4     0.9     SSE   163   1.4       S   178   9.31    264      -52.8
   11/03/2019 22:10      52.1      51.0       40     27.6      0.00      0.00      67.6     0.28      1015.3     0.5     SSE   162   1.1      SE   136   9.31    264      -53.3
   11/03/2019 22:00      52.2      51.6       35     25.4      0.00      0.00      67.6     0.28      1015.2     0.0     SSE   160   0.6      SE   137   9.31    264      -52.5
   11/03/2019 21:50      52.6      51.6       38     27.2      0.00      0.00      67.7     0.28      1015.1     0.3     SSE   163   1.1     SSE   163   9.31    263      -53.4
   11/03/2019 21:40      52.9      52.2       39     28.4      0.00      0.00      67.6     0.28      1015.1     0.0     SSE   162   0.6     SSE   163   9.31    264      -53.7
   11/03/2019 21:30      53.0      52.5       40     29.1      0.00      0.00      67.6     0.28      1015.1     0.6       S   170   1.2     SSE   155   9.31    264      -53.9
   11/03/2019 21:20      53.6      52.6       40     29.0      0.00      0.00      67.6     0.28      1015.0     0.4     SSE   165   1.0     SSE   157   9.32    264      -54.2
   11/03/2019 21:10      54.3      53.2       38     28.5      0.00      0.00      67.6     0.28      1014.9     0.6     SSE   155   1.4     SSE   157   9.32    263      -55.2
   11/03/2019 21:00      54.9      54.1       36     27.9      0.00      0.00      67.6     0.28      1014.8     0.7     SSE   168   1.3       S   188   9.32    263      -54.4
   11/03/2019 20:50      54.8      54.4       35     27.4      0.00      0.00      67.6     0.28      1014.8     0.4       S   186   0.9     SSW   211   9.32    263      -55.0
   11/03/2019 20:40      55.1      54.5       36     28.0      0.00      0.00      67.5     0.28      1014.8     0.1     SSE   159   0.7     SSE   162   9.32    263      -56.7
   11/03/2019 20:30      55.4      54.7       35     27.7      0.00      0.00      67.5     0.28      1014.8     0.1     SSE   161   0.7     SSE   165   9.32    263      -56.8
   11/03/2019 20:20      55.9      54.9       37     29.7      0.00      0.00      67.5     0.28      1014.7     0.4     SSE   162   1.4     SSE   148   9.32    263      -58.5
   11/03/2019 20:10      56.0      55.4       37     29.5      0.00      0.00      67.5     0.28      1014.7     1.1     SSE   148   2.1      SE   142   9.32    263      -58.2
   11/03/2019 20:00      57.3      55.9       34     28.5      0.00      0.00      67.4     0.28      1014.7     0.9     SSE   153   1.4     SSE   160   9.33    263      -57.2
   11/03/2019 19:50      57.3      57.0       33     28.6      0.00      0.00      67.4     0.28      1014.6     0.4     SSE   148   0.8      SE   141   9.33    263      -58.5
   11/03/2019 19:40      57.4      57.0       32     27.7      0.00      0.00      67.4     0.28      1014.5     0.4     SSW   202   2.5       S   180   9.33    262      -59.9
   11/03/2019 19:30      58.0      57.1       34     29.7      0.00      0.00      67.3     0.28      1014.5     0.3       S   172   1.7       S   182   9.33    262      -60.7
   11/03/2019 19:20      58.8      57.7       34     29.9      0.00      0.00      67.3     0.28      1014.4     0.6     SSE   158   1.1      SE   143   9.33    262      -60.8
   11/03/2019 19:10      59.6      58.5       33     29.7      0.00      0.00      67.3     0.28      1014.4     0.4     SSE   163   1.2      SE   144   9.33    262      -61.2
   11/03/2019 19:00      60.2      59.1       33     30.2      0.00      0.00      67.2     0.28      1014.5     1.1     SSE   158   1.7      SE   132   9.33    262      -62.4
   11/03/2019 18:50      60.8      59.8       32     30.5      0.00      0.00      67.2     0.28      1014.4     0.9     SSE   164   1.9       S   179   9.33    262      -63.3
   11/03/2019 18:40      61.3      60.5       32     30.6      0.00      0.00      67.1     0.28      1014.4     1.0     SSE   154   1.8     SSE   160   9.34    262      -65.4
   11/03/2019 18:30      62.4      61.0       30     29.9      0.00      0.00      67.0     0.28      1014.4     1.0     SSE   155   1.8     SSE   155   9.34    262      -65.5
   11/03/2019 18:20      63.0      62.1       27     28.0      0.00      0.00      67.0     0.28      1014.4     1.0     SSE   164   2.1     SSE   150   9.34    262      -65.8
   11/03/2019 18:10      64.0      62.5       27     28.1      0.00      0.00      66.9     0.28      1014.4     0.6     SSE   161   1.2       S   179   9.34    261      -67.3
   11/03/2019 18:00      65.5      63.7       24     27.2      0.00      0.00      66.9     0.28      1014.3     0.7     SSE   163   1.5       S   172   9.34    261      -68.9
   11/03/2019 17:50      68.8      65.2       20     24.1      0.00      0.00      66.8     0.28      1014.2     1.2     SSE   153   2.1     SSE   160   9.34    261      -69.5
   11/03/2019 17:40      71.7      68.8       17     22.9      0.00      0.00      66.8     0.28      1014.2     1.2      SW   223   2.5      SW   230   9.35    261      -69.6
   11/03/2019 17:30      72.9      71.3       15     22.7      0.00      0.00      66.7     0.28      1014.1     0.4     NNW   342   1.7      NW   304   9.35    260      -74.6
   11/03/2019 17:20      73.5      72.6       14     21.7      0.00      0.00      66.6     0.28      1014.0     1.5       W   273   3.6       W   266   9.35    261      -74.7
   11/03/2019 17:10      74.5      73.2       13     20.6      0.00      0.00      66.5     0.28      1014.0     2.1     WSW   251   4.4     WSW   245   9.35    260      -73.3
   11/03/2019 17:00      75.7      74.2       13     21.3      0.00      0.00      66.5     0.28      1013.9     2.1     WSW   256   5.0     WSW   247   9.36    260      -71.5
   11/03/2019 16:50      76.9      75.4       15     24.9      0.00      0.00      66.5     0.28      1013.8     1.9       W   278   3.9     WNW   299   9.36    260      -68.7
   11/03/2019 16:40      78.2      76.5       16     27.2      0.00      0.00      66.3     0.28      1013.8     1.1     WNW   297   2.7      NW   305   9.36    260      -63.8
   11/03/2019 16:30      78.9      77.8       13     22.8      0.00      0.00      66.3     0.28      1013.7     1.8       W   279   4.4     WNW   285   9.37    260      -52.4
   11/03/2019 16:20      80.2      78.5        8     12.4      0.00      0.00      66.2     0.28      1013.6     2.6     WSW   245   4.8     WSW   258   9.37    260      -53.6
   11/03/2019 16:10      80.6      79.9        9     15.1      0.00      0.00      66.2     0.28      1013.6     1.8     WSW   242   3.3      SW   235   9.37    259       -4.3
   11/03/2019 16:00      80.7      80.1       13     25.8      0.00      0.00      66.1     0.28      1013.5     1.5     SSW   194   3.6     SSW   194   9.37    260       29.5
   11/03/2019 15:50      80.6      80.0       13     24.9      0.00      0.00      66.0     0.28      1013.5     2.0       S   190   3.7      SW   215   9.38    260       54.9
   11/03/2019 15:40      80.8      79.8       12     22.2      0.00      0.00      66.0     0.28      1013.4     1.6       S   186   3.7      SW   217   9.38    260        5.9
   11/03/2019 15:30      81.2      80.1       10     19.4      0.00      0.00      65.9     0.28      1013.4     3.2       S   186   5.2      SE   140   9.38    260       45.1
   11/03/2019 15:20      81.7      80.3        9     17.9      0.00      0.00      65.8     0.28      1013.4     4.0     SSE   163   6.5     SSE   158   9.38    260       63.2
   11/03/2019 15:10      82.6      81.4       10     19.7      0.00      0.00      65.8     0.28      1013.4     4.4       S   187   7.4     SSW   196   9.39    260      134.4
   11/03/2019 15:00      83.4      81.8       10     19.3      0.00      0.00      65.7     0.28      1013.4     4.4     SSW   205   7.7      SW   221   9.39    260      155.1
   11/03/2019 14:50      83.3      82.4        9     18.5      0.00      0.00      65.7     0.28      1013.5     3.4       S   174   7.4       S   183   9.39    259      172.5
   11/03/2019 14:40      83.5      82.6        9     17.8      0.00      0.00      65.6     0.27      1013.5     3.8     SSW   193   5.7       S   183   9.40    259      192.9
   11/03/2019 14:30      84.1      83.0        9     18.4      0.00      0.00      65.6     0.28      1013.5     4.4       S   190   6.9      SW   228   9.40    259      207.9
   11/03/2019 14:20      84.1      83.4        9     18.8      0.00      0.00      65.5     0.27      1013.5     3.5       S   178   6.6     SSW   202   9.40    259      220.0
   11/03/2019 14:10      85.0      83.5        8     17.6      0.00      0.00      65.5     0.27      1013.6     3.2      SE   145   7.8      SE   125   9.40    259      234.6
   11/03/2019 14:00      86.3      84.6        8     17.8      0.00      0.00      65.4     0.27      1013.6     1.8     ESE   113   5.4      SE   145   9.40    259      244.4
   11/03/2019 13:50      86.0      85.2        8     17.1      0.00      0.00      65.4     0.27      1013.7     1.1     NNE    30   2.7      NE    41   9.40    259      257.9
   11/03/2019 13:40      86.0      84.5        8     17.2      0.00      0.00      65.3     0.27      1013.8     1.0     SSE   156   2.1      SW   229   9.40    259      272.5
   11/03/2019 13:30      84.9      83.9        8     16.5      0.00      0.00      65.3     0.27      1013.8     2.1     ENE    70   4.4       S   183   9.41    259      290.0
   11/03/2019 13:20      84.8      83.9        8     17.6      0.00      0.00      65.3     0.27      1013.9     1.3     ESE   123   3.5       E   100   9.41    259      303.8
   11/03/2019 13:10      84.7      83.5        9     18.1      0.00      0.00      65.2     0.27      1014.1     1.6     ESE   121   4.6     ESE   112   9.41    259      316.9
   11/03/2019 13:00      83.9      82.8        8     16.9      0.00      0.00      65.2     0.27      1014.2     1.5       E    86   4.4      SE   146   9.41    259      325.5
   11/03/2019 12:50      83.7      82.3        8     16.8      0.00      0.00      65.2     0.27      1014.4     1.8     SSE   151   4.1      SE   140   9.41    259      337.5
   11/03/2019 12:40      83.6      82.8        8     16.4      0.00      0.00      65.2     0.27      1014.5     1.5     ESE   122   3.5       S   183   9.41    259      345.6
   11/03/2019 12:30      84.5      82.6        8     16.9      0.00      0.00      65.1     0.27      1014.6     1.4       N     9   3.7     NNE    13   9.41    259      353.4
   11/03/2019 12:20      83.1      82.5        8     16.1      0.00      0.00      65.1     0.27      1014.7     1.4      NE    46   3.3     NNE    21   9.41    259      359.5
   11/03/2019 12:10      82.7      81.2        8     15.8      0.00      0.00      65.1     0.27      1014.8     1.1       N     5   3.1       N   354   9.41    259      366.3
   11/03/2019 12:00      82.5      80.8        8     15.0      0.00      0.00      65.1     0.27      1015.0     1.8     SSE   146   4.8      SE   127   9.41    259      373.0
   11/03/2019 11:50      82.2      80.7        8     14.0      0.00      0.00      65.1     0.27      1015.2     1.5       E    90   4.4      NE    40   9.41    259      374.8
   11/03/2019 11:40      82.2      80.7        8     13.6      0.00      0.00      65.1     0.27      1015.4     1.1      NE    41   2.9     ENE    61   9.41    259      376.1
   11/03/2019 11:30      80.9      79.6        8     12.5      0.00      0.00      65.1     0.27      1015.5     1.2     NNW   336   3.0     NNW   344   9.41    259      376.8
   11/03/2019 11:20      79.8      78.6        8     13.6      0.00      0.00      65.2     0.27      1015.7     1.4     NNE    20   3.2     NNW   342   9.41    259      375.9
   11/03/2019 11:10      79.0      78.3        8     11.5      0.00      0.00      65.2     0.27      1015.8     1.9       N     9   3.9     NNE    29   9.41    259      372.5
   11/03/2019 11:00      79.5      78.4        9     15.8      0.00      0.00      65.2     0.27      1016.0     1.5       N     8   4.0      NE    41   9.41    259      369.5
   11/03/2019 10:50      78.7      76.9        9     14.7      0.00      0.00      65.2     0.27      1016.0     0.8     NNE    13   1.9     ESE   121   9.41    259      364.6
   11/03/2019 10:40      78.1      76.8       10     16.4      0.00      0.00      65.3     0.27      1016.2     1.8       N     9   3.5     NNW   346   9.41    259      359.6
   11/03/2019 10:30      78.1      77.3       10     17.5      0.00      0.00      65.3     0.27      1016.3     0.6     NNE    18   2.8      NE    54   9.41    260      354.4
   11/03/2019 10:20      77.8      75.3       10     15.7      0.00      0.00      65.3     0.27      1016.4     0.8     ESE   114   3.0       E    87   9.41    260      347.8
   11/03/2019 10:10      75.7      74.8       11     16.3      0.00      0.00      65.4     0.27      1016.4     1.1     SSE   153   3.0      SE   133   9.41    260      338.3
   11/03/2019 10:00      75.2      74.2       11     17.3      0.00      0.00      65.4     0.27      1016.5     1.1     SSE   153   2.4     SSE   151   9.41    260      329.3
   11/03/2019 09:50      74.5      72.5       13     19.0      0.00      0.00      65.4     0.27      1016.6     0.7       S   172   2.2     SSE   158   9.41    260      318.3
   11/03/2019 09:40      72.7      71.4       12     17.1      0.00      0.00      65.5     0.27      1016.7     0.7      SE   131   2.1      SE   132   9.41    260      303.2
   11/03/2019 09:30      71.6      70.2       13     17.3      0.00      0.00      65.5     0.27      1016.8     0.3     ENE    67   1.7     ENE    71   9.41    260      290.0
   11/03/2019 09:20      70.3      67.5       16     20.5      0.00      0.00      65.6     0.27      1016.9     0.2       N     6   0.9      NW   312   9.41    260      271.5
   11/03/2019 09:10      67.7      66.1       19     23.1      0.00      0.00      65.6     0.27      1017.0     0.6     NNE    12   1.7       N   353   9.41    261      256.8
   11/03/2019 09:00      66.2      65.3       19     22.7      0.00      0.00      65.6     0.27      1017.1     0.8       N     8   2.1     NNE    28   9.42    261      241.0
   11/03/2019 08:50      65.5      64.9       20     22.7      0.00      0.00      65.7     0.27      1017.1     0.8       N     0   2.0     NNE    26   9.42    261      224.7
   11/03/2019 08:40      64.9      61.8       24     26.1      0.00      0.00      65.7     0.27      1017.1     0.1      NW   313   0.9     WNW   301   9.42    261      208.7
   11/03/2019 08:30      61.8      59.2       30     28.3      0.00      0.00      65.8     0.27      1017.3     0.6     NNE    27   2.1     NNE    15   9.41    262      190.8
   11/03/2019 08:20      59.6      58.0       33     30.0      0.00      0.00      65.8     0.27      1017.3     0.7     NNE    21   1.9     NNE    22   9.41    262      174.3
   11/03/2019 08:10      57.9      55.6       35     29.5      0.00      0.00      65.8     0.27      1017.3     0.6      NE    43   1.8       N     8   9.42    262      158.6
   11/03/2019 08:00      56.9      55.5       36     29.7      0.00      0.00      65.9     0.27      1017.2     0.7     NNE    20   2.0     NNE    22   9.42    263      142.8
   11/03/2019 07:50      55.7      54.2       38     29.3      0.00      0.00      65.9     0.27      1017.2     0.1      NE    39   0.9      NE    41   9.42    263      115.9
   11/03/2019 07:40      55.1      53.9       37     28.7      0.00      0.00      66.0     0.27      1017.0     0.0     ESE   113   0.0     ESE   112   9.41    265       31.9
   11/03/2019 07:30      53.9      49.4       41     28.7      0.00      0.00      66.0     0.27      1017.0     0.0       N     0   0.0      SE   131   9.42    266       51.9
   11/03/2019 07:20      49.6      45.6       48     28.5      0.00      0.00      66.0     0.27      1016.9     0.0     NNE    23   1.0     NNE    23   9.42    266       17.8
   11/03/2019 07:10      45.7      42.1       55     28.5      0.00      0.00      66.1     0.27      1016.8     0.3     SSE   150   1.4     SSE   147   9.42    266      -27.6
   11/03/2019 07:00      42.2      40.9       59     28.1      0.00      0.00      66.1     0.27      1016.7     0.6     SSE   147   1.2     SSE   147   9.42    266      -27.2
   11/03/2019 06:50      41.2      40.8       58     27.4      0.00      0.00      66.1     0.27      1016.7     0.2     SSE   148   1.0     SSE   147   9.42    266      -30.8
   11/03/2019 06:40      41.1      40.2       56     26.2      0.00      0.00      66.2     0.27      1016.5     0.2     SSE   162   0.9     SSW   199   9.42    266      -34.5
   11/03/2019 06:30      40.9      40.1       59     27.3      0.00      0.00      66.2     0.27      1016.4     0.1     SSE   155   1.0     SSE   154   9.42    266      -39.3
   11/03/2019 06:20      40.6      40.1       57     26.4      0.00      0.00      66.3     0.27      1016.3     0.0       N     0   0.0     SSE   159   9.42    266      -42.7
   11/03/2019 06:10      41.0      40.1       57     26.4      0.00      0.00      66.3     0.27      1016.2     0.1     SSE   159   0.9     SSE   159   9.42    266      -45.5
   11/03/2019 06:00      40.9      40.3       56     26.3      0.00      0.00      66.3     0.27      1016.1     0.0     SSE   159   0.6     SSE   159   9.42    266      -45.8
   11/03/2019 05:50      41.1      40.1       58     26.9      0.00      0.00      66.3     0.27      1016.2     0.0     SSE   160   0.7     SSE   160   9.42    266      -46.3
   11/03/2019 05:40      40.9      40.4       60     27.8      0.00      0.00      66.4     0.27      1016.1     0.2     SSE   161   1.1     SSE   161   9.42    266      -46.4
   11/03/2019 05:30      41.0      40.3       56     26.1      0.00      0.00      66.4     0.28      1016.1     0.5     SSE   161   1.2     SSE   152   9.42    266      -46.8
   11/03/2019 05:20      41.0      40.2       56     26.3      0.00      0.00      66.5     0.27      1016.1     0.2     SSE   150   1.1      SE   139   9.42    266      -47.0
   11/03/2019 05:10      41.5      40.8       54     25.8      0.00      0.00      66.5     0.28      1016.1     0.5     SSE   153   1.4      SE   146   9.42    266      -47.0
   11/03/2019 05:00      41.4      40.9       55     26.3      0.00      0.00      66.5     0.28      1016.1     0.0       E   100   0.7     SSE   155   9.42    266      -46.9
   11/03/2019 04:50      41.0      40.4       56     26.2      0.00      0.00      66.5     0.28      1016.1     0.6     SSE   156   1.3     SSE   154   9.42    266      -47.5
   11/03/2019 04:40      41.8      40.8       54     25.7      0.00      0.00      66.6     0.28      1016.1     0.1      SE   128   1.2      SE   132   9.42    266      -47.9
   11/03/2019 04:30      41.7      41.3       52     25.4      0.00      0.00      66.6     0.28      1016.1     0.2       S   172   1.1     SSE   150   9.42    266      -47.3
   11/03/2019 04:20      42.0      41.2       56     27.1      0.00      0.00      66.6     0.28      1016.1     0.2       S   182   1.2       S   178   9.42    265      -47.8
   11/03/2019 04:10      42.1      41.6       56     27.2      0.00      0.00      66.6     0.28      1016.1     0.4     SSE   161   1.4     SSE   161   9.42    266      -47.7
   11/03/2019 04:00      42.2      41.7       53     26.3      0.00      0.00      66.7     0.28      1016.1     0.7     SSE   156   1.2     SSE   161   9.42    265      -47.9
   11/03/2019 03:50      42.6      42.0       51     25.3      0.00      0.00      66.7     0.28      1016.1     0.2       S   189   1.1       S   189   9.42    265      -48.3
   11/03/2019 03:40      42.7      42.2       52     25.9      0.00      0.00      66.8     0.28      1016.1     0.1       S   176   0.6       S   176   9.42    265      -48.2
   11/03/2019 03:30      43.2      42.5       52     26.7      0.00      0.00      66.7     0.28      1016.1     0.0       S   175   0.7       S   176   9.42    265      -49.4
   11/03/2019 03:20      43.0      42.5       51     25.8      0.00      0.00      66.8     0.28      1016.2     0.2     SSE   158   0.8     SSE   159   9.42    265      -48.7
   11/03/2019 03:10      43.3      42.5       53     26.8      0.00      0.00      66.9     0.28      1016.3     0.2     SSE   151   0.9     SSE   151   9.42    265      -49.1
   11/03/2019 03:00      43.6      42.7       51     26.1      0.00      0.00      66.9     0.28      1016.3     0.1       S   173   1.2       S   182   9.42    265      -48.7
   11/03/2019 02:50      44.0      43.3       49     25.8      0.00      0.00      66.9     0.28      1016.4     0.2     SSE   169   0.8       S   181   9.42    265      -49.1
   11/03/2019 02:40      44.1      43.5       48     25.5      0.00      0.00      66.9     0.28      1016.4     0.5     SSE   147   1.1      SE   144   9.42    264      -48.8
   11/03/2019 02:30      44.4      43.7       48     25.4      0.00      0.00      67.0     0.28      1016.4     0.0      SE   144   0.7      SE   144   9.42    264      -49.5
   11/03/2019 02:20      44.8      43.9       48     25.9      0.00      0.00      67.0     0.28      1016.5     0.4      SE   145   1.2      SE   143   9.43    264      -49.8
   11/03/2019 02:10      44.7      44.0       44     23.6      0.00      0.00      67.0     0.28      1016.6     0.4       S   186   1.2       S   177   9.43    264      -49.6
   11/03/2019 02:00      47.1      46.2       40     23.4      0.00      0.00      67.1     0.28      1016.8     0.3     SSE   162   0.7     SSE   157   9.43    264      -49.7
   11/03/2019 01:50      47.1      46.6       38     22.9      0.00      0.00      67.1     0.28      1016.8     0.2       S   178   0.7       S   190   9.43    264      -50.0
   11/03/2019 01:40      47.8      46.7       40     24.1      0.00      0.00      67.2     0.28      1016.8     0.0     SSE   159   0.4     SSE   159   9.43    264      -50.3
   11/03/2019 01:30      47.6      47.3       38     23.1      0.00      0.00      67.2     0.28      1016.9     0.0     SSE   160   0.2     SSE   160   9.43    264      -50.0
   11/03/2019 01:20      47.6      47.0       40     24.1      0.00      0.00      67.2     0.28      1016.9     0.0      SW   221   0.5      SW   221   9.43    264      -50.3
   11/03/2019 01:10      47.6      46.9       39     23.3      0.00      0.00      67.2     0.28      1017.0     0.2       S   177   0.7       S   189   9.43    264      -50.7
   11/03/2019 01:00      48.6      47.4       41     25.1      0.00      0.00      67.2     0.28      1017.0     0.0     SSE   149   0.0     SSE   149   9.43    264      -51.3
   11/03/2019 00:50      48.6      48.0       38     23.7      0.00      0.00      67.2     0.28      1017.0     0.4       S   179   1.0     SSW   199   9.43    264      -50.6
   11/03/2019 00:40      49.6      48.3       39     24.9      0.00      0.00      67.2     0.28      1017.1     0.2     SSE   149   0.8      SE   142   9.43    264      -51.0
   11/03/2019 00:30      49.5      48.9       38     25.0      0.00      0.00      67.3     0.28      1017.1     0.2     SSE   163   0.9     SSE   164   9.43    264      -51.3
   11/03/2019 00:20      49.4      48.7       38     24.6      0.00      0.00      67.3     0.28      1017.1     0.5     SSE   159   1.3     SSE   160   9.43    264      -52.1
   11/03/2019 00:10      49.7      48.8       40     25.6      0.00      0.00      67.3     0.28      1017.1     0.3     SSE   161   0.9     SSE   154   9.43    264      -52.3
   11/03/2019 00:00      49.8      49.3       38     24.7      0.00      0.00      67.3     0.28      1017.1     0.4       S   170   1.0     SSE   154   9.43    264      -52.0
   11/02/2019 23:50      50.2      49.3       39     25.6      0.00      0.00      67.3     0.28      1017.1     0.4     SSE   155   0.9     SSE   150   9.44    264      -52.7
   11/02/2019 23:40      50.5      49.7       35     23.4      0.00      0.00      67.3     0.28      1017.0     0.3       S   169   0.9     SSW   192   9.44    263      -52.9
   11/02/2019 23:30      51.4      50.2       35     24.3      0.00      0.00      67.3     0.28      1017.0     0.8     SSE   154   1.2      SE   146   9.44    263      -53.7
   11/02/2019 23:20      51.6      50.9       33     23.4      0.00      0.00      67.3     0.28      1017.0     0.7     SSE   160   1.4     SSE   157   9.44    263      -53.4
   11/02/2019 23:10      51.9      51.4       32     22.7      0.00      0.00      67.3     0.28      1017.0     0.3     SSE   148   0.9     SSE   154   9.44    263      -54.1
   11/02/2019 23:00      52.7      51.7       31     22.4      0.00      0.00      67.2     0.28      1017.0     0.0       N     0   0.0      SW   222   9.44    263      -54.7
   11/02/2019 22:50      52.7      52.2       29     21.3      0.00      0.00      67.3     0.28      1017.0     0.3       S   187   1.3     SSE   164   9.44    263      -54.1
   11/02/2019 22:40      53.0      52.5       32     23.6      0.00      0.00      67.3     0.28      1017.0     0.3     SSE   149   1.2      SE   142   9.44    263      -55.1
   11/02/2019 22:30      53.6      52.7       31     23.2      0.00      0.00      67.2     0.28      1016.9     0.7     SSE   159   1.4     SSE   152   9.44    263      -55.7
   11/02/2019 22:20      54.0      53.2       29     22.3      0.00      0.00      67.2     0.28      1016.9     0.9     SSE   164   1.6     SSW   202   9.44    263      -56.0
   11/02/2019 22:10      54.3      53.5       31     23.9      0.00      0.00      67.2     0.28      1016.8     0.3     SSE   150   1.1      SE   144   9.45    263      -57.6
   11/02/2019 22:00      55.6      54.1       30     23.5      0.00      0.00      67.2     0.28      1016.7     0.6     SSE   151   1.2      SE   140   9.45    262      -58.0
   11/02/2019 21:50      55.9      55.4       28     23.1      0.00      0.00      67.2     0.28      1016.6     1.0     SSE   159   1.8     SSW   194   9.45    262      -58.2
   11/02/2019 21:40      57.4      55.7       27     23.3      0.00      0.00      67.2     0.28      1016.5     0.9     SSE   155   1.9       S   190   9.45    262      -59.5
   11/02/2019 21:30      57.5      56.6       27     23.9      0.00      0.00      67.2     0.28      1016.4     0.8       S   171   2.7       S   191   9.45    262      -60.3
   11/02/2019 21:20      58.5      56.8       26     23.2      0.00      0.00      67.1     0.28      1016.3     0.1     SSE   155   0.7       S   185   9.45    262      -60.0
   11/02/2019 21:10      59.2      58.2       25     23.3      0.00      0.00      67.1     0.28      1016.2     0.2     SSE   168   1.4     SSW   196   9.45    262      -60.3
   11/02/2019 21:00      60.1      58.9       25     23.7      0.00      0.00      67.1     0.28      1016.1     0.2       E    83   1.2      NE    49   9.45    262      -62.1
   11/02/2019 20:50      61.6      59.9       24     24.1      0.00      0.00      67.1     0.28      1016.1     0.3     ESE   120   2.0      NE    55   9.45    262      -62.4
   11/02/2019 20:40      61.9      61.2       23     23.7      0.00      0.00      67.0     0.28      1016.0     0.5     ENE    77   1.6       E    98   9.45    262      -63.3
   11/02/2019 20:30      63.5      61.2       23     24.3      0.00      0.00      67.0     0.28      1016.1     0.6     ESE   119   1.5     ESE   108   9.45    262      -64.8
   11/02/2019 20:20      66.0      63.3       22     24.4      0.00      0.00      67.0     0.28      1016.1     0.9      SE   138   1.8     SSE   160   9.46    262      -66.2
   11/02/2019 20:10      67.1      65.3       20     23.8      0.00      0.00      66.9     0.28      1016.2     1.0       S   179   4.0     SSW   194   9.46    262      -67.4
   11/02/2019 20:00      67.7      66.5       20     24.5      0.00      0.00      66.9     0.28      1016.2     1.3       S   189   3.8     WSW   244   9.47    262      -68.7
   11/02/2019 19:50      68.6      67.4       20     24.9      0.00      0.00      66.8     0.28      1016.2     1.3      SW   214   3.3      SW   224   9.47    262      -69.2
   11/02/2019 19:40      69.1      68.3       19     24.8      0.00      0.00      66.8     0.28      1016.2     2.2     WSW   244   4.1     WSW   246   9.47    261      -69.9
   11/02/2019 19:30      69.7      68.9       19     24.9      0.00      0.00      66.8     0.28      1016.2     2.3      SW   235   4.1     WSW   242   9.47    261      -70.1
   11/02/2019 19:20      70.8      69.2       19     25.3      0.00      0.00      66.7     0.28      1016.1     1.8     WSW   246   4.3      SW   225   9.48    261      -70.9
   11/02/2019 19:10      71.8      70.5       17     24.3      0.00      0.00      66.7     0.28      1016.0     3.0     WSW   247   4.4     WSW   242   9.48    261      -72.0
   11/02/2019 19:00      72.7      71.5       15     22.0      0.00      0.00      66.6     0.28      1015.9     3.2     WSW   256   5.5       W   273   9.48    261      -71.6
   11/02/2019 18:50      72.8      71.7       14     20.6      0.00      0.00      66.6     0.28      1015.9     2.1       W   260   4.5     SSW   193   9.48    261      -69.6
   11/02/2019 18:40      73.5      72.3       14     20.8      0.00      0.00      66.5     0.28      1015.9     1.5       W   268   6.2       W   259   9.49    261      -68.2
   11/02/2019 18:30      74.5      73.3       13     20.3      0.00      0.00      66.5     0.28      1015.8     2.7       W   261   5.2     WNW   296   9.49    261      -66.6
   11/02/2019 18:20      74.7      73.3       11     16.4      0.00      0.00      66.4     0.28      1015.7     2.7     SSW   213   4.8      SW   215   9.49    261      -62.5
   11/02/2019 18:10      73.5      70.1       13     17.6      0.00      0.00      66.4     0.28      1015.6     1.4     SSW   199   2.7     SSW   212   9.49    261      -55.3
   11/02/2019 18:00      73.0      70.2       19     26.8      0.00      0.00      66.3     0.28      1015.6     1.6     SSE   161   2.8     SSW   202   9.50    261      -50.2
   11/02/2019 17:50      73.8      72.7       15     23.5      0.00      0.00      66.3     0.28      1015.6     1.4     SSE   155   3.7     SSW   192   9.50    261      -45.8
   11/02/2019 17:40      73.9      72.8       16     23.8      0.00      0.00      66.2     0.28      1015.6     0.5     SSE   166   1.6       S   180   9.50    261      -44.3
   11/02/2019 17:30      75.5      73.6       18     27.9      0.00      0.00      66.2     0.28      1015.6     0.5      SE   142   2.0      SE   128   9.50    261      -36.3
   11/02/2019 17:20      76.7      75.2       16     26.4      0.00      0.00      66.1     0.28      1015.6     0.5     SSE   159   1.8      SE   142   9.50    260      -35.8
   11/02/2019 17:10      79.0      76.4       14     25.5      0.00      0.00      66.1     0.28      1015.7     0.9     SSE   166   1.8       S   184   9.50    260      -17.0
   11/02/2019 17:00      79.1      78.1       14     25.4      0.00      0.00      66.1     0.28      1015.8     1.4       S   176   2.1       S   189   9.51    260      -16.6
   11/02/2019 16:50      80.0      78.8       14     26.3      0.00      0.00      66.0     0.28      1015.8     1.2     SSE   151   2.3      SE   139   9.51    260       19.2
   11/02/2019 16:40      80.1      78.9       13     23.9      0.00      0.00      65.9     0.28      1015.8     0.7       S   184   1.4       S   188   9.51    260       44.3
   11/02/2019 16:30      80.8      78.8       10     17.9      0.00      0.00      65.9     0.28      1015.8     0.8     SSE   162   2.0      SE   141   9.51    260        5.9
   11/02/2019 16:20      83.3      80.5        6      9.4      0.00      0.00      65.9     0.28      1015.7     0.8      SE   143   1.7      SE   141   9.51    259      -19.8
   11/02/2019 16:10      84.0      83.0        5      3.3      0.00      0.00      65.8     0.28      1015.8     1.1       S   181   3.0       S   188   9.51    259        4.9
   11/02/2019 16:00      83.6      83.0        5      5.1      0.00      0.00      65.8     0.28      1015.9     1.9     SSE   151   3.4     SSE   151   9.51    259      131.3
   11/02/2019 15:50      83.7      82.8        5      5.8      0.00      0.00      65.7     0.28      1016.0     1.4      SE   141   3.0      SE   134   9.51    259       72.5
   11/02/2019 15:40      84.9      83.4        4      2.7      0.00      0.00      65.7     0.28      1016.0     1.7     ESE   116   3.5     ESE   102   9.51    259       19.9
   11/02/2019 15:30      85.7      84.6        4     -0.3      0.00      0.00      65.7     0.28      1016.1     2.1       E    92   4.5       E    89   9.51    259      123.2
   11/02/2019 15:20      85.8      85.0        3     -1.2      0.00      0.00      65.7     0.28      1016.0     1.5     NNE    32   3.6     NNE    23   9.51    258      222.0
   11/02/2019 15:10      85.7      84.8        4      0.6      0.00      0.00      65.7     0.28      1016.1     1.6     NNE    31   3.3     NNW   345   9.51    258      237.5
   11/02/2019 15:00      85.4      84.5        4     -0.1      0.00      0.00      65.7     0.28      1016.3     1.8      NE    35   4.5     NNE    29   9.51    258      258.4
   11/02/2019 14:50      85.4      84.3        4      0.7      0.00      0.00      65.6     0.28      1016.4     1.3      NE    46   2.7     NNE    26   9.51    259      282.8
   11/02/2019 14:40      84.7      83.9        4      2.9      0.00      0.00      65.6     0.28      1016.5     1.4      NE    53   3.3       E    95   9.52    259      275.6
   11/02/2019 14:30      85.0      83.6        4      2.4      0.00      0.00      65.6     0.28      1016.5     1.5       E   100   4.3       E    85   9.51    259      292.0
   11/02/2019 14:20      83.7      82.6        5      3.7      0.00      0.00      65.6     0.27      1016.6     1.6      NE    37   4.1     NNE    12   9.51    259      284.2
   11/02/2019 14:10      83.3      82.5        5      3.9      0.00      0.00      65.6     0.27      1016.8     1.3     NNE    21   3.5     NNE    25   9.52    259      253.6
   11/02/2019 14:00      83.6      82.8        4      2.7      0.00      0.00      65.6     0.27      1016.9     1.5     NNE    20   4.1       N     7   9.51    259      298.0
   11/02/2019 13:50      84.3      82.2        4      1.1      0.00      0.00      65.6     0.27      1017.1     1.8      NE    34   3.7     NNE    18   9.51    259      323.2
   11/02/2019 13:40      84.0      83.4        4      0.7      0.00      0.00      65.6     0.27      1017.3     1.0      NW   305   2.4     NNW   333   9.51    259      388.9
   11/02/2019 13:30      84.2      82.3        4     -0.0      0.00      0.00      65.6     0.27      1017.5     0.5     ENE    78   2.0      NW   324   9.52    259      395.9
   11/02/2019 13:20      82.3      80.9        4      1.4      0.00      0.00      65.7     0.27      1017.7     1.1     SSW   199   3.3      SW   218   9.52    259      407.7
   11/02/2019 13:10      80.9      79.1        5      1.8      0.00      0.00      65.7     0.27      1017.9     1.6      SW   225   3.6     WSW   243   9.52    259      418.8
   11/02/2019 13:00      79.1      75.7        7      8.8      0.00      0.00      65.7     0.27      1018.0     1.7     SSW   211   3.5      SW   215   9.52    260      428.4
   11/02/2019 12:50      76.0      75.4        9     12.3      0.00      0.00      65.7     0.27      1018.2     2.9     SSW   197   4.0     SSW   204   9.52    261      216.5
   11/02/2019 12:40      75.7      73.5       10     13.9      0.00      0.00      65.7     0.27      1018.3     1.9      SW   231   3.2      SW   230   9.52    261      170.9
   11/02/2019 12:30      73.6      71.2       18     25.9      0.00      0.00      65.7     0.27      1018.5     2.5     WSW   259   4.0     WSW   246   9.52    261      372.7
   11/02/2019 12:20      71.2      68.2       28     34.6      0.00      0.00      65.8     0.28      1018.8     1.6     WNW   285   4.2     WNW   295   9.52    262      333.1
   11/02/2019 12:10      68.2      65.2       37     39.3      0.00      0.00      65.8     0.27      1019.0     1.1       W   281   3.5       W   260   9.52    263      316.9
   11/02/2019 12:00      65.5      62.6       45     41.8      0.00      0.00      65.8     0.28      1019.1     1.2     NNW   340   3.7       N     8   9.52    263      265.6
   11/02/2019 11:50      62.7      61.3       52     44.1      0.00      0.00      65.8     0.28      1019.3     1.0     NNW   342   3.2      NW   321   9.52    264      175.3
   11/02/2019 11:40      61.5      59.4       51     42.2      0.00      0.00      65.8     0.28      1019.4     2.1     ESE   108   3.6      SE   139   9.52    264      116.9
   11/02/2019 11:30      59.6      58.2       58     44.0      0.00      0.00      65.9     0.28      1019.4     1.5     SSE   147   2.7      SE   142   9.52    280       75.5
   11/02/2019 11:20      59.3      58.0       60     44.5      0.00      0.00      65.9     0.28      1019.5     0.9       E    95   2.1       S   172   9.52    292       45.3
   11/02/2019 11:10      59.5      59.0       49     39.8      0.00      0.00      65.9     0.28      1019.7     0.2     SSW   194   1.8     SSW   195   9.52    299       27.0
   11/02/2019 11:00      59.8      58.9       40     34.7      0.00      0.00      66.0     0.28      1019.8     1.3     SSE   162   3.1     SSE   148   9.52    303       19.5
   11/02/2019 10:50      60.2      59.4       37     33.3      0.00      0.00      66.0     0.28      1019.6     0.7      SE   129   2.5      SE   143   9.51    262       21.1
   11/02/2019 10:40      60.4      59.8       32     30.3      0.00      0.00      66.0     0.28      1019.6     0.3     NNE    21   1.8      SE   141   9.52    262       32.4
   11/02/2019 10:30      60.7      59.9       32     30.1      0.00      0.00      66.1     0.28      1019.8     0.6      NW   319   2.8      NW   323   9.51    262       28.8
   11/02/2019 10:20      60.8      60.2       32     30.5      0.00      0.00      66.1     0.28      1020.0     0.2      NE    37   0.8     NNE    29   9.52    262       35.3
   11/02/2019 10:10      61.1      60.2       32     30.2      0.00      0.00      66.1     0.28      1020.0     0.7     ESE   119   2.1      SE   136   9.52    262       61.4
   11/02/2019 10:00      61.1      60.3       29     28.0      0.00      0.00      66.1     0.28      1020.0     0.2       E    89   0.7     ESE   121   9.52    262       89.2
   11/02/2019 09:50      60.8      60.3       28     27.0      0.00      0.00      66.2     0.28      1020.1     0.0     NNE    13   0.5     NNE    25   9.52    261       93.8
   11/02/2019 09:40      60.4      58.9       28     26.1      0.00      0.00      66.3     0.28      1020.1     0.0       N     0   0.0     ESE   119   9.51    261      108.6
   11/02/2019 09:30      59.3      58.6       28     26.2      0.00      0.00      66.3     0.28      1020.1     0.0       N     0   0.0     ENE    64   9.51    262       56.5
   11/02/2019 09:20      61.0      59.1       27     26.0      0.00      0.00      66.3     0.28      1020.1     0.2       E    79   1.0     ENE    62   9.51    262       29.2
   11/02/2019 09:10      60.6      58.5       26     24.3      0.00      0.00      66.4     0.28      1020.0     0.1      NE    47   0.6     NNE    31   9.51    260      164.6
   11/02/2019 09:00      58.5      55.6       26     22.1      0.00      0.00      66.4     0.28      1019.9     0.3      NE    51   1.8      NE    45   9.51    261      153.6
   11/02/2019 08:50      55.8      54.6       26     21.0      0.00      0.00      66.4     0.28      1019.9     0.8     NNE    29   1.9      NE    46   9.52    261      104.2
   11/02/2019 08:40      55.5      54.1       25     20.1      0.00      0.00      66.5     0.28      1019.8     0.4     NNE    16   1.3       N    10   9.52    262       60.6
   11/02/2019 08:30      54.3      50.0       29     20.4      0.00      0.00      66.5     0.28      1019.6     0.0       N     0   0.0     SSE   148   9.52    263       49.9
   11/02/2019 08:20      50.0      47.3       33     20.9      0.00      0.00      66.6     0.28      1019.5     0.2     SSE   147   1.0      SE   142   9.52    263       51.4
   11/02/2019 08:10      47.3      43.1       37     20.4      0.00      0.00      66.6     0.28      1019.4     0.1      SE   142   1.0      SE   138   9.52    263      -24.8
   11/02/2019 08:00      43.1      42.0       40     19.4      0.00      0.00      66.6     0.28      1019.4     0.2      SE   138   1.1      SE   138   9.52    263      -25.4
   11/02/2019 07:50      42.2      41.5       34     15.7      0.00      0.00      66.6     0.28      1019.4     0.4     SSE   160   0.9     SSE   156   9.52    263      -28.3
   11/02/2019 07:40      41.7      41.2       31     12.8      0.00      0.00      66.7     0.28      1019.4     0.1     SSW   214   0.6      SW   219   9.52    263      -32.6
   11/02/2019 07:30      41.5      41.1       34     14.7      0.00      0.00      66.7     0.28      1019.4     0.2       S   182   1.2     SSW   197   9.52    263      -35.9
   11/02/2019 07:20      41.7      41.2       31     12.7      0.00      0.00      66.8     0.28      1019.4     0.6       S   186   2.1     SSE   148   9.52    263      -37.5
   11/02/2019 07:10      41.5      40.8       33     14.4      0.00      0.00      66.8     0.28      1019.4     0.2       S   180   0.8       S   169   9.52    263      -40.5
   11/02/2019 07:00      41.5      40.9       34     14.7      0.00      0.00      66.8     0.28      1019.3     0.1      SE   144   1.2      SE   143   9.52    263      -43.0
   11/02/2019 06:50      41.5      40.7       33     14.0      0.00      0.00      66.9     0.28      1019.3     0.5     SSE   167   1.2      SE   146   9.52    263      -43.9
   11/02/2019 06:40      41.5      40.8       32     13.5      0.00      0.00      66.9     0.28      1019.3     0.3     SSE   164   1.4     SSE   155   9.52    263      -44.3
   11/02/2019 06:30      42.5      41.1       32     13.9      0.00      0.00      67.0     0.28      1019.3     0.0     ESE   117   0.7      SE   140   9.52    263      -45.0
   11/02/2019 06:20      42.6      41.9       29     12.1      0.00      0.00      67.0     0.28      1019.2     0.5     SSE   147   1.4      SE   142   9.52    262      -44.5
   11/02/2019 06:10      42.5      41.9       30     12.7      0.00      0.00      67.0     0.28      1019.1     0.0       S   179   0.8     SSE   165   9.52    262      -44.8
   11/02/2019 06:00      42.8      42.0       28     11.4      0.00      0.00      67.0     0.28      1019.0     0.5     SSE   147   1.3     SSE   150   9.52    263      -44.7
   11/02/2019 05:50      42.9      42.5       28     11.7      0.00      0.00      67.1     0.28      1019.0     0.2       N     3   0.9     NNE    12   9.52    263      -44.8
   11/02/2019 05:40      43.2      42.3       29     12.6      0.00      0.00      67.1     0.28      1019.0     0.5     SSE   156   1.1       N     0   9.52    262      -45.0
   11/02/2019 05:30      43.4      43.0       25      9.7      0.00      0.00      67.2     0.28      1018.8     0.4     SSE   151   1.4     SSE   147   9.52    262      -44.6
   11/02/2019 05:20      43.3      42.8       25      9.8      0.00      0.00      67.2     0.28      1018.9     0.2     SSE   151   1.0     SSE   147   9.53    263      -44.3
   11/02/2019 05:10      43.2      42.8       28     12.4      0.00      0.00      67.2     0.28      1018.8     0.5     SSE   155   1.9       S   170   9.53    262      -45.1
   11/02/2019 05:00      43.5      42.7       27     11.4      0.00      0.00      67.3     0.28      1018.8     0.4       S   173   1.6      SW   219   9.53    263      -45.9
   11/02/2019 04:50      43.5      43.0       27     11.3      0.00      0.00      67.3     0.28      1018.8     0.2     SSW   196   1.1     SSW   192   9.53    262      -45.6
   11/02/2019 04:40      43.6      43.0       28     12.5      0.00      0.00      67.3     0.28      1018.9     0.4     SSE   147   1.1     SSE   149   9.53    262      -45.8
   11/02/2019 04:30      43.9      43.1       27     12.0      0.00      0.00      67.4     0.28      1018.8     0.1     SSE   155   1.2     SSE   156   9.53    262      -46.4
   11/02/2019 04:20      44.1      43.6       26     11.3      0.00      0.00      67.4     0.28      1018.8     0.0     SSE   161   0.7     SSE   154   9.53    262      -45.9
   11/02/2019 04:10      43.8      43.1       27     11.5      0.00      0.00      67.4     0.28      1018.8     0.1       S   171   0.8       S   170   9.53    262      -46.1
   11/02/2019 04:00      44.3      43.3       28     12.7      0.00      0.00      67.5     0.28      1018.8     0.0       N     0   0.0      SE   143   9.53    262      -46.5
   11/02/2019 03:50      44.3      43.7       26     11.0      0.00      0.00      67.5     0.28      1018.9     0.3       S   178   1.1     SSE   161   9.53    262      -46.2
   11/02/2019 03:40      44.1      43.4       26     11.5      0.00      0.00      67.5     0.28      1019.1     0.2     SSE   149   1.1      SE   145   9.53    262      -47.3
   11/02/2019 03:30      44.3      43.3       26     10.8      0.00      0.00      67.5     0.28      1019.1     0.3     SSE   164   1.0     SSE   163   9.53    262      -48.1
   11/02/2019 03:20      44.3      43.9       25     10.8      0.00      0.00      67.6     0.28      1019.0     0.1       S   175   1.4       S   179   9.53    262      -47.6
   11/02/2019 03:10      44.8      43.9       25     10.9      0.00      0.00      67.6     0.28      1019.1     0.2       N   355   1.1       N   354   9.53    262      -47.9
   11/02/2019 03:00      45.0      44.5       24     10.5      0.00      0.00      67.6     0.28      1019.1     0.3      SE   142   1.4      SE   146   9.53    262      -47.6
   11/02/2019 02:50      45.0      44.1       25     11.2      0.00      0.00      67.7     0.28      1019.1     0.4      SW   214   1.1      SW   221   9.53    262      -48.5
   11/02/2019 02:40      45.0      44.3       25     10.9      0.00      0.00      67.7     0.28      1019.2     0.8     SSE   164   2.2       S   181   9.53    262      -48.2
   11/02/2019 02:30      44.7      44.1       27     11.9      0.00      0.00      67.7     0.28      1019.2     0.2     SSE   166   1.1       S   175   9.53    262      -48.4
   11/02/2019 02:20      45.2      44.2       26     11.6      0.00      0.00      67.7     0.28      1019.3     0.6      SE   140   1.5     SSE   167   9.53    262      -48.3
   11/02/2019 02:10      45.3      44.5       24     10.2      0.00      0.00      67.8     0.28      1019.3     0.5     SSE   151   1.4     SSE   149   9.53    262      -48.9
   11/02/2019 02:00      45.6      44.5       25     11.4      0.00      0.00      67.8     0.28      1019.4     0.5     SSE   169   2.0     SSE   150   9.53    262      -49.5
   11/02/2019 01:50      45.6      45.2       24     10.6      0.00      0.00      67.8     0.28      1019.4     0.2     SSE   163   1.6     SSE   168   9.53    262      -49.8
   11/02/2019 01:40      45.4      45.0       23      9.5      0.00      0.00      67.8     0.28      1019.6     0.2       W   263   1.4      NW   317   9.54    262      -50.2
   11/02/2019 01:30      45.2      44.5       24     10.0      0.00      0.00      67.9     0.28      1019.6     0.5       S   172   2.0       S   183   9.54    262      -50.4
   11/02/2019 01:20      44.9      44.2       24     10.1      0.00      0.00      67.9     0.28      1019.6     0.3     SSE   166   1.4     SSE   150   9.54    262      -51.3
   11/02/2019 01:10      45.5      44.4       23      9.3      0.00      0.00      67.9     0.28      1019.6     0.6     SSE   161   1.8      SE   144   9.54    262      -51.4
   11/02/2019 01:00      45.9      45.0       23      9.6      0.00      0.00      67.9     0.28      1019.6     0.1     WSW   252   0.9     WSW   244   9.54    262      -51.9
   11/02/2019 00:50      46.0      45.0       24     10.5      0.00      0.00      67.9     0.28      1019.6     0.5     SSE   158   1.2     SSE   147   9.54    262      -51.4
   11/02/2019 00:40      46.4      45.7       24     10.8      0.00      0.00      67.9     0.28      1019.6     0.0     SSE   162   0.6     SSE   161   9.54    262      -52.5
   11/02/2019 00:30      46.5      45.9       23     10.2      0.00      0.00      68.0     0.28      1019.7     0.6     SSE   161   1.1     SSE   152   9.54    262      -52.4
   11/02/2019 00:20      46.5      45.8       24     11.6      0.00      0.00      68.0     0.28      1019.7     0.0      SE   142   1.2      SE   144   9.54    262      -54.3
   11/02/2019 00:10      46.2      45.8       25     12.3      0.00      0.00      68.0     0.28      1019.7     0.6     SSE   161   1.9      SE   141   9.54    262      -54.1
   11/02/2019 00:00      47.2      46.0       24     11.8      0.00      0.00      68.0     0.28      1019.8     0.7     SSE   153   1.3     SSE   155   9.54    262      -54.8
   11/01/2019 23:50      47.5      46.6       24     12.2      0.00      0.00      68.0     0.28      1019.8     0.3       S   175   1.6     SSW   201   9.54    262      -55.1
   11/01/2019 23:40      47.8      47.1       21      9.7      0.00      0.00      68.0     0.28      1019.8     0.7       S   172   2.2     SSW   197   9.54    262      -55.1
   11/01/2019 23:30      48.1      47.0       23     11.4      0.00      0.00      68.0     0.28      1019.8     0.4       S   181   1.6       S   177   9.54    262      -56.2
   11/01/2019 23:20      48.7      47.7       24     13.2      0.00      0.00      68.0     0.28      1019.8     0.2     SSE   162   1.0     SSE   165   9.54    262      -56.3
   11/01/2019 23:10      48.5      48.1       22     11.1      0.00      0.00      68.0     0.28      1019.8     0.2       S   171   1.0     SSE   150   9.55    262      -56.0
   11/01/2019 23:00      49.6      48.3       23     12.2      0.00      0.00      68.0     0.28      1019.8     0.4     SSE   153   1.4     SSE   157   9.55    262      -56.7
   11/01/2019 22:50      50.0      49.3       19      9.4      0.00      0.00      68.0     0.28      1019.8     0.8     SSE   150   1.5     SSE   159   9.55    262      -56.5
   11/01/2019 22:40      50.2      49.7       20     10.3      0.00      0.00      68.0     0.28      1019.8     0.4     SSE   162   1.2     SSE   168   9.55    262      -57.5
   11/01/2019 22:30      50.9      49.9       20     10.3      0.00      0.00      68.0     0.28      1019.8     0.4     SSE   168   1.3      SE   146   9.55    262      -57.5
   11/01/2019 22:20      51.0      50.5       21     11.8      0.00      0.00      68.0     0.28      1019.7     0.3     SSE   159   1.3       S   170   9.55    262      -57.9
   11/01/2019 22:10      51.3      50.7       20     11.6      0.00      0.00      68.0     0.28      1019.5     0.7     SSE   152   1.5     SSE   161   9.55    262      -57.8
   11/01/2019 22:00      51.5      50.6       20     11.7      0.00      0.00      68.0     0.28      1019.4     0.8     SSE   153   1.4      SE   144   9.55    262      -58.4
   11/01/2019 21:50      51.6      51.1       18      8.6      0.00      0.00      68.0     0.28      1019.3     0.2       S   183   1.2       S   175   9.55    262      -58.9
   11/01/2019 21:40      51.6      51.0       20     11.8      0.00      0.00      68.0     0.28      1019.2     0.3     SSE   160   1.4     SSE   147   9.55    262      -59.6
   11/01/2019 21:30      52.6      51.4       18      9.7      0.00      0.00      68.0     0.28      1019.1     0.9     SSE   153   1.7     SSE   162   9.56    262      -59.7
   11/01/2019 21:20      53.3      52.1       19     11.0      0.00      0.00      67.9     0.28      1019.1     0.2     SSE   168   0.9     SSE   153   9.56    261      -60.5
   11/01/2019 21:10      53.9      53.0       18     11.5      0.00      0.00      67.9     0.28      1019.0     0.3      SE   145   1.0     SSE   152   9.56    261      -61.1
   11/01/2019 21:00      54.2      53.5       16      8.6      0.00      0.00      67.9     0.28      1019.0     0.1       S   174   0.6       S   173   9.56    261      -61.8
   11/01/2019 20:50      54.4      53.6       17      9.7      0.00      0.00      67.8     0.28      1019.0     0.3       S   174   1.0     SSE   148   9.56    261      -62.5
   11/01/2019 20:40      55.1      54.1       17     10.6      0.00      0.00      67.8     0.28      1019.0     0.3     SSE   165   1.2       S   181   9.56    261      -63.5
   11/01/2019 20:30      56.6      55.0       16     10.8      0.00      0.00      67.8     0.28      1019.0     0.2     SSE   149   1.1       S   187   9.57    261      -64.5
   11/01/2019 20:20      56.8      56.4       15      9.1      0.00      0.00      67.8     0.28      1018.9     0.5     SSE   153   1.3     SSE   164   9.57    261      -64.6
   11/01/2019 20:10      58.0      56.4       16     10.5      0.00      0.00      67.7     0.28      1018.9     0.4     SSE   164   1.4     SSE   157   9.57    261      -66.7
   11/01/2019 20:00      59.0      57.9       15     10.9      0.00      0.00      67.7     0.28      1018.8     1.1     SSE   148   2.1     SSE   154   9.57    261      -67.8
   11/01/2019 19:50      59.1      58.5       14     10.3      0.00      0.00      67.6     0.28      1018.7     1.5      SE   145   2.3      SE   142   9.57    261      -68.7
   11/01/2019 19:40      59.5      58.7       14     10.4      0.00      0.00      67.6     0.28      1018.7     1.6     SSE   147   2.8      SE   140   9.57    260      -70.0
   11/01/2019 19:30      60.0      59.2       14     10.3      0.00      0.00      67.5     0.28      1018.6     1.5     SSE   151   2.6      SE   146   9.58    261      -71.1
   11/01/2019 19:20      60.3      59.6       14     10.1      0.00      0.00      67.5     0.28      1018.5     1.9     SSE   146   2.9      SE   138   9.58    260      -72.7
   11/01/2019 19:10      60.8      60.0       13      9.4      0.00      0.00      67.4     0.28      1018.4     1.5     SSE   150   2.7      SE   142   9.58    260      -74.5
   11/01/2019 19:00      61.7      60.5       13      9.6      0.00      0.00      67.4     0.28      1018.3     1.0     SSE   153   2.2      SE   136   9.58    260      -77.4
   11/01/2019 18:50      63.7      61.5       11      7.2      0.00      0.00      67.3     0.28      1018.1     1.1     SSE   154   2.1      SE   143   9.58    260      -79.2
   11/01/2019 18:40      67.6      63.5        9      4.7      0.00      0.00      67.2     0.28      1018.1     1.4     SSE   154   2.6     SSE   165   9.59    260      -80.4
   11/01/2019 18:30      72.3      67.5        6     -1.7      0.00      0.00      67.2     0.28      1018.0     0.8       S   169   1.5      SW   217   9.59    259      -83.2
   11/01/2019 18:20      73.6      72.3        4     -5.1      0.00      0.00      67.1     0.28      1017.9     0.8       W   270   2.5     NNW   334   9.59    259      -87.4
   11/01/2019 18:10      74.3      73.3        4     -4.5      0.00      0.00      67.0     0.28      1017.9     1.6      NW   325   4.3      NW   316   9.60    259      -89.4
   11/01/2019 18:00      75.1      73.9        4     -3.5      0.00      0.00      67.0     0.28      1017.8     0.8      NW   318   3.0      NW   325   9.60    259      -87.7
   11/01/2019 17:50      76.2      74.8        4     -3.1      0.00      0.00      66.9     0.28      1017.8     1.2     NNW   339   3.5     WNW   297   9.60    259      -86.2
   11/01/2019 17:40      77.2      75.8        4     -3.1      0.00      0.00      66.8     0.28      1017.7     2.3       N   356   5.2       N     0   9.60    259      -84.1
   11/01/2019 17:30      78.5      76.9        4     -2.1      0.00      0.00      66.8     0.28      1017.7     2.4       N     4   6.7       N   354   9.61    259      -64.5
   11/01/2019 17:20      79.3      78.3        5      0.7      0.00      0.00      66.7     0.28      1017.7     2.5     NNE    16   6.2     NNE    14   9.61    259      -82.9
   11/01/2019 17:10      80.2      79.2        5      0.5      0.00      0.00      66.6     0.28      1017.7     1.5     NNE    20   3.7     NNW   348   9.61    259      -40.9
   11/01/2019 17:00      80.8      79.8        4     -1.4      0.00      0.00      66.6     0.28      1017.7     1.6     NNE    17   4.1     NNW   346   9.61    259       -9.2
   11/01/2019 16:50      81.7      80.4        4     -1.8      0.00      0.00      66.5     0.28      1017.6     1.9     NNE    18   4.1       N    11   9.62    259       14.9
   11/01/2019 16:40      82.3      81.2        4     -3.3      0.00      0.00      66.4     0.28      1017.6     1.7     NNE    11   4.2     NNE    16   9.62    259       38.9
   11/01/2019 16:30      82.7      81.9        3     -4.1      0.00      0.00      66.4     0.28      1017.6     1.2       N   356   3.0       N     9   9.62    259       62.7
   11/01/2019 16:20      83.3      82.3        3     -5.0      0.00      0.00      66.3     0.28      1017.6     1.3     NNE    20   3.7     NNE    20   9.62    259       87.1
   11/01/2019 16:10      83.2      82.6        3     -5.9      0.00      0.00      66.3     0.28      1017.6     1.5       N   359   3.8     NNE    13   9.62    259      113.2
   11/01/2019 16:00      83.9      82.6        3     -6.8      0.00      0.00      66.2     0.28      1017.7     1.5     NNW   343   3.7     WNW   300   9.62    259      137.2
   11/01/2019 15:50      84.0      83.3        3     -8.3      0.00      0.00      66.1     0.28      1017.7     1.0      NW   326   2.3      NW   325   9.62    259      159.0
   11/01/2019 15:40      83.3      82.3        3     -8.9      0.00      0.00      66.1     0.28      1017.9     2.0     NNW   341   4.2     NNE    29   9.63    258      180.4
   11/01/2019 15:30      83.7      82.9        2    -11.5      0.00      0.00      66.0     0.28      1017.9     1.3     SSE   153   2.9      SE   133   9.63    258      198.8
   11/01/2019 15:20      84.2      83.2        3     -8.2      0.00      0.00      66.0     0.28      1018.0     1.2     NNE    11   2.6     NNW   344   9.63    258      216.7
   11/01/2019 15:10      83.7      82.3        3     -9.0      0.00      0.00      65.9     0.28      1018.1     1.4       E    88   3.3     ESE   110   9.63    258      240.2
   11/01/2019 15:00      83.4      82.2        2    -10.9      0.00      0.00      65.9     0.28      1018.1     1.8     ENE    75   4.6       E    91   9.63    258      257.9
   11/01/2019 14:50      84.2      82.0        3     -8.6      0.00      0.00      65.8     0.28      1018.1     1.5     NNW   332   5.0     NNE    24   9.63    258      274.2
   11/01/2019 14:40      82.8      81.9        3     -8.5      0.00      0.00      65.8     0.28      1018.2     2.4       N     0   4.6       N     7   9.64    258      291.0
   11/01/2019 14:30      82.8      82.0        3     -7.2      0.00      0.00      65.8     0.28      1018.2     2.3       N     2   7.1     NNE    24   9.64    258      305.5
   11/01/2019 14:20      83.4      82.3        3     -7.3      0.00      0.00      65.8     0.28      1018.2     2.1       N    11   5.2     NNW   347   9.64    258      317.6
   11/01/2019 14:10      83.7      82.5        3     -8.3      0.00      0.00      65.7     0.28      1018.2     1.9     NNE    24   4.5     ENE    57   9.64    258      328.9
   11/01/2019 14:00      83.5      82.7        3     -8.3      0.00      0.00      65.7     0.28      1018.3     1.3       N   352   5.3     WNW   296   9.64    258      342.9
   11/01/2019 13:50      83.2      81.4        3     -8.7      0.00      0.00      65.7     0.28      1018.4     1.4     NNW   347   4.1     NNE    19   9.64    258      352.4
   11/01/2019 13:40      82.0      81.4        3     -7.4      0.00      0.00      65.7     0.28      1018.4     2.2     NNE    12   5.6       N     3   9.64    258      361.7
   11/01/2019 13:30      82.2      81.3        3     -6.0      0.00      0.00      65.7     0.28      1018.5     2.4     NNE    24   4.9       S   177   9.64    258      367.8
   11/01/2019 13:20      82.0      80.4        3     -7.9      0.00      0.00      65.7     0.28      1018.7     1.8     WNW   302   4.6     NNW   340   9.64    258      375.2
   11/01/2019 13:10      80.9      79.7        4     -3.8      0.00      0.00      65.6     0.28      1018.8     1.8      SW   221   5.1       W   271   9.64    259      381.2
   11/01/2019 13:00      81.4      79.6        4     -1.6      0.00      0.00      65.7     0.28      1019.0     1.6       S   190   4.0       S   173   9.64    259      383.3
   11/01/2019 12:50      81.3      79.4        5      1.1      0.00      0.00      65.6     0.28      1019.1     1.1      SW   223   3.2     SSW   205   9.64    259      382.6
   11/01/2019 12:40      80.0      79.3        5      0.6      0.00      0.00      65.6     0.28      1019.3     1.1     WNW   303   3.0       N     0   9.64    258      382.4
   11/01/2019 12:30      79.8      78.4        5      0.7      0.00      0.00      65.7     0.27      1019.5     1.4     WNW   288   3.9      SW   232   9.64    259      383.1
   11/01/2019 12:20      79.0      77.7        5      1.5      0.00      0.00      65.8     0.28      1019.6     0.6       W   279   1.9       W   259   9.64    259      380.1
   11/01/2019 12:10      78.0      77.3        5      1.8      0.00      0.00      65.8     0.27      1019.8     1.1       N   353   3.1     NNW   327   9.64    259      377.2
   11/01/2019 12:00      77.6      76.5        5      0.1      0.00      0.00      65.8     0.27      1019.9     1.2     NNE    24   3.1     NNE    27   9.64    259      371.7
   11/01/2019 11:50      77.0      76.1        4     -1.9      0.00      0.00      65.8     0.28      1020.1     0.7     NNE    29   3.1     NNE    32   9.64    259      367.6
   11/01/2019 11:40      76.6      75.4        5     -1.2      0.00      0.00      65.8     0.28      1020.2     1.2      NE    51   2.5       N     2   9.65    259      361.8
   11/01/2019 11:30      76.3      75.3        5     -0.2      0.00      0.00      65.9     0.28      1020.3     1.2       N    11   2.5      NE    44   9.65    259      354.9
   11/01/2019 11:20      75.5      73.5        5     -2.4      0.00      0.00      65.9     0.28      1020.3     1.4     WSW   253   3.8       W   262   9.65    259      349.9
   11/01/2019 11:10      74.2      73.3        5     -0.4      0.00      0.00      65.9     0.28      1020.4     1.9     SSW   195   4.6      SW   214   9.65    259      343.5
   11/01/2019 11:00      73.4      71.7        5     -1.4      0.00      0.00      66.0     0.28      1020.5     1.4     SSW   207   3.6     SSW   193   9.65    259      333.4
   11/01/2019 10:50      73.3      71.9        5     -3.6      0.00      0.00      66.0     0.28      1020.5     2.1      SW   233   3.8     SSW   207   9.65    259      321.8
   11/01/2019 10:40      73.2      72.3        5     -3.1      0.00      0.00      66.1     0.28      1020.5     0.7     WNW   284   2.8       W   277   9.65    259      307.9
   11/01/2019 10:30      72.9      70.4        5     -1.0      0.00      0.00      66.2     0.28      1020.5     0.3       W   278   2.6     WSW   245   9.65    259      293.6
   11/01/2019 10:20      70.9      69.7        5     -2.6      0.00      0.00      66.2     0.28      1020.6     0.8     NNW   329   2.3     NNE    23   9.65    259      279.3
   11/01/2019 10:10      69.7      68.4        5     -3.7      0.00      0.00      66.3     0.28      1020.6     1.2       W   270   3.1     WSW   242   9.65    259      264.2
   11/01/2019 10:00      68.7      67.2        7      0.6      0.00      0.00      66.3     0.28      1020.6     1.3     WNW   284   2.8     WSW   248   9.65    259      249.8
   11/01/2019 09:50      67.3      64.7       15     17.2      0.00      0.00      66.4     0.28      1020.6     0.5     NNE    23   1.4     NNE    29   9.65    260      236.1
   11/01/2019 09:40      64.8      63.0       20     21.8      0.00      0.00      66.4     0.28      1020.6     0.4       N     8   1.5     NNE    25   9.65    260      223.4
   11/01/2019 09:30      63.1      59.9       21     21.4      0.00      0.00      66.5     0.28      1020.6     0.0     NNE    32   0.8     NNE    19   9.65    260      207.9
   11/01/2019 09:20      60.1      58.3       21     19.7      0.00      0.00      66.5     0.28      1020.6     0.2     NNE    15   1.0     NNE    21   9.65    260      193.7
   11/01/2019 09:10      58.4      56.5       22     19.1      0.00      0.00      66.6     0.28      1020.6     0.5      NE    36   1.7     NNE    26   9.65    260      178.1
   11/01/2019 09:00      57.3      56.0       22     17.8      0.00      0.00      66.6     0.28      1020.6     0.0       N     0   0.0      SE   139   9.65    260      161.9
   11/01/2019 08:50      56.5      54.5       21     16.9      0.00      0.00      66.7     0.28      1020.5     0.0      NE    39   0.9      NE    36   9.65    261      120.2
   11/01/2019 08:40      54.5      49.7       23     15.1      0.00      0.00      66.7     0.28      1020.5     0.0       N     0   0.0     SSE   158   9.66    263       94.8
   11/01/2019 08:30      49.6      45.9       26     14.7      0.00      0.00      66.7     0.28      1020.4     0.0       N     0   0.0     SSE   152   9.66    263       49.0
   11/01/2019 08:20      46.0      43.5       30     15.2      0.00      0.00      66.8     0.28      1020.4     0.2     SSE   149   1.2      SE   146   9.66    263       73.0
   11/01/2019 08:10      43.3      39.2       34     14.6      0.00      0.00      66.8     0.28      1020.3     0.2      SE   137   0.8      SE   136   9.66    263      -28.8
   11/01/2019 08:00      39.2      37.5       36     13.9      0.00      0.00      66.9     0.28      1020.2     0.1      SE   137   0.8      SE   136   9.66    263      -33.3
   11/01/2019 07:50      37.5      36.1       37     12.6      0.00      0.00      66.9     0.28      1020.2     0.0     NNW   335   0.5     NNW   335   9.66    263      -34.1
   11/01/2019 07:40      37.1      36.2       35     11.3      0.00      0.00      67.0     0.28      1020.1     0.5      SE   139   1.3      SE   144   9.66    263      -38.1
   11/01/2019 07:30      37.3      36.5       31      8.8      0.00      0.00      67.0     0.28      1020.0     0.2      SW   229   1.1      SW   234   9.66    263      -41.8
   11/01/2019 07:20      37.3      36.3       32      9.9      0.00      0.00      67.1     0.28      1020.0     0.3     SSE   166   1.1     SSE   149   9.66    263      -46.0
   11/01/2019 07:10      37.3      36.5       31      8.8      0.00      0.00      67.1     0.28      1019.9     0.0     SSE   151   0.3     SSE   151   9.66    263      -48.3
   11/01/2019 07:00      37.2      36.7       33     10.2      0.00      0.00      67.2     0.28      1019.9     0.0       E    97   0.0       E    97   9.66    263      -49.7
   11/01/2019 06:50      38.0      36.9       31      9.8      0.00      0.00      67.2     0.28      1019.8     0.3     SSE   157   0.9     SSE   167   9.66    263      -50.0
   11/01/2019 06:40      37.8      37.2       32      9.9      0.00      0.00      67.3     0.28      1019.8     0.1     SSE   165   1.0     SSE   165   9.66    263      -50.6
   11/01/2019 06:30      38.3      37.5       29      8.4      0.00      0.00      67.3     0.28      1019.7     0.0     SSW   204   1.0     SSW   198   9.66    263      -50.5
   11/01/2019 06:20      38.1      37.5       33     10.9      0.00      0.00      67.3     0.28      1019.6     0.3       S   169   1.4       S   174   9.66    263      -50.3
   11/01/2019 06:10      38.6      37.8       29      8.4      0.00      0.00      67.4     0.28      1019.7     0.5     SSE   149   1.9     SSE   153   9.66    263      -50.9
   11/01/2019 06:00      37.8      36.8       29      8.1      0.00      0.00      67.4     0.28      1019.7     0.6     SSE   166   1.6     SSE   151   9.66    263      -51.7
   11/01/2019 05:50      37.9      37.1       29      8.1      0.00      0.00      67.5     0.28      1019.7     0.7     SSE   160   2.0       S   172   9.66    263      -51.6
   11/01/2019 05:40      37.6      36.8       30      8.8      0.00      0.00      67.5     0.28      1019.8     0.7     SSE   168   1.6     SSE   152   9.66    263      -51.1
   11/01/2019 05:30      37.7      37.0       31      9.7      0.00      0.00      67.6     0.28      1019.8     0.0     SSE   166   0.6     SSW   193   9.66    263      -51.5
   11/01/2019 05:20      37.8      37.3       28      7.5      0.00      0.00      67.6     0.28      1019.7     0.5     SSE   157   1.2      NW   304   9.66    263      -51.5
   11/01/2019 05:10      37.8      37.0       30      8.7      0.00      0.00      67.6     0.28      1019.7     0.3       S   190   1.1     SSW   205   9.66    263      -51.8
   11/01/2019 05:00      37.8      36.8       33     10.6      0.00      0.00      67.7     0.28      1019.7     0.2     SSE   165   0.9     SSE   165   9.66    263      -51.8
   11/01/2019 04:50      37.8      37.0       30      8.3      0.00      0.00      67.7     0.28      1019.6     0.5       S   184   1.7     SSW   208   9.66    263      -52.1
   11/01/2019 04:40      38.3      37.6       29      8.7      0.00      0.00      67.8     0.28      1019.7     0.3     SSE   151   1.2      SE   144   9.66    263      -51.9
   11/01/2019 04:30      38.1      37.0       28      6.9      0.00      0.00      67.8     0.28      1019.7     0.2       S   172   0.9     SSE   164   9.66    263      -52.2
   11/01/2019 04:20      37.3      36.8       29      7.4      0.00      0.00      67.8     0.28      1019.7     0.0      SE   142   0.9      SE   135   9.66    263      -53.1
   11/01/2019 04:10      38.3      37.1       29      8.1      0.00      0.00      67.9     0.28      1019.7     0.5     SSE   153   1.1     SSE   158   9.66    263      -53.4
   11/01/2019 04:00      38.7      38.0       28      7.8      0.00      0.00      67.9     0.28      1019.7     0.2      SE   143   1.1      SE   144   9.66    263      -54.1
   11/01/2019 03:50      39.0      38.4       27      7.3      0.00      0.00      68.0     0.28      1019.8     0.3     SSE   155   1.4     SSE   163   9.66    263      -53.6
   11/01/2019 03:40      38.9      38.4       25      6.1      0.00      0.00      68.0     0.28      1020.0     0.4     SSW   198   1.8     SSW   196   9.66    263      -53.7
   11/01/2019 03:30      38.7      38.2       27      7.2      0.00      0.00      68.0     0.28      1020.0     0.4     SSE   149   1.6     SSE   150   9.67    262      -54.2
   11/01/2019 03:20      39.4      38.2       28      8.2      0.00      0.00      68.1     0.28      1020.0     0.5       S   175   1.7      SE   136   9.67    262      -53.9
   11/01/2019 03:10      39.9      39.0       27      8.6      0.00      0.00      68.1     0.28      1020.1     0.4     SSE   151   1.1     SSE   163   9.67    262      -54.1
   11/01/2019 03:00      40.0      39.5       25      6.7      0.00      0.00      68.1     0.28      1020.2     0.4     SSE   155   1.0      SE   142   9.67    262      -54.0
   11/01/2019 02:50      40.6      39.5       25      7.3      0.00      0.00      68.2     0.28      1020.2     0.2      SE   134   1.0      SE   134   9.67    262      -54.5
   11/01/2019 02:40      40.7      40.2       24      6.1      0.00      0.00      68.2     0.28      1020.2     0.2     SSE   159   1.2     SSE   152   9.67    262      -53.7
   11/01/2019 02:30      41.0      40.2       23      5.8      0.00      0.00      68.3     0.28      1020.2     0.1       S   191   0.9      SE   146   9.67    262      -53.6
   11/01/2019 02:20      41.3      40.6       24      6.8      0.00      0.00      68.3     0.28      1020.2     0.0     ESE   120   0.5      SE   129   9.67    262      -53.6
   11/01/2019 02:10      41.9      41.0       25      8.5      0.00      0.00      68.3     0.28      1020.3     0.0     SSE   155   1.1     SSE   163   9.67    262      -53.9
   11/01/2019 02:00      42.0      41.3       23      6.3      0.00      0.00      68.3     0.28      1020.2     0.4     SSE   156   1.2     SSE   152   9.67    262      -53.5
   11/01/2019 01:50      42.0      41.6       22      5.7      0.00      0.00      68.4     0.28      1020.2     0.0     SSE   158   0.4     SSE   158   9.67    262      -54.4
   11/01/2019 01:40      41.9      41.1       24      7.2      0.00      0.00      68.4     0.28      1020.2     0.7     SSE   159   1.6     SSE   166   9.67    262      -54.8
   11/01/2019 01:30      42.2      41.6       22      6.0      0.00      0.00      68.4     0.28      1020.2     0.3       S   174   1.4      SE   144   9.67    262      -55.0
   11/01/2019 01:20      42.4      41.7       25      8.9      0.00      0.00      68.4     0.28      1020.2     0.2       S   172   1.2      SE   135   9.67    262      -56.1
   11/01/2019 01:10      42.3      41.5       25      8.6      0.00      0.00      68.5     0.28      1020.2     0.6     SSE   168   1.4       S   170   9.67    262      -56.2
   11/01/2019 01:00      42.8      42.1       22      6.7      0.00      0.00      68.5     0.28      1020.3     0.3     SSE   149   1.1      SE   136   9.67    262      -56.9
   11/01/2019 00:50      43.1      42.3       23      7.0      0.00      0.00      68.5     0.28      1020.3     0.1     NNE    24   1.3       N   355   9.67    262      -57.0
   11/01/2019 00:40      44.2      42.9       24      8.6      0.00      0.00      68.6     0.28      1020.3     0.0      SE   139   0.7     SSE   151   9.67    262      -56.9
   11/01/2019 00:30      44.1      43.0       21      5.8      0.00      0.00      68.6     0.28      1020.3     0.6       S   174   1.2     SSE   155   9.67    262      -56.5
   11/01/2019 00:20      43.8      43.0       22      6.7      0.00      0.00      68.6     0.28      1020.2     0.7       S   174   1.6      SW   215   9.67    262      -57.7
   11/01/2019 00:10      44.0      43.0       22      6.8      0.00      0.00      68.6     0.28      1020.1     0.7      SE   143   2.0     SSE   161   9.67    262      -58.1
   11/01/2019 00:00      44.1      43.4       21      6.7      0.00      0.00      68.7     0.28      1020.1     0.5       S   179   1.6     SSW   203   9.68    262      -58.7


Back to data home page